[[{"header":{"parameterUnit":"m.s-1","parameterCategory":1,"la1":30.6,"la2":29.2853,"lo1":-89.7004,"lo2":-87.6739,"dx":0.0162,"dy":0.0183,"nx":112,"ny":82,"refTime":"2023-01-28T06:00:00:Z","depth":0,"parameterNumber":2,"parameterNumberName":"U-component_of_WINDS"},"data":[0.0,0.0,0.0,0.0,0.0,0.0,0.0,0.0,0.0,0.0,0.0,0.0,0.0,0.0,0.0,0.0,0.0,0.0,0.0,0.0,0.0,0.0,0.0,0.0,0.0,0.0,0.0,0.0,0.0,0.0,0.0,0.0,0.0,0.0,0.0,0.0,0.0,0.0,0.0,0.0,0.0,0.0,0.0,0.0,0.0,0.0,0.0,0.0,0.0,0.0,0.0,0.0,0.0,0.0,0.0,0.0,0.0,0.0,0.0,0.0,0.0,0.0,0.0,0.0,0.0,0.0,0.0,0.0,0.0,0.0,0.0,0.0,0.0,0.0,0.0,0.0,0.0,0.0,0.0,0.0,0.0,0.0,0.0,0.0,0.0,0.0,0.0,0.0,0.0,0.0,5.5314,5.4925,5.4925,5.4608,5.3788,5.3205,5.2782,5.2539,0.0,0.0,0.0,0.0,0.0,0.0,0.0,0.0,0.0,0.0,0.0,0.0,0.0,0.0,0.0,0.0,0.0,0.0,0.0,0.0,0.0,0.0,0.0,0.0,0.0,0.0,0.0,0.0,0.0,0.0,0.0,0.0,0.0,0.0,0.0,0.0,0.0,0.0,0.0,0.0,0.0,0.0,0.0,0.0,0.0,0.0,0.0,0.0,0.0,0.0,0.0,0.0,0.0,0.0,0.0,0.0,0.0,0.0,0.0,0.0,0.0,0.0,0.0,0.0,0.0,0.0,0.0,0.0,0.0,0.0,0.0,0.0,0.0,0.0,0.0,0.0,0.0,0.0,0.0,0.0,0.0,0.0,0.0,0.0,0.0,0.0,0.0,0.0,0.0,0.0,0.0,0.0,0.0,0.0,0.0,0.0,0.0,0.0,0.0,0.0,0.0,0.0,0.0,0.0,5.5945,5.7114,5.7184,5.6646,5.5312,5.5103,5.4443,5.3188,0.0,0.0,0.0,0.0,0.0,0.0,0.0,0.0,0.0,0.0,0.0,0.0,0.0,0.0,0.0,0.0,0.0,0.0,0.0,0.0,0.0,0.0,0.0,0.0,0.0,0.0,0.0,0.0,0.0,0.0,0.0,0.0,0.0,0.0,0.0,0.0,0.0,0.0,0.0,0.0,0.0,0.0,0.0,0.0,0.0,0.0,0.0,0.0,0.0,0.0,0.0,0.0,0.0,0.0,0.0,0.0,0.0,0.0,0.0,0.0,0.0,0.0,0.0,0.0,0.0,0.0,0.0,0.0,0.0,0.0,0.0,0.0,0.0,0.0,0.0,0.0,0.0,0.0,0.0,0.0,0.0,0.0,0.0,0.0,0.0,0.0,0.0,0.0,0.0,0.0,0.0,0.0,0.0,0.0,0.0,0.0,0.0,0.0,0.0,0.0,0.0,0.0,0.0,5.5438,5.5756,5.6987,5.6633,5.5894,5.4901,5.4682,5.4328,5.3616,5.3138,0.0,0.0,0.0,0.0,0.0,0.0,0.0,0.0,0.0,0.0,0.0,0.0,0.0,0.0,0.0,0.0,0.0,0.0,0.0,0.0,0.0,0.0,0.0,0.0,0.0,0.0,0.0,0.0,0.0,0.0,0.0,0.0,0.0,0.0,0.0,0.0,0.0,0.0,0.0,0.0,0.0,0.0,0.0,0.0,0.0,0.0,0.0,0.0,0.0,0.0,0.0,0.0,0.0,0.0,0.0,0.0,0.0,0.0,0.0,0.0,0.0,0.0,0.0,0.0,0.0,0.0,0.0,0.0,0.0,0.0,0.0,0.0,0.0,0.0,0.0,0.0,0.0,0.0,0.0,0.0,0.0,0.0,0.0,0.0,0.0,0.0,0.0,0.0,0.0,0.0,0.0,0.0,0.0,0.0,0.0,0.0,0.0,0.0,0.0,0.0,0.0,0.0,5.6064,5.5956,5.6645,5.6125,5.5475,5.4721,5.4525,5.4305,5.4142,5.3954,0.0,0.0,0.0,0.0,0.0,0.0,0.0,0.0,0.0,0.0,0.0,0.0,0.0,0.0,0.0,0.0,0.0,0.0,0.0,0.0,0.0,0.0,0.0,0.0,0.0,0.0,0.0,0.0,0.0,0.0,0.0,0.0,0.0,0.0,0.0,0.0,0.0,0.0,0.0,0.0,0.0,0.0,0.0,0.0,0.0,0.0,0.0,0.0,0.0,0.0,0.0,0.0,0.0,0.0,0.0,0.0,0.0,0.0,0.0,0.0,0.0,0.0,0.0,0.0,0.0,0.0,0.0,0.0,0.0,0.0,0.0,0.0,0.0,0.0,0.0,0.0,0.0,0.0,0.0,0.0,0.0,0.0,0.0,0.0,0.0,0.0,0.0,0.0,0.0,0.0,0.0,0.0,0.0,0.0,0.0,0.0,0.0,0.0,0.0,0.0,0.0,0.0,5.6879,5.7151,5.7137,5.7278,5.7014,5.608,5.5922,5.5581,5.4658,5.4626,0.0,0.0,0.0,0.0,0.0,0.0,0.0,0.0,0.0,0.0,0.0,0.0,0.0,0.0,0.0,0.0,0.0,0.0,0.0,0.0,0.0,0.0,0.0,0.0,0.0,0.0,0.0,0.0,0.0,0.0,0.0,0.0,0.0,0.0,0.0,0.0,0.0,0.0,0.0,0.0,0.0,0.0,0.0,0.0,0.0,0.0,0.0,0.0,0.0,0.0,0.0,0.0,0.0,0.0,0.0,0.0,0.0,0.0,0.0,0.0,0.0,0.0,0.0,0.0,0.0,0.0,0.0,0.0,0.0,0.0,0.0,0.0,0.0,0.0,0.0,0.0,0.0,0.0,0.0,0.0,0.0,0.0,0.0,0.0,0.0,0.0,0.0,0.0,0.0,0.0,0.0,0.0,0.0,0.0,0.0,0.0,0.0,0.0,0.0,0.0,0.0,0.0,5.7355,5.7548,5.8001,5.7222,5.6447,5.5927,5.5766,5.5555,5.5134,0.0,0.0,0.0,0.0,0.0,0.0,0.0,0.0,0.0,0.0,0.0,0.0,0.0,0.0,0.0,0.0,0.0,0.0,0.0,0.0,0.0,0.0,0.0,0.0,0.0,0.0,0.0,0.0,0.0,0.0,0.0,0.0,0.0,0.0,0.0,0.0,0.0,0.0,0.0,0.0,0.0,0.0,0.0,0.0,0.0,0.0,0.0,0.0,0.0,0.0,0.0,0.0,0.0,0.0,0.0,0.0,0.0,0.0,0.0,0.0,0.0,0.0,0.0,0.0,0.0,0.0,0.0,0.0,0.0,0.0,0.0,0.0,0.0,0.0,0.0,0.0,0.0,0.0,0.0,0.0,0.0,0.0,0.0,0.0,0.0,0.0,0.0,0.0,0.0,0.0,0.0,0.0,0.0,0.0,0.0,0.0,0.0,0.0,0.0,0.0,0.0,0.0,5.7568,5.7763,5.8069,5.8319,5.7338,5.6603,5.6211,5.602,5.5701,5.5409,0.0,0.0,0.0,0.0,0.0,0.0,0.0,0.0,0.0,0.0,0.0,0.0,0.0,0.0,0.0,0.0,0.0,0.0,0.0,0.0,0.0,0.0,0.0,0.0,0.0,0.0,0.0,0.0,0.0,0.0,0.0,0.0,0.0,0.0,0.0,0.0,0.0,0.0,0.0,0.0,0.0,0.0,0.0,0.0,0.0,0.0,0.0,0.0,0.0,0.0,0.0,0.0,0.0,0.0,0.0,0.0,0.0,0.0,0.0,0.0,0.0,0.0,0.0,0.0,0.0,0.0,0.0,0.0,0.0,0.0,0.0,0.0,0.0,0.0,0.0,0.0,0.0,0.0,0.0,0.0,0.0,0.0,0.0,0.0,0.0,0.0,0.0,0.0,0.0,0.0,0.0,0.0,0.0,0.0,0.0,0.0,0.0,0.0,0.0,0.0,0.0,0.0,5.7139,5.8209,5.8702,5.7925,5.8031,5.7814,5.6963,5.6887,5.6503,0.0,0.0,0.0,0.0,0.0,0.0,0.0,0.0,0.0,0.0,0.0,0.0,0.0,0.0,0.0,0.0,0.0,0.0,0.0,0.0,0.0,0.0,0.0,0.0,0.0,0.0,0.0,0.0,0.0,0.0,0.0,0.0,0.0,0.0,0.0,0.0,0.0,0.0,0.0,0.0,0.0,0.0,0.0,0.0,0.0,0.0,0.0,0.0,0.0,0.0,0.0,0.0,0.0,0.0,0.0,0.0,0.0,0.0,0.0,0.0,0.0,0.0,0.0,0.0,0.0,0.0,0.0,0.0,0.0,0.0,0.0,0.0,0.0,0.0,0.0,0.0,0.0,0.0,0.0,0.0,0.0,0.0,0.0,0.0,0.0,0.0,0.0,0.0,0.0,0.0,0.0,0.0,0.0,0.0,0.0,0.0,0.0,0.0,0.0,0.0,0.0,0.0,0.0,5.8806,5.908,5.9215,5.8841,5.8353,5.7814,5.6963,5.7305,5.6963,5.5491,0.0,0.0,0.0,0.0,0.0,0.0,0.0,0.0,0.0,0.0,0.0,0.0,0.0,0.0,0.0,0.0,0.0,0.0,0.0,0.0,0.0,0.0,0.0,0.0,0.0,0.0,0.0,0.0,0.0,0.0,0.0,0.0,0.0,0.0,0.0,0.0,0.0,0.0,0.0,0.0,0.0,0.0,0.0,0.0,0.0,0.0,0.0,0.0,0.0,0.0,0.0,0.0,0.0,0.0,0.0,0.0,0.0,0.0,0.0,0.0,0.0,0.0,0.0,0.0,0.0,0.0,0.0,0.0,0.0,0.0,0.0,0.0,0.0,0.0,0.0,0.0,0.0,0.0,0.0,0.0,0.0,0.0,0.0,0.0,0.0,0.0,0.0,0.0,0.0,0.0,0.0,0.0,0.0,0.0,0.0,0.0,0.0,0.0,0.0,0.0,0.0,0.0,5.9317,5.945,5.9516,5.9383,5.908,5.8528,5.7707,5.7819,5.7379,5.5861,0.0,0.0,0.0,0.0,0.0,0.0,0.0,0.0,0.0,0.0,0.0,0.0,0.0,0.0,0.0,0.0,0.0,0.0,0.0,0.0,0.0,0.0,0.0,0.0,0.0,0.0,0.0,0.0,0.0,0.0,0.0,0.0,0.0,0.0,0.0,0.0,0.0,0.0,0.0,0.0,0.0,0.0,0.0,0.0,0.0,0.0,0.0,0.0,0.0,0.0,0.0,0.0,0.0,0.0,0.0,0.0,0.0,0.0,0.0,0.0,0.0,0.0,0.0,0.0,0.0,0.0,0.0,0.0,0.0,0.0,0.0,0.0,0.0,0.0,0.0,0.0,0.0,0.0,0.0,0.0,0.0,0.0,0.0,0.0,0.0,0.0,0.0,0.0,0.0,0.0,0.0,0.0,0.0,0.0,0.0,0.0,0.0,0.0,0.0,0.0,0.0,0.0,5.9081,5.9351,5.9586,5.9586,5.9914,5.9683,5.8806,5.8564,5.7819,5.6381,0.0,0.0,0.0,0.0,0.0,0.0,0.0,0.0,0.0,0.0,0.0,0.0,0.0,0.0,0.0,0.0,0.0,0.0,0.0,0.0,0.0,0.0,0.0,0.0,0.0,0.0,0.0,0.0,0.0,0.0,0.0,0.0,0.0,0.0,0.0,0.0,0.0,0.0,0.0,0.0,0.0,0.0,0.0,0.0,0.0,0.0,0.0,0.0,0.0,0.0,0.0,0.0,0.0,0.0,0.0,0.0,0.0,0.0,0.0,0.0,6.5413,6.5413,0.0,0.0,0.0,0.0,0.0,0.0,0.0,0.0,0.0,0.0,0.0,0.0,0.0,0.0,0.0,0.0,0.0,0.0,0.0,0.0,0.0,0.0,0.0,0.0,0.0,0.0,0.0,0.0,0.0,0.0,0.0,0.0,0.0,0.0,0.0,0.0,0.0,0.0,0.0,0.0,5.9814,5.9683,5.9586,5.9586,5.9617,5.9418,5.8737,5.9114,5.8458,5.6459,5.6614,0.0,0.0,0.0,0.0,0.0,0.0,0.0,0.0,0.0,0.0,0.0,0.0,0.0,0.0,0.0,0.0,0.0,0.0,0.0,0.0,0.0,0.0,0.0,0.0,0.0,0.0,0.0,0.0,0.0,0.0,0.0,0.0,0.0,0.0,0.0,0.0,0.0,0.0,0.0,0.0,0.0,0.0,0.0,0.0,0.0,0.0,0.0,0.0,0.0,0.0,0.0,0.0,0.0,0.0,0.0,0.0,0.0,0.0,0.0,6.5413,6.5413,0.0,0.0,0.0,0.0,0.0,0.0,0.0,0.0,0.0,0.0,0.0,0.0,0.0,0.0,0.0,0.0,0.0,0.0,0.0,0.0,0.0,0.0,0.0,0.0,0.0,0.0,0.0,0.0,0.0,0.0,0.0,0.0,0.0,0.0,0.0,0.0,0.0,0.0,0.0,0.0,6.0043,5.9617,5.9284,5.9284,5.9485,5.9418,5.8909,5.9046,5.8458,5.6844,5.6768,0.0,0.0,0.0,0.0,0.0,0.0,0.0,0.0,0.0,0.0,0.0,0.0,0.0,0.0,0.0,0.0,0.0,0.0,0.0,0.0,0.0,0.0,0.0,0.0,0.0,0.0,0.0,0.0,0.0,0.0,0.0,0.0,0.0,0.0,0.0,0.0,0.0,0.0,0.0,0.0,0.0,0.0,0.0,0.0,0.0,0.0,0.0,0.0,0.0,0.0,0.0,0.0,0.0,6.5413,6.5413,6.5413,6.5413,6.5413,6.5413,6.5413,6.5413,6.5413,6.5337,0.0,0.0,0.0,0.0,0.0,0.0,0.0,0.0,0.0,0.0,0.0,0.0,0.0,0.0,0.0,0.0,0.0,0.0,0.0,0.0,0.0,0.0,6.1093,6.1093,6.1093,6.1093,6.1093,0.0,0.0,0.0,0.0,0.0,0.0,0.0,0.0,0.0,0.0,0.0,6.0043,5.9485,5.9012,5.9012,5.9284,5.9351,5.9012,5.8841,5.8317,5.7297,5.6768,5.6179,0.0,0.0,0.0,0.0,0.0,0.0,0.0,0.0,0.0,0.0,0.0,0.0,0.0,0.0,0.0,0.0,0.0,0.0,0.0,0.0,0.0,0.0,0.0,0.0,0.0,0.0,0.0,0.0,0.0,0.0,0.0,0.0,6.2623,6.2738,0.0,0.0,0.0,0.0,0.0,0.0,0.0,0.0,0.0,0.0,0.0,0.0,0.0,6.5413,6.5413,6.5413,6.5413,6.5413,6.5413,6.5413,6.5413,6.5413,6.5413,6.5413,6.5413,0.0,6.5413,6.5375,0.0,0.0,0.0,0.0,0.0,0.0,0.0,0.0,0.0,0.0,0.0,0.0,0.0,0.0,0.0,0.0,0.0,0.0,0.0,0.0,0.0,0.0,6.1093,6.1093,6.1093,6.1093,6.1093,6.1093,6.1093,6.1093,6.1093,6.1093,0.0,0.0,0.0,0.0,0.0,0.0,6.0107,5.9485,5.9012,5.9012,5.9081,5.9081,5.9012,5.9012,5.8492,5.7297,5.7147,5.6614,5.5409,5.4998,0.0,0.0,0.0,0.0,0.0,0.0,0.0,0.0,0.0,0.0,0.0,0.0,0.0,0.0,0.0,0.0,0.0,0.0,0.0,0.0,0.0,0.0,0.0,0.0,0.0,0.0,0.0,0.0,0.0,6.2633,6.3083,6.3571,6.3626,6.3978,0.0,0.0,0.0,0.0,0.0,0.0,0.0,0.0,0.0,6.5413,6.5413,6.5413,6.5413,6.5413,6.5413,6.5413,6.5413,6.5413,6.5413,6.5413,6.5413,6.5413,6.5413,6.5413,6.5413,6.5413,6.5413,6.5413,0.0,0.0,0.0,0.0,6.4924,6.4888,6.4888,6.4781,6.4596,6.4596,0.0,0.0,0.0,0.0,0.0,0.0,0.0,6.1466,6.1466,6.1234,6.1093,6.1093,6.1093,6.1093,6.1093,6.1093,6.1093,6.1093,6.1093,6.1093,6.1093,6.0914,0.0,0.0,0.0,5.9849,5.9849,5.9351,5.9012,5.9012,5.9012,5.9012,5.9012,5.9012,5.8492,5.7297,5.7222,5.6691,5.5409,5.4749,5.4359,0.0,0.0,0.0,0.0,0.0,0.0,0.0,0.0,0.0,0.0,0.0,0.0,0.0,0.0,0.0,0.0,0.0,0.0,0.0,0.0,0.0,0.0,0.0,0.0,0.0,0.0,0.0,0.0,6.3413,6.3787,6.4428,6.4505,6.4734,0.0,0.0,0.0,0.0,0.0,0.0,6.5413,6.5413,6.5413,6.5413,6.5413,6.5413,6.5413,6.5413,6.5413,6.5413,6.5612,6.5753,6.582,6.6057,6.6183,6.6227,6.6211,6.6193,6.6106,6.5597,6.5413,6.5352,6.5264,6.5199,6.5128,6.4958,6.4888,6.4888,6.4888,6.4888,6.4888,6.4817,6.4328,6.3631,6.3498,0.0,0.0,0.0,0.0,6.1692,6.1795,6.1615,6.145,6.1628,6.17,6.17,6.17,6.17,6.1557,6.1165,6.1093,6.1093,6.1093,6.0793,0.0,6.0609,6.0043,5.9586,5.9586,5.9217,5.9012,5.9012,5.9012,5.9012,5.9012,5.9012,5.8562,5.752,5.7297,5.6768,5.562,5.4749,5.4274,5.4103,0.0,0.0,0.0,0.0,0.0,0.0,0.0,0.0,0.0,0.0,0.0,0.0,0.0,0.0,0.0,0.0,0.0,0.0,0.0,0.0,0.0,0.0,0.0,0.0,0.0,0.0,0.0,0.0,0.0,6.5337,6.5337,0.0,0.0,0.0,0.0,6.5413,6.5413,6.5413,6.5413,6.5413,6.5413,6.5413,6.5413,6.5413,6.5413,6.5413,6.5413,6.5413,6.6243,6.6731,6.6957,6.775,6.8243,6.8431,6.8432,6.8313,6.8025,6.6145,6.5352,6.529,6.5232,6.5128,6.4989,6.4924,6.4888,6.4888,6.4888,6.4888,6.4853,6.4671,6.4287,6.3792,6.3205,6.3002,0.0,0.0,6.1712,6.178,6.22,6.2295,6.2414,6.3092,6.327,6.327,6.327,6.327,6.2842,6.1379,6.1093,6.1093,6.1093,0.0,6.0609,6.0609,6.0043,5.9586,5.9586,5.9217,5.9012,5.9012,5.9012,5.9012,5.9012,5.9012,5.8702,5.8103,5.752,5.692,5.6303,5.5295,5.4528,5.4103,5.364,0.0,0.0,0.0,0.0,0.0,0.0,0.0,0.0,0.0,0.0,0.0,0.0,0.0,0.0,0.0,0.0,0.0,0.0,0.0,0.0,0.0,0.0,0.0,0.0,0.0,0.0,0.0,0.0,6.5413,6.5413,0.0,6.5413,6.5413,6.5413,6.5413,6.5413,6.5413,6.5413,6.5413,6.5413,6.5413,6.5413,6.5413,6.5413,6.5963,6.6243,6.6275,6.7108,6.7505,6.76,6.8101,6.8343,6.8413,6.842,6.8385,6.8218,6.7399,6.6955,6.6897,6.6726,6.6657,6.6622,6.6516,6.6518,6.6518,6.6518,6.6518,6.6482,6.6065,6.5741,6.5478,6.5106,6.5012,6.4831,6.4244,6.3892,6.3602,6.3509,6.3227,6.2995,6.3093,6.3101,6.3101,6.3101,6.3101,6.2959,6.2391,6.247,6.2531,6.2284,6.1969,6.1647,6.145,6.098,6.0705,6.0705,6.0566,6.0496,6.0496,6.0496,6.0496,6.0496,6.0047,5.9528,5.8923,5.779,5.692,5.6303,5.5049,5.4274,5.4103,5.3321,5.2788,0.0,0.0,0.0,0.0,0.0,0.0,0.0,0.0,0.0,0.0,0.0,0.0,0.0,0.0,0.0,0.0,0.0,0.0,0.0,0.0,0.0,0.0,0.0,0.0,0.0,6.5413,6.5413,6.5413,6.5413,6.5413,6.5413,6.5413,6.5413,6.5413,6.5413,6.5413,6.5413,6.5413,6.5413,6.5413,6.5689,6.5841,6.5841,6.6688,6.7082,6.7088,6.7948,6.838,6.8463,6.9014,6.9301,6.9363,6.9452,6.9408,6.9219,6.9009,6.8824,6.8574,6.7829,6.7534,6.7425,6.7426,6.739,6.739,6.739,6.7316,6.7126,6.677,6.6512,6.6284,6.6138,6.6091,6.5997,6.5533,6.505,6.4694,6.4535,6.4076,6.3626,6.3683,6.3559,6.3529,6.3529,6.3529,6.3529,6.3529,6.3329,6.3101,6.2782,6.2455,6.2121,6.1848,6.1501,6.1289,6.1289,6.1289,6.1289,6.1289,6.1289,6.1289,6.1289,6.0627,6.0175,5.9959,5.8253,5.7133,5.6822,5.5095,5.4017,5.3844,5.3144,5.2698,5.2729,0.0,0.0,0.0,0.0,0.0,0.0,0.0,0.0,0.0,0.0,0.0,0.0,0.0,0.0,0.0,0.0,0.0,0.0,0.0,0.0,0.0,0.0,0.0,6.5413,6.5413,6.5413,6.5413,6.5413,6.5413,6.5413,6.5413,6.5413,6.5413,6.5413,6.5413,6.5413,6.5413,6.5452,6.5452,6.6313,6.6739,6.6726,6.7553,6.7942,6.7921,6.8826,6.9344,6.9579,7.0622,7.1261,7.1497,7.1719,7.1529,7.1098,7.1031,7.0717,7.0133,6.843,6.7645,6.7466,6.7466,6.7466,6.7466,6.7466,6.7163,6.6762,6.6762,6.65,6.6165,6.6165,6.6165,6.6071,6.557,6.5124,6.4876,6.5222,6.4715,6.4326,6.5035,6.4944,6.4706,6.4706,6.4706,6.4706,6.4706,6.378,6.2788,6.2424,6.2088,6.1849,6.1849,6.157,0.0,6.1358,6.1358,6.1358,6.1358,6.1358,6.1358,6.1358,6.0784,6.0637,6.1252,5.8916,5.7582,5.7752,5.5435,5.3844,5.3377,5.2966,5.2698,5.2608,0.0,0.0,0.0,0.0,0.0,0.0,0.0,0.0,0.0,0.0,0.0,0.0,0.0,0.0,0.0,0.0,0.0,0.0,0.0,0.0,0.0,6.5413,6.5413,6.5413,6.5413,6.5413,6.5413,6.5413,6.5413,6.5413,6.5413,6.5413,6.5413,6.5413,6.5413,6.5413,6.597,6.6351,6.6338,6.714,6.7566,6.7572,6.8406,6.8826,6.8864,6.9699,7.0226,7.0464,7.0748,7.1092,7.1481,7.1356,7.1338,7.1338,7.1,7.0689,7.0394,6.9649,6.9319,6.9283,6.9247,6.9209,6.9209,6.9209,6.89,6.849,6.849,6.8219,6.7837,6.7837,6.7837,6.7691,6.6863,6.65,6.6349,6.5812,6.5283,6.4897,6.4841,6.4533,6.4252,6.4252,6.4252,6.4252,6.4252,6.4009,6.3764,6.3625,6.3554,6.3377,6.3162,6.3052,6.2979,6.2979,6.2979,6.2979,6.2979,6.2979,6.2979,6.2979,6.2316,6.2006,6.2151,6.0072,5.8707,5.8403,5.6143,5.4229,5.2877,5.2788,5.2427,0.0,0.0,0.0,0.0,0.0,0.0,0.0,0.0,0.0,0.0,0.0,0.0,0.0,0.0,0.0,0.0,0.0,0.0,0.0,0.0,0.0,0.0,6.5413,6.5413,6.5413,6.5413,6.5413,6.5413,6.5413,6.5413,6.5413,6.5413,6.5413,6.5413,6.5765,6.5925,6.5918,6.6765,6.7191,6.7216,6.8018,6.8438,6.8444,6.9278,6.9699,6.9699,7.0157,7.054,7.0783,7.0915,7.1137,7.1481,7.1409,7.1374,7.13,7.1023,7.0689,7.0369,0.0,0.0,0.0,0.0,6.9891,6.9891,6.9891,6.9579,6.9203,6.9203,6.8892,6.8506,6.8506,6.8506,6.8408,6.7826,6.7415,6.6988,6.6476,6.5668,6.4944,6.4775,6.4287,6.393,6.393,6.393,6.393,6.393,6.393,0.0,6.393,6.393,6.3858,6.3673,6.36,6.36,6.36,6.36,6.36,6.36,6.36,6.36,6.36,6.2965,0.0,0.0,0.0,5.9305,5.8084,5.5748,0.0,0.0,0.0,5.2518,5.2063,5.2063,0.0,0.0,5.1263,5.0544,0.0,0.0,0.0,0.0,0.0,0.0,0.0,0.0,0.0,0.0,0.0,0.0,0.0,0.0,0.0,0.0,6.5413,6.5413,6.5413,6.5413,6.5413,6.5413,6.5413,6.5413,6.5413,6.549,6.5536,6.5566,6.6351,6.6815,6.6841,6.7598,0.0,0.0,0.0,6.9355,6.9349,7.0037,7.0419,7.0419,7.0413,7.0601,7.0783,7.1023,7.1241,7.1465,7.1667,7.1529,7.1076,7.1031,7.0717,7.0251,7.0185,7.0077,6.9891,6.9891,6.9891,6.9891,6.9891,0.0,0.0,6.9166,6.8846,6.8506,6.8506,6.8506,6.8506,6.8457,6.7773,6.7101,6.7045,6.5851,6.4706,6.4706,6.4145,6.36,6.36,6.36,6.36,6.36,6.36,6.36,6.36,6.36,6.36,6.36,6.36,6.36,6.36,6.36,6.36,6.36,6.36,0.0,6.36,6.3083,6.3007,6.36,6.167,5.9547,5.7324,5.5086,5.3899,5.3837,5.316,5.2821,5.2821,5.276,5.2698,5.2698,5.1263,5.0763,0.0,0.0,0.0,0.0,0.0,0.0,0.0,0.0,0.0,0.0,0.0,0.0,0.0,0.0,0.0,6.5413,6.5413,6.5413,6.5413,6.5413,6.5413,6.5413,6.5413,6.5413,6.5413,6.6046,6.6466,6.6452,6.7216,6.7674,6.7674,6.8476,6.8935,6.8967,6.9769,7.019,7.019,7.0342,7.0419,7.0419,7.0622,0.0,7.0783,7.1023,7.112,7.1182,7.1465,7.1356,7.1031,7.1008,7.0623,7.0039,7.0039,6.9966,6.9891,6.9891,6.9891,6.9891,6.9659,6.9419,6.9166,6.8945,6.8707,6.8506,6.8506,6.8506,0.0,6.8033,6.7523,6.7024,6.6677,6.5633,6.4706,6.4706,6.4145,6.36,6.36,6.36,6.36,6.36,6.36,6.36,6.36,6.36,6.36,6.36,6.36,6.36,6.36,6.36,6.36,6.36,6.36,6.36,6.36,6.3491,6.3417,6.36,6.1522,5.9605,5.8065,5.6244,5.5068,5.4545,5.3868,5.3529,5.3529,5.2975,5.2698,5.2698,5.2427,5.2306,0.0,0.0,0.0,0.0,0.0,0.0,0.0,0.0,0.0,0.0,0.0,6.5413,6.5413,0.0,6.5413,6.5413,6.5413,6.5413,6.5413,6.5772,6.5887,6.5452,6.5772,6.6046,6.6046,6.6809,6.7299,6.7293,6.8095,6.8553,6.8553,6.9355,6.9775,6.9807,7.019,7.0419,7.0419,7.0419,7.0445,7.0593,7.0593,7.0783,7.1137,7.1137,7.1223,7.1442,7.1465,7.1281,7.0985,7.0651,7.0271,6.9929,6.9929,6.9929,6.9891,6.9891,6.9853,6.9699,6.9542,6.9294,6.899,6.8855,6.866,6.8506,6.8506,6.8506,6.8457,6.8222,6.7789,6.7268,6.67,6.5788,6.4944,6.4463,6.4002,6.36,6.36,6.36,6.36,6.36,6.36,6.36,6.36,6.36,6.36,6.36,6.36,6.36,6.36,6.36,6.36,6.36,6.36,6.36,6.36,6.3526,6.3452,6.3452,6.1332,5.9707,5.9123,5.6929,5.553,5.5222,5.4576,5.4237,5.4237,5.356,5.3221,5.3221,5.2883,5.2698,0.0,0.0,0.0,0.0,0.0,0.0,0.0,6.5413,6.5413,6.5413,6.5413,6.5413,6.5413,6.5413,6.5413,6.5413,6.5528,6.5643,6.565,6.6389,6.6663,6.5956,6.6504,6.693,6.6897,6.7681,6.8165,6.8133,6.8973,6.9431,6.9425,7.0037,7.0419,7.0419,7.0419,7.0419,7.0419,7.0445,7.0601,7.0821,7.0643,7.0902,7.143,7.13,7.1374,7.1559,7.1242,7.1054,7.0913,7.0238,6.9967,6.9891,6.9891,6.9891,6.9891,6.9891,6.9738,6.9501,6.946,6.9128,6.8772,6.8763,6.8613,6.8506,6.8506,6.8506,6.8506,6.8506,6.8171,6.763,6.6837,6.6002,6.5207,6.4323,6.3858,6.36,6.36,6.36,6.36,6.36,6.36,6.36,6.36,6.36,6.36,6.36,6.36,6.36,6.36,6.36,6.36,6.36,6.36,6.36,6.3526,6.3377,6.3302,6.3227,6.1168,5.9957,6.0128,5.7396,5.5995,5.6153,5.5347,5.4914,5.4914,5.4237,5.3929,5.3899,5.3345,5.2975,6.5897,6.5827,6.5741,6.555,6.5482,6.549,0.0,6.5413,6.5413,6.5413,6.5413,6.5413,6.5413,6.5413,6.5413,6.5413,6.6055,6.656,6.6548,6.7273,6.773,6.7649,6.7681,6.7751,6.7789,6.8521,6.9049,6.9043,6.9807,7.0266,7.0266,7.0342,7.0419,7.0419,7.0419,7.0419,7.0419,7.0622,7.0794,7.0783,7.118,7.13,7.1141,7.1544,7.1392,7.081,7.0337,7.0362,7.0679,7.0141,6.9891,6.9891,6.9891,6.9891,6.9891,6.9891,6.9738,6.946,6.9294,6.9034,6.8763,6.8565,6.8506,6.8506,6.8506,6.8506,6.8506,6.8506,6.8171,6.763,6.6837,6.6002,6.5207,6.4323,6.3858,6.36,6.36,6.36,6.36,6.36,6.36,6.36,6.36,6.36,6.36,6.36,6.36,6.36,6.36,6.36,6.36,6.36,6.36,6.3526,6.3377,6.3302,6.3227,6.3076,6.1086,6.0299,6.1086,5.8237,5.7086,5.79,5.6372,5.5592,5.5592,5.4945,5.4607,5.4607,5.4545,5.3868,6.5667,6.5646,6.5605,6.5452,6.5452,6.5413,6.5413,6.5413,6.5413,6.5413,6.5413,6.5413,6.5413,6.5413,6.5574,6.6046,6.6483,6.6865,6.7311,6.8145,6.8641,6.8641,6.9088,6.9196,6.8706,6.9431,6.989,6.9884,7.0228,7.0419,7.0419,7.0419,7.0419,7.0419,7.057,7.0622,7.0622,7.0851,7.1047,7.1201,7.1241,7.1356,7.1529,7.1552,7.1339,7.0915,7.0728,7.0546,7.0362,7.0175,7.0003,6.9891,6.9891,6.9777,6.9659,6.9659,6.9501,6.9294,6.9034,6.8809,6.8613,6.8554,6.8506,6.8506,6.8506,6.8506,6.8506,6.8506,6.8272,6.7826,6.6591,6.593,6.5332,6.4111,6.3712,6.36,6.36,6.36,6.36,6.36,6.36,6.36,6.36,6.36,6.36,6.36,6.36,6.36,6.36,6.36,6.36,6.36,6.3526,6.3377,6.3302,6.3076,6.2923,6.2847,6.1399,6.0703,6.1119,5.9411,5.8637,5.8998,5.7803,5.7121,5.7121,5.5875,5.5284,5.5284,5.4914,5.4422,6.5498,6.5513,6.549,6.5413,6.5413,6.5413,6.5413,6.5413,6.5413,6.5413,6.5413,6.5413,6.5413,6.5605,6.5987,6.6618,6.7102,6.7591,6.8183,6.8979,6.9546,6.9546,7.0042,7.0157,6.9584,7.0042,7.0419,7.0419,7.0419,7.0419,7.0419,7.0419,7.0445,7.0501,7.071,7.081,7.0889,7.1047,7.1241,7.1481,7.13,7.1392,7.1743,7.1452,7.1278,7.1192,7.1014,7.0728,7.031,7.0243,7.0073,6.9891,6.9891,6.9738,6.9501,6.946,6.9294,6.9078,6.89,6.866,6.8506,6.8506,6.8506,6.8506,6.8506,6.8506,6.8506,6.8506,6.8408,6.793,6.6378,6.5894,6.5426,6.3967,6.36,6.36,6.36,6.36,6.36,6.36,6.36,6.36,6.36,6.36,6.36,6.36,6.36,6.36,6.36,6.36,6.36,6.36,6.3452,6.3302,6.3227,6.2923,6.2727,6.2615,6.1595,6.1069,6.135,6.0226,5.9674,5.9935,5.9088,5.8546,5.8546,5.7398,5.6591,5.6435,5.6124,5.5781,6.552,6.549,6.549,6.5413,6.5413,6.5413,6.5413,6.5413,6.5413,6.5413,6.5413,6.5413,6.5413,6.6093,6.6697,6.6697,6.805,6.9131,6.9169,6.9851,7.0381,7.0381,7.0381,7.0381,7.0381,7.0381,7.0419,7.0419,7.0419,7.0419,7.0419,7.0419,7.0532,7.0774,7.0771,7.0876,7.1076,7.1098,7.1241,7.1481,7.1481,7.1568,7.1665,7.128,7.1274,7.1455,7.0875,7.0593,7.0563,7.031,7.0073,6.9891,6.9891,6.9738,6.9501,6.9251,6.9034,6.8809,6.8772,6.866,6.8506,6.8506,6.8506,6.8506,6.8506,6.8506,6.8506,6.8506,6.8408,6.793,6.6378,6.5894,6.5426,6.3967,6.36,6.36,6.36,6.36,6.36,6.36,6.36,6.36,6.36,6.36,6.36,6.36,6.36,6.36,6.36,6.36,6.36,6.36,6.3452,6.3227,6.3,6.2847,6.2649,6.2381,6.1513,6.1432,6.2302,6.0567,6.0022,6.0903,6.0054,5.9587,5.9587,5.9499,5.9024,5.818,5.9024,5.8638,6.5452,6.5413,6.5413,6.5413,6.5413,6.5413,6.5413,6.5413,6.5413,6.5413,6.5864,6.6246,6.6246,6.6927,6.7692,6.8279,6.8858,6.936,6.9928,7.0228,7.0419,7.0419,7.0419,7.0419,7.0419,7.0419,7.0419,7.0419,7.0419,7.0419,7.0419,7.0419,7.0445,7.0524,7.07,7.0915,7.1098,7.1281,7.1481,7.1719,7.1665,7.1591,7.1547,7.1436,7.1376,7.1334,7.1139,7.0875,7.0593,7.0501,7.0247,6.9891,6.9699,6.9501,6.9251,6.9034,6.8763,6.8613,6.8613,6.8554,6.8506,6.8506,6.8506,6.8506,6.8506,6.8506,6.8506,6.8506,6.8358,6.7967,6.7008,6.6175,6.5462,6.4463,6.3895,6.36,6.36,6.36,6.36,6.36,6.36,6.36,6.36,6.36,6.36,6.36,6.36,6.36,6.36,6.3452,6.3377,6.3377,6.3076,6.2847,6.277,6.2615,6.2459,6.2381,6.211,6.203,6.2381,6.179,6.1595,6.1951,6.0986,6.0567,6.0567,5.9935,5.9411,5.9177,5.9411,5.9282,6.5413,6.5413,6.5413,6.5413,6.5413,6.5413,6.5413,6.5413,6.5413,6.5413,6.6093,6.6705,6.6713,6.7623,6.854,6.9126,6.9437,6.9813,7.0342,7.0419,7.0419,7.0419,7.0419,7.0419,7.0419,7.0419,7.0419,7.0419,7.0419,7.0419,7.0419,7.0419,7.0445,7.054,7.0783,7.1023,7.1261,7.143,7.1568,7.1665,7.1651,7.1598,7.1494,7.1455,7.1355,7.1291,7.1291,7.1042,7.0593,7.0593,7.0276,6.9738,6.9542,6.9336,6.9034,6.8855,6.867,6.8506,6.8506,6.8506,6.8506,6.8506,6.8506,6.8506,6.8506,6.8506,6.8506,6.8457,6.8259,6.7967,6.7213,6.6332,6.5397,6.477,6.4111,6.36,6.36,6.36,6.36,6.36,6.36,6.36,6.36,6.36,6.36,6.36,6.36,6.36,6.36,6.3452,6.3302,6.3302,6.2923,6.2727,6.2727,6.2537,6.2381,6.2381,6.2381,6.2381,6.2381,6.2381,6.2381,6.2381,6.179,6.1513,6.1513,6.0903,6.0482,6.0108,6.045,6.0397,6.5413,6.5413,6.5413,6.5413,6.5413,6.5413,6.5413,6.5413,6.5413,6.5452,6.617,6.6751,6.6815,6.8183,6.9246,6.9246,6.989,7.0419,7.0419,7.0419,7.0419,7.0419,7.0419,7.0419,7.0419,7.0419,7.0419,7.0419,7.0419,7.0419,7.0419,7.0419,7.054,7.0794,7.1,7.1203,7.1465,7.1481,7.1486,7.1417,7.1508,7.1547,7.1475,7.1334,7.1291,7.1291,7.1291,7.1042,7.0593,7.0593,7.0137,6.9501,6.9501,6.9171,6.8809,6.8809,6.866,6.8506,6.8506,6.8506,6.8506,6.8506,6.8506,6.8506,6.8506,6.8506,6.8457,6.8309,6.8208,6.7915,6.7137,6.6307,6.5462,6.477,6.4147,6.3673,6.36,6.36,6.36,6.36,6.36,6.36,6.36,6.36,6.36,6.36,6.36,6.36,6.36,6.3377,6.3302,6.3227,6.2923,6.2693,6.2693,6.2459,6.2381,6.2381,6.2381,6.2381,6.2381,6.2381,6.2381,6.2381,6.2381,6.2381,6.2381,6.2381,6.1951,6.1069,6.1951,6.1951,6.5413,6.5413,6.5413,6.5413,6.5413,6.5413,6.5413,6.5413,6.5566,6.6208,6.7003,6.7806,6.8444,6.9399,7.008,7.008,7.0266,7.0419,7.0419,7.0419,7.0419,7.0419,7.0419,7.0419,7.0419,7.0419,7.0419,7.0419,7.0419,7.0419,7.0419,7.0563,7.0622,7.0508,7.0902,7.112,7.1182,7.152,7.1575,7.1455,7.1513,7.1475,7.1334,7.1313,7.1291,7.1291,7.1291,7.1042,7.0593,7.0593,7.0137,6.9501,6.9336,6.9078,6.8809,6.8613,6.8554,6.8506,6.8506,6.8506,6.8506,6.8506,6.8506,6.8506,6.8506,6.8506,6.8457,6.8309,6.8208,6.8018,6.7757,6.7024,6.6222,6.5561,6.4838,6.4218,6.3712,6.36,6.36,6.36,6.36,6.36,6.36,6.36,6.36,6.36,6.36,6.3526,6.3377,6.3227,6.3,6.2847,6.2615,6.2459,6.2459,6.2459,6.2381,6.2381,6.2381,6.2381,6.2381,6.2381,6.2381,6.2381,6.2381,6.2381,6.2381,6.2381,6.2302,6.203,6.2302,6.2302,6.5413,6.5413,6.5413,6.5413,6.5413,6.5413,6.5413,6.5681,6.6093,6.6621,6.7623,6.8623,6.9126,6.9851,7.0419,7.0419,7.0419,7.0419,7.0419,7.0419,7.0419,7.0419,7.0419,7.0419,7.0419,7.0419,7.0419,7.0419,7.0419,7.0419,7.0419,7.057,7.057,7.0419,7.0783,7.1047,7.1239,7.1503,7.1598,7.1494,7.1494,7.1435,7.1291,7.1291,7.1291,7.1291,7.1201,7.0966,7.0593,7.0407,6.9925,6.9336,6.9122,6.8855,6.866,6.8554,6.8506,6.8506,6.8506,6.8506,6.8506,6.8506,6.8506,6.8506,6.8506,6.8506,6.8457,6.8259,6.8158,6.8055,6.7899,6.723,6.6618,6.6186,6.5303,6.4463,6.4076,6.3785,6.36,6.36,6.36,6.36,6.36,6.36,6.36,6.36,6.3526,6.3377,6.3227,6.3076,6.2923,6.2847,6.2537,6.2381,6.2381,6.2381,6.2381,6.2381,6.2381,6.2381,6.2381,6.2381,6.2381,6.2381,6.2381,6.2381,6.2381,6.2381,6.2381,6.2381,6.2381,6.2381,6.5413,6.5413,6.5413,6.5413,6.5413,6.5413,6.5413,6.6055,6.6736,6.685,6.8088,6.924,6.9322,6.9928,7.0419,7.0419,7.0419,7.0419,7.0419,7.0419,7.0419,7.0419,7.0419,7.0419,7.0419,7.0419,7.0419,7.0419,7.0419,7.0419,7.0419,7.0445,7.0501,7.0593,7.0728,7.1014,7.1436,7.1547,7.1529,7.1475,7.1475,7.1415,7.1291,7.1291,7.1291,7.1291,7.1081,7.0832,7.0532,7.0068,6.9623,6.9122,6.89,6.8707,6.8506,6.8506,6.8506,6.8506,6.8506,6.8506,6.8506,6.8506,6.8506,6.8506,6.8506,6.8457,6.8408,6.8208,6.807,6.8055,6.7794,6.7266,6.6794,6.6618,6.5625,6.4669,6.4532,6.4039,6.36,6.36,6.36,6.36,6.36,6.36,6.36,6.36,6.3452,6.3227,6.3076,6.3,6.2923,6.2923,6.2615,6.2381,6.2381,6.2381,6.2381,6.2381,6.2381,6.2381,6.2381,6.2381,6.2381,6.2381,6.2381,6.2381,6.2381,6.2381,6.2381,6.2381,6.2381,6.2381,6.5413,6.5413,6.5413,6.5413,6.5413,6.5413,6.5413,6.6055,6.6889,6.7569,6.8518,6.9406,7.0075,7.0304,7.0419,7.0419,7.0419,7.0419,7.0419,7.0419,7.0419,7.0419,7.0419,7.0419,7.0419,7.0419,7.0419,7.0419,7.0419,7.0419,7.0419,7.0771,7.1162,7.1544,7.1158,7.1153,7.1581,7.1511,7.1475,7.1313,7.1313,7.1313,7.1291,7.1291,7.1291,7.1291,7.1081,7.0738,7.0337,7.0033,6.9466,6.8855,6.8855,6.8707,6.8506,6.8506,6.8506,6.8506,6.8506,6.8506,6.8506,6.8506,6.8506,6.8506,6.8506,6.8408,6.8309,6.8121,6.8018,6.7899,6.7741,6.7633,6.723,6.6064,6.559,6.5105,6.4039,6.3639,6.36,6.36,6.36,6.36,6.36,6.36,6.36,6.36,6.3452,6.3302,6.3227,6.2923,6.2693,6.2537,6.2459,6.2381,6.2381,6.2381,6.2381,6.2381,6.2381,6.2381,6.2381,6.2381,6.2381,6.2381,6.2381,6.2381,6.2381,6.2381,6.2381,6.2381,6.2381,6.2381,6.5413,6.5413,6.5413,6.5413,6.5719,6.6063,6.6077,6.7095,6.8112,6.8502,6.926,6.9948,7.0342,7.0419,7.0419,7.0419,7.0419,7.0419,7.0419,7.0419,7.0419,7.0419,7.0419,7.0419,7.0419,7.0419,7.0419,7.0419,7.0419,7.0419,7.0419,7.0755,7.1023,7.1239,7.1153,7.1192,7.1317,7.1376,7.1355,7.1291,7.1291,7.1291,7.1291,7.1291,7.1291,7.1291,7.1056,7.0681,7.0271,6.9852,6.934,6.8809,6.867,6.8565,6.8506,6.8506,6.8506,6.8506,6.8506,6.8506,6.8506,6.8506,6.8457,6.8408,6.8408,6.8309,6.8208,6.8121,6.7967,6.7899,6.7741,6.7687,6.7542,6.6816,6.6125,6.5202,6.3895,6.36,6.36,6.36,6.36,6.36,6.36,6.36,6.36,6.36,6.3452,6.3227,6.3152,6.2847,6.2615,6.2537,6.2459,6.2381,6.2381,6.2381,6.2381,6.2381,6.2381,6.2381,6.2381,6.2381,6.2381,6.2381,6.2381,6.2381,6.2381,6.2381,6.2381,6.2381,6.2381,6.2381,6.5296,6.5283,6.5337,6.5605,6.6178,6.6751,6.693,6.8101,6.9228,6.9202,6.9851,7.0419,7.0419,7.0419,7.0419,7.0419,7.0419,7.0419,7.0419,7.0419,7.0419,7.0419,7.0419,7.0419,7.0419,7.0419,7.0419,7.0419,7.0419,7.0451,7.0477,7.0652,7.0794,7.0832,7.1053,7.1186,7.1178,7.1247,7.1291,7.1291,7.1291,7.1291,7.1291,7.1291,7.1291,7.1291,7.103,7.0652,7.0167,6.9702,6.9214,6.8717,6.8554,6.8506,6.8506,6.8506,6.8506,6.8506,6.8506,6.8506,6.8506,6.8457,6.8358,6.8309,6.8309,6.8208,6.8055,6.8055,6.7952,6.7847,6.7741,6.7687,6.7687,6.7488,6.6404,6.5105,6.4039,6.3712,6.36,6.36,6.36,6.36,6.36,6.36,6.36,6.36,6.3377,6.3152,6.3,6.277,6.2649,6.2649,6.2459,6.2381,6.2381,6.2381,6.2381,6.2381,6.2381,6.2381,6.2381,6.2381,6.2381,6.2381,6.2381,6.2381,6.2381,6.2381,6.2381,6.2381,6.2381,6.2381,6.486,6.4848,6.5116,6.63,6.6643,6.6911,6.7649,6.8488,6.9169,6.9208,6.9851,7.0419,7.0419,7.0419,7.0419,7.0419,7.0419,7.0419,7.0419,7.0419,7.0419,7.0419,7.0419,7.0419,7.0419,7.0419,7.0419,7.0419,7.0419,7.0508,7.0766,7.0719,7.0914,7.1299,7.1186,7.1224,7.1455,7.1334,7.1291,7.1291,7.1291,7.1291,7.1291,7.1291,7.1291,7.1291,7.1081,7.0584,6.9918,6.9626,6.9134,6.8506,6.8506,6.8506,6.8506,6.8506,6.8506,6.8506,6.8506,6.8506,6.8457,6.8358,6.8309,6.8309,6.8309,6.8107,6.7952,6.7952,6.7847,6.7741,6.7687,6.7687,6.7542,6.6946,6.5689,6.4669,6.4532,6.4039,6.36,6.36,6.36,6.36,6.36,6.36,6.36,6.36,6.3302,6.3,6.3,6.2693,6.2459,6.2459,6.2381,6.2381,6.2381,6.2381,6.2381,6.2381,6.2381,6.2381,6.2381,6.2381,6.2381,6.2381,6.2381,6.2381,6.2381,6.2381,6.2381,6.2381,6.2381,6.2381,6.4671,6.4689,6.5001,6.6376,6.707,6.7583,6.8144,6.883,6.9361,6.9169,6.9512,6.9889,7.0038,7.0247,7.0419,7.0419,7.0419,7.0419,7.0419,7.0419,7.0419,7.0419,7.0419,7.0419,7.0419,7.0419,7.0419,7.0419,7.0353,7.0451,7.0719,7.0832,7.0902,7.0965,7.1208,7.1334,7.1394,7.1313,7.1291,7.1291,7.1291,7.1291,7.1291,7.1291,7.1291,7.1291,7.1178,7.0661,6.988,6.9738,6.9223,6.8506,6.8506,6.8506,6.8506,6.8506,6.8506,6.8506,6.8506,6.8506,6.8457,6.8358,6.8259,6.8208,6.8208,6.8004,6.7794,6.7899,6.7794,6.7687,6.7687,6.7687,6.7542,6.6852,6.594,6.5105,6.4669,6.4111,6.36,6.36,6.36,6.36,6.36,6.36,6.36,6.36,6.3452,6.3302,6.3076,6.2847,6.2693,6.2459,6.2381,6.2381,6.2381,6.2381,6.2381,6.2381,6.2381,6.2381,6.2381,6.2381,6.2381,6.2381,6.2381,6.2381,6.2381,6.2381,6.2381,6.2381,6.2381,6.2381,6.4145,6.4445,6.5057,6.6459,6.741,6.8104,6.8678,6.9042,6.9171,6.8966,6.9227,6.951,6.9663,7.0071,7.0419,7.0419,7.0419,7.0419,7.0419,7.0419,7.0419,7.0419,7.0419,7.0386,7.0386,7.0353,7.0353,7.0386,7.0353,7.0451,7.0609,7.0887,7.0953,7.0821,7.1208,7.1415,7.1291,7.1291,7.1291,7.1291,7.1291,7.1291,7.1291,7.1291,7.1291,7.1291,7.1224,7.0717,6.988,6.9849,6.9306,6.8506,6.8506,6.8506,6.8506,6.8506,6.8506,6.8506,6.8506,6.8506,6.8457,6.8358,6.8208,6.807,6.8018,6.7899,6.7741,6.7847,6.7794,6.7687,6.7687,6.7687,6.7542,6.7117,6.6247,6.5462,6.4972,6.4218,6.36,6.36,6.36,6.36,6.36,6.36,6.36,6.36,6.3526,6.3377,6.3152,6.3076,6.2847,6.2537,6.2459,6.2459,6.2381,6.2381,6.2381,6.2381,6.2381,6.2381,6.2381,6.2381,6.2381,6.2381,6.2381,6.2381,6.2381,6.2381,6.2381,6.2381,6.2381,6.2381,6.3137,6.4039,6.5298,6.6741,6.7613,6.8371,6.9281,6.9021,6.8622,6.8622,6.9106,6.951,6.951,6.9997,7.0419,7.0419,7.0419,7.0419,7.0419,7.0419,7.0419,7.0419,7.0419,7.0386,7.0286,7.0255,7.022,7.0324,7.0413,7.0477,7.0419,7.0832,7.1106,7.1106,7.1224,7.1291,7.1291,7.1291,7.1291,7.1291,7.1291,7.1291,7.1291,7.1291,7.1291,7.1291,7.1224,7.0717,6.988,6.9849,6.9306,6.8506,6.8506,6.8506,6.8506,6.8506,6.8506,6.8506,6.8506,6.8506,6.8457,6.8358,6.8208,6.8107,6.7915,6.7794,6.7687,6.7687,6.7687,6.7687,6.7687,6.7687,6.7687,6.7687,6.6641,6.559,6.559,6.4532,6.36,6.36,6.36,6.36,6.36,6.36,6.36,6.36,6.3452,6.3302,6.3302,6.3152,6.2923,6.2693,6.2727,6.2649,6.2381,6.2381,6.2381,6.2381,6.2381,6.2381,6.2381,6.2381,6.2381,6.2381,6.2381,6.2381,6.2381,6.2381,6.2381,6.2381,6.2381,6.2381,6.3676,6.4081,6.4856,6.6799,6.7454,6.7747,6.8297,6.8197,6.7936,6.77,6.8283,6.8884,6.8978,6.9702,7.0286,7.0386,7.0319,7.0324,7.0386,7.0353,7.0319,7.0319,7.0286,7.0255,7.022,7.0185,7.0185,7.022,7.0353,7.0477,7.0593,7.086,7.103,7.103,7.1201,7.1291,7.1291,7.1291,7.1291,7.1291,7.1291,7.1291,7.1291,7.1291,7.1269,7.1224,7.1224,7.0837,7.0228,6.9921,6.9468,6.8863,6.8613,6.8506,6.8506,6.8506,6.8506,6.8506,6.8506,6.8457,6.8358,6.8208,6.8107,6.7952,6.7794,6.7741,6.7687,6.7687,6.7687,6.7687,6.7687,6.7687,6.7687,6.7687,6.6641,6.559,6.559,6.4532,6.36,6.36,6.36,6.36,6.36,6.36,6.36,6.36,6.3526,6.3452,6.3302,6.3152,6.2923,6.2693,6.2571,6.2459,6.2381,6.2381,6.2381,6.2381,6.2381,6.2381,6.2381,6.2381,6.2381,6.2381,6.2381,6.2381,6.2381,6.2381,6.2381,6.2381,6.2381,6.2381,0.0,6.4141,6.493,6.6627,6.7269,6.7543,6.7774,6.7557,6.7305,6.7097,6.7804,6.8558,6.866,6.9506,7.022,7.0286,7.0255,7.022,7.0286,7.0289,7.0255,7.0255,7.0185,7.0149,7.0185,7.0114,7.0077,7.0114,7.0315,7.054,7.0652,7.094,7.113,7.113,7.1224,7.1291,7.1291,7.1291,7.1291,7.1291,7.1291,7.1291,7.1269,7.1269,7.1224,7.1178,7.1154,7.0848,0.0,7.0095,6.9664,6.9047,6.8855,6.8613,6.8506,6.8506,6.8506,6.8506,6.8457,6.8358,6.8259,6.8107,6.7952,6.7794,6.7741,6.7687,6.7687,6.7687,6.7687,6.7687,6.7687,6.7687,6.7687,6.7687,6.6641,6.559,6.559,6.4532,6.36,6.36,6.36,6.36,6.36,6.36,6.36,6.36,6.36,6.3526,6.3452,6.3302,6.3152,6.2847,6.2693,6.2537,6.2381,6.2381,6.2381,6.2381,6.2381,6.2381,6.2381,6.2381,6.2381,6.2381,6.2381,6.2381,6.2381,6.2381,6.2381,6.2381,6.2381,6.2381,0.0,0.0,6.5448,6.6287,6.7043,6.7577,6.761,0.0,0.0,0.0,6.7647,6.8464,6.8511,6.9385,7.0149,7.0185,7.0185,7.0185,7.0185,7.0185,7.0185,7.0185,7.0039,7.0039,7.0149,7.0004,6.9929,7.0003,7.0375,7.0593,7.0622,7.1067,7.1291,7.1291,7.1291,7.1291,7.1291,7.1291,7.1291,7.1291,7.1291,7.1269,7.1201,7.1201,7.1154,7.1081,7.103,7.0766,7.0425,7.0369,6.9851,6.9134,6.9091,6.8817,6.8506,6.8506,6.8506,6.8457,6.8358,6.8309,6.8208,6.8004,6.7794,6.7687,6.7687,6.7687,6.7687,6.7687,6.7687,6.7687,6.7687,6.7687,6.7687,6.7687,6.6641,6.559,6.559,6.4532,6.36,6.36,6.36,6.36,6.36,6.36,6.36,6.36,6.36,6.36,6.36,6.36,6.3452,6.3076,6.3,6.2847,6.2459,6.2381,6.2381,6.2381,6.2381,6.2381,6.2381,6.2381,6.2381,6.2381,6.2381,6.2381,6.2381,6.2381,6.2381,6.2381,6.2381,6.2381,0.0,0.0,6.5711,6.6474,6.6837,6.6983,0.0,0.0,0.0,0.0,6.7341,6.7959,6.8416,6.8966,6.9544,7.0114,7.0077,7.0004,7.0149,7.0114,7.0039,7.0039,6.9966,6.9929,6.9967,6.9929,6.9966,7.0106,7.0439,7.0681,7.0887,7.1178,7.1291,7.1291,7.1291,7.1291,7.1291,7.1291,7.1291,7.1291,7.1247,7.1224,7.1201,7.1154,7.1081,7.103,7.1005,7.0925,7.0777,7.0432,6.9995,6.9508,6.9219,6.8817,6.8506,6.8506,6.8408,6.8358,6.8309,6.8158,6.7952,6.7794,6.7741,6.7687,6.7687,6.7687,6.7687,6.7687,6.7687,6.7687,6.7687,6.7687,6.7687,6.7687,6.6641,6.559,6.559,6.4532,6.36,6.36,6.36,6.36,6.36,6.36,6.36,6.36,6.3452,6.3452,6.36,6.3377,6.3076,6.3,6.2847,6.2693,6.2381,6.2381,6.2381,6.2381,6.2381,6.2381,6.2381,6.2381,6.2381,6.2381,6.2381,6.2381,6.2381,6.2381,6.2381,6.2381,6.2381,6.2381,6.4722,6.5265,6.5772,6.6605,6.6786,6.6786,0.0,0.0,0.0,0.0,0.0,6.806,6.8368,6.9003,6.9582,7.0004,6.9967,6.9929,7.0041,7.0004,6.9929,6.9929,6.9929,6.9891,6.9891,6.9966,7.0073,7.0175,7.0563,7.0832,7.1005,7.1201,7.1291,7.1291,7.1291,7.1291,7.1291,7.1269,7.1247,7.1247,7.1201,7.1154,7.1106,7.1081,7.103,7.0952,7.0952,7.0832,7.0593,7.04,6.9959,6.9388,6.9176,6.8817,6.8506,6.8408,6.8358,6.8259,6.8158,6.8004,6.7794,6.7741,6.7687,6.7687,6.7687,6.7687,6.7687,6.7687,6.7687,6.7687,6.7687,6.7687,6.7687,6.7687,6.6641,6.559,6.559,6.4532,6.36,6.36,6.36,6.36,6.36,6.36,6.36,6.36,6.3526,6.3452,6.36,6.3302,6.3076,6.3,6.2847,6.2649,6.2381,6.2381,6.2381,6.2381,6.2381,6.2381,6.2381,6.2381,6.2381,6.2381,6.2381,6.2381,6.2381,6.2381,6.2381,6.2381,6.2381,6.2381,6.5374,6.57,6.5953,6.6641,6.6786,6.6786,6.6786,0.0,0.0,0.0,0.0,6.8222,6.832,6.9091,6.9777,6.9891,6.9891,6.9891,6.9891,6.9891,6.9891,6.9891,6.9891,6.9891,6.9891,7.0073,7.0209,7.0276,7.0719,7.1005,7.1056,7.1201,7.1291,7.1291,7.1291,7.1269,7.1269,7.1224,7.1201,7.1201,7.113,7.1056,7.1005,7.0979,7.0925,7.0805,7.0805,7.0593,7.02,7.02,6.9777,6.9091,6.9091,6.8817,6.8457,6.8358,6.8309,6.8208,6.7952,6.7794,6.7687,6.7687,6.7687,6.7687,6.7687,6.7687,6.7687,6.7687,6.7687,6.7687,6.7687,6.7687,6.7687,6.7687,6.6641,6.559,6.559,6.4532,6.36,6.36,6.36,6.36,6.36,6.36,6.36,6.36,6.36,6.3526,6.3526,6.3377,6.3152,6.3,6.277,6.2649,6.2381,6.2381,6.2381,6.2381,6.2381,6.2381,6.2381,6.2381,6.2381,6.2381,6.2381,6.2381,6.2381,6.2381,6.2381,6.2381,6.2381,6.2381,6.5374,6.6098,6.6641,6.6786,6.6786,6.6786,6.6786,6.6786,0.0,0.0,0.0,0.0,6.8222,6.8788,6.9382,6.9853,6.9891,6.9891,6.9891,6.9891,6.9891,6.9891,6.9891,6.9891,6.9891,7.0073,7.031,7.0532,7.0832,7.1081,7.1247,7.1269,7.1269,7.1224,7.1224,7.1201,7.113,7.1178,7.1178,7.1106,7.1056,7.1005,7.1005,7.0952,7.0748,7.04,7.04,7.0133,6.9777,6.9777,6.9508,6.9091,6.9091,6.8817,6.8457,6.8358,6.8208,6.807,6.7847,6.7741,6.7687,6.7687,6.7687,6.7687,6.7687,6.7687,6.7687,6.7687,6.7687,6.7687,6.7687,6.7687,6.7687,6.7687,6.6641,6.559,6.559,6.4532,6.36,6.36,6.36,6.36,6.36,6.36,6.36,6.36,6.3452,6.3302,6.3302,6.3152,6.3,6.277,6.2693,6.2649,6.2381,6.2381,6.2381,6.2381,6.2381,6.2381,6.2381,6.2381,6.2381,6.2381,6.2381,6.2381,6.2381,6.2381,6.2381,6.2381,6.2381,6.2381,6.5917,6.6533,6.6786,6.6786,6.7019,6.7266,6.7266,6.7415,6.7594,0.0,6.806,6.8501,6.8697,6.9134,6.9582,6.9853,6.9891,6.9891,6.9891,6.9891,6.9891,6.9891,6.9891,6.9891,6.9891,7.0213,7.047,7.0593,7.0966,7.1201,7.1291,7.1269,7.1224,7.1201,7.1178,7.1106,7.1056,7.1081,7.1081,7.1056,7.0979,7.0832,7.0622,7.0593,7.0369,6.9959,6.9959,6.974,6.9385,6.9385,6.9134,6.8763,6.8717,6.8565,6.8358,6.8158,6.8004,6.7899,6.7741,6.7687,6.7687,6.7687,6.7687,6.7687,6.7687,6.7687,6.7687,6.7687,6.7687,6.7687,6.7687,6.7687,6.7687,6.7687,6.6641,6.559,6.559,6.4532,6.36,6.36,6.36,6.36,6.36,6.36,6.36,6.36,6.3526,6.3452,6.3302,6.3152,6.2923,6.2693,6.2615,6.2459,6.2381,6.2381,6.2381,6.2381,6.2381,6.2381,6.2381,6.2381,6.2381,6.2381,6.2381,6.2381,6.2381,6.2381,6.2381,6.2381,6.2381,6.2381,6.6424,6.6786,6.6786,6.6786,6.721,6.7614,6.7614,6.7959,6.832,6.832,6.8743,6.9091,6.9091,6.9542,6.9891,6.9891,6.9891,6.9891,6.9891,6.9891,6.9891,6.9891,6.9967,6.9966,6.9966,7.0413,7.0681,7.0681,7.1067,7.1291,7.1269,7.1224,7.1201,7.1154,7.1106,7.1056,7.0979,7.0887,7.0832,7.0832,7.0777,7.0563,7.0133,7.0133,6.9923,6.9548,6.9548,6.9306,6.8952,6.8952,6.8717,6.8457,6.8309,6.8259,6.8158,6.8004,6.7847,6.7687,6.7687,6.7687,6.7687,6.7687,6.7687,6.7687,6.7687,6.7687,6.7687,6.7687,6.7687,6.7687,6.7687,6.7687,6.7687,6.7687,6.6641,6.559,6.559,6.4532,6.36,6.36,6.36,6.36,6.36,6.36,6.36,6.36,6.3738,6.3767,6.3501,6.3486,6.3435,6.3158,6.3001,6.2922,6.2922,6.2922,6.2922,6.2922,6.2584,6.2381,6.2381,6.2381,6.2381,6.2381,6.2381,6.2381,6.2381,6.2381,6.2381,6.2381,6.2381,6.2381,6.6569,6.6786,6.6786,6.6786,6.721,6.7614,6.7614,6.7959,6.832,6.832,6.8743,6.9091,6.9091,6.9542,6.9891,6.9891,6.9891,6.9891,6.9891,6.9891,6.9891,6.9891,7.0073,7.0175,7.0175,7.069,7.0979,7.0979,7.1178,7.1269,7.1224,7.1201,7.1154,7.103,7.1005,7.0979,7.0898,7.0563,7.0369,7.0369,7.0369,7.0133,6.974,6.974,6.9508,6.9134,6.9134,6.8908,6.8554,6.8408,6.8358,6.8309,6.8158,6.8055,6.7952,6.7899,6.7847,6.7687,6.7687,6.7687,6.7687,6.7687,6.7687,6.7687,6.7687,6.7687,6.7687,6.7687,6.7687,6.7687,6.7687,6.7687,6.7687,6.7687,6.6641,6.559,6.559,6.4532,6.36,6.36,6.36,6.36,6.36,6.36,6.36,6.36,6.4186,6.4484,6.4102,6.464,6.4892,6.4525,6.4444,6.4444,6.4444,6.4444,6.4444,6.4444,6.3159,6.2381,6.2381,6.2381,6.2381,6.2381,6.2381,6.2381,6.2381,6.2381,6.2381,6.2381,6.2381,6.2381,6.6569,6.704,6.721,6.6903,6.7684,6.8453,6.8074,6.8416,6.8878,6.9256,6.946,6.9582,6.9582,6.9738,6.9891,6.9891,6.9891,6.9891,6.9891,6.9891,6.9967,7.0073,7.0141,7.0276,7.0439,7.0777,7.0979,7.0952,7.113,7.1201,7.1154,7.1106,7.1056,7.1005,7.0952,7.0805,7.0532,7.0369,7.0064,6.9548,6.9814,6.9702,6.9344,6.9344,6.9091,6.8717,6.8623,6.8517,6.8358,6.8259,6.8208,6.8158,6.8055,6.7899,6.7794,6.7794,6.7741,6.7687,6.7687,6.7687,6.7687,6.7687,6.7687,6.7687,6.7687,6.7687,6.7687,6.7687,6.7687,6.7687,6.7687,6.7687,6.7687,6.7687,6.6641,6.559,6.559,6.4532,6.36,6.36,6.36,6.36,6.36,6.3979,6.4289,6.4289,6.4945,6.5275,6.4811,6.505,6.5062,6.4695,6.4613,6.4613,6.4613,6.4613,6.4613,6.4613,6.4072,6.3565,6.3125,6.3091,6.2854,6.2415,6.2381,6.2381,6.2381,6.2381,6.2381,6.2381,6.2381,6.2381,6.6837,6.7286,6.756,6.7341,6.8074,6.8788,6.8605,6.8959,6.946,6.9815,6.9891,6.9891,6.9891,6.9891,6.9891,6.9891,6.9891,6.9891,6.9891,6.9891,6.9966,7.0175,7.0276,7.0439,7.0681,7.0914,7.1056,7.1005,7.1106,7.1154,7.1081,7.103,7.0914,7.0766,7.0748,7.0532,7.0099,6.9995,6.9664,6.9091,6.9219,6.9134,6.8908,6.8863,6.8717,6.8408,6.8309,6.8259,6.8208,6.807,6.8018,6.7967,6.7899,6.7794,6.7687,6.7687,6.7687,6.7687,6.7687,6.7687,6.7687,6.7687,6.7687,6.7687,6.7687,6.7687,6.7687,6.7687,6.7687,6.7687,6.7687,6.7687,6.7633,6.7433,6.6464,6.5526,6.5332,6.4428,6.36,6.36,6.3772,6.3945,6.3945,6.4565,6.5083,6.5083,6.5662,6.5989,6.5562,6.5722,6.5697,6.529,6.529,6.529,6.529,6.529,6.529,6.529,6.529,6.485,6.3903,6.3869,6.3632,6.3091,6.3091,6.299,6.2753,6.2753,6.2618,6.2381,6.2381,6.2381,6.7451,6.7614,6.7736,6.8173,6.8283,6.8464,6.9003,6.9501,6.9891,6.9891,6.9891,6.9891,6.9891,6.9891,6.9891,6.9891,6.9891,6.9891,6.9891,6.9891,6.9966,7.0175,7.0439,7.0681,7.0979,7.113,7.1201,7.1201,7.113,7.1081,7.1005,7.1005,7.0805,7.0337,7.0304,7.0099,6.9702,6.9303,6.9091,6.9091,6.8528,6.8358,6.8506,6.8358,6.8309,6.8309,6.8158,6.807,6.807,6.7915,6.7847,6.7687,6.7687,6.7687,6.7687,6.7687,6.7687,6.7687,6.7687,6.7687,6.7687,6.7687,6.7687,6.7687,6.7687,6.7687,6.7687,6.7687,6.7687,6.7687,6.7687,6.7687,6.7488,6.6889,6.6125,6.5397,6.4702,6.4111,6.36,6.36,6.422,6.4703,6.4703,6.5359,6.5911,6.5911,6.6376,6.6622,6.6348,6.6868,6.7097,6.6812,6.6812,6.6812,6.6812,6.6812,6.6812,6.6812,6.6812,6.6136,6.4681,6.4613,6.4613,6.4613,6.4613,6.4241,6.3531,6.3531,6.3159,6.2415,6.2415,6.2415,6.6983,6.7577,6.8023,6.7856,6.8642,6.934,6.9134,6.9256,6.9423,6.9815,6.9891,6.9891,6.9891,6.9891,6.9891,6.9891,6.9891,6.9891,6.9891,7.0039,7.0175,7.047,7.0748,7.094,7.113,7.1178,7.1178,7.1081,7.1056,7.1005,7.0925,7.0652,7.0432,7.0304,7.003,6.9702,6.9303,6.9176,6.8908,6.8565,6.8408,6.8309,6.8358,6.8208,6.8158,6.8158,6.8055,6.7952,6.7952,6.7847,6.7741,6.7687,6.7687,6.7687,6.7687,6.7687,6.7687,6.7687,6.7687,6.7687,6.7687,6.7687,6.7687,6.7687,6.7687,6.7687,6.7687,6.7687,6.7687,6.7687,6.7687,6.7378,6.691,6.6523,6.6064,6.5397,6.4566,6.4384,6.4358,6.4358,6.5014,6.5531,6.5531,6.6152,6.6669,6.6514,6.7089,6.7295,6.7005,6.6928,6.6896,6.6812,6.6812,6.6812,6.6812,6.6812,6.6812,6.6812,6.6812,6.6373,6.5392,6.5358,6.5121,6.4613,6.4613,6.4478,6.4275,6.4275,6.4174,6.3937,6.3429,6.3193,6.7286,6.7819,6.832,6.8501,6.9214,6.9853,6.9501,6.9419,6.9501,6.9853,6.9891,6.9891,6.9891,6.9891,6.9891,6.9891,6.9891,6.9891,6.9891,7.0073,7.031,7.0563,7.0832,7.1056,7.1201,7.1178,7.113,7.1005,7.0979,7.086,7.0652,7.0432,7.0133,6.9851,6.9587,6.9261,6.89,6.8817,6.8623,6.8309,6.8208,6.8158,6.8158,6.8055,6.8018,6.8018,6.7899,6.7847,6.7847,6.7741,6.7687,6.7687,6.7687,6.7687,6.7687,6.7687,6.7687,6.7687,6.7687,6.7687,6.7687,6.7687,6.7687,6.7687,6.7633,6.7633,6.7687,6.7633,6.7633,6.7687,6.7687,6.7174,6.6618,6.6186,6.5839,6.5432,6.4636,6.4823,6.5186,6.5186,6.5773,6.6324,6.6324,6.6945,6.735,6.7147,6.7364,6.7428,6.7097,6.6896,6.6812,6.6812,6.6812,6.6812,6.6812,6.6812,6.6812,6.6812,6.6812,6.6609,6.617,6.6136,6.5933,6.5493,6.5493,6.5324,6.5019,6.5019,6.4884,6.458,6.414,6.3937,6.7973,6.832,6.8605,6.9582,6.9853,6.9891,6.9891,6.9891,6.9891,6.9891,6.9891,6.9891,6.9891,6.9891,6.9891,6.9891,6.9891,6.9891,6.9929,7.0109,7.0342,7.0593,7.086,7.1081,7.1178,7.113,7.1056,7.0914,7.0898,7.0652,7.0271,7.02,6.9851,6.9134,6.9047,6.8863,6.8457,6.8358,6.8309,6.8259,6.8004,6.7899,6.7899,6.7899,6.7899,6.7899,6.7741,6.7687,6.7687,6.7687,6.7687,6.7687,6.7687,6.7687,6.7687,6.7687,6.7687,6.7687,6.7687,6.7687,6.7687,6.7687,6.7687,6.7687,6.7524,6.7579,6.7633,6.7524,6.7579,6.7687,6.7687,6.7154,6.6512,6.5859,6.5743,6.5548,6.4922,6.5428,6.5979,6.5979,6.66,6.7083,6.7083,6.7669,6.8039,6.7799,6.7428,6.7097,6.6812,6.6812,6.6812,6.6812,6.6812,6.6812,6.6812,6.6812,6.6812,6.6812,6.6812,6.6812,6.6812,6.6812,6.6812,6.6812,6.6812,6.6474,6.5797,6.5797,6.5459,6.4816,6.4715,6.4715,6.7684,6.8357,0.0,6.9176,6.9582,6.9891,6.9891,6.9891,6.9891,6.9891,6.9891,6.9891,6.9891,6.9891,6.9891,6.9891,6.9891,6.9967,7.0109,7.0342,7.0593,7.086,7.1081,7.1154,7.113,7.1056,7.086,7.0463,7.0432,7.0271,6.9851,6.9548,6.9303,6.9091,6.8809,6.8554,6.8358,6.8309,6.8208,6.8004,6.7952,6.7847,6.7741,6.7741,6.7741,6.7741,6.7741,6.7687,6.7687,6.7687,6.7687,6.7687,6.7687,6.7687,6.7687,6.7687,6.7687,6.7687,6.7687,6.7687,6.7687,6.7687,6.7687,6.7687,6.7687,6.7579,6.7524,6.7633,6.7579,6.7579,6.7687,6.7076,6.6482,6.6553,6.6132,6.5617,6.5199,6.5955,6.6738,6.6738,6.7359,6.7842,6.7842,6.798,6.7959,6.7638,6.7146,6.6896,6.6812,6.6812,6.6812,6.6812,6.6812,6.6812,6.6812,6.6812,6.6812,6.6812,6.6812,6.6812,6.6812,6.6812,6.6812,6.6812,6.6812,6.6745,6.6576,6.6576,6.6474,6.6339,6.5597,6.5244,0.0,0.0,0.0,6.934,6.9699,6.9891,6.9891,6.9891,6.9891,6.9891,6.9891,6.9891,6.9891,6.9891,6.9891,6.9891,6.9966,7.0073,7.0175,7.0532,7.0832,7.0952,7.1106,7.1178,7.1056,7.086,7.0584,7.0337,7.0099,6.9851,6.9428,6.9219,6.9041,6.8809,6.8517,6.8358,6.8309,6.8158,6.8055,6.7899,6.7847,6.7794,6.7687,6.7687,6.7687,6.7687,6.7687,6.7687,6.7687,6.7687,6.7687,6.7687,6.7687,6.7687,6.7687,6.7687,6.7687,6.7687,6.7687,6.7687,6.7687,6.7687,6.7687,6.7687,6.7488,6.747,6.747,6.7414,6.7414,6.7579,6.7945,6.7234,6.6581,6.7398,6.6919,6.6145,6.6058,6.6824,6.7532,6.7532,6.7842,6.8083,6.8083,6.7959,6.7719,6.7475,6.7063,6.6812,6.6812,6.6812,6.6812,6.6812,6.6812,6.6812,6.6812,6.6812,6.6812,6.6812,6.6812,6.6812,6.6812,6.6812,6.6812,6.6812,6.6812,6.6812,6.6812,6.6728,6.6677,6.6643,6.5984,6.5731,0.0,0.0,6.8651,6.9659,6.9891,6.9891,6.9891,6.9891,6.9891,6.9891,6.9891,6.9891,6.9891,6.9891,6.9929,6.9967,7.0109,7.0243,7.0342,7.0719,7.0979,7.0952,7.1081,7.1067,7.0914,7.0584,7.0298,7.0099,6.9777,6.9388,6.8959,6.8997,6.8772,6.8457,6.8309,6.8259,6.8208,6.8004,6.7899,6.7899,6.7741,6.7687,6.7687,6.7687,6.7687,6.7687,6.7687,6.7687,6.7687,6.7687,6.7687,6.7687,6.7687,6.7687,6.7687,6.7687,6.7687,6.7687,6.7687,6.7633,6.7633,6.7633,6.7633,6.7579,6.7378,6.7359,6.7395,6.7279,6.7429,6.778,6.8262,6.7599,6.7046,6.8117,6.7591,6.6872,6.7109,6.7669,6.8083,6.8083,6.8083,6.8083,6.8004,6.7719,6.751,6.7428,6.7063,6.6812,6.6812,6.6812,6.6812,6.6812,6.6812,6.6812,6.6812,6.6812,6.6812,6.6812,6.6812,6.6812,6.6812,6.6812,6.6812,6.6728,6.6728,6.6728,6.6728,6.6507,6.6421,6.6421,6.6215,6.6009,0.0,0.0,6.9134,0.0,6.9891,6.9891,6.9891,6.9891,6.9891,6.9891,6.9891,6.9891,6.9891,6.9891,6.9929,7.0144,7.0175,7.0375,7.0832,7.0925,7.0979,7.1154,7.1081,7.0887,7.0524,7.04,7.003,6.9306,6.9219,6.8915,6.842,6.8408,6.8321,6.8158,6.8158,6.8107,6.7952,6.7952,6.7847,6.7741,6.7687,6.7687,6.7687,6.7687,6.7687,6.7687,6.7687,6.7687,6.7687,6.7687,6.7687,6.7687,6.7687,6.7687,6.7687,6.7687,6.7633,6.7524,6.7524,6.7414,6.7322,6.747,6.7414,6.7322,6.7579,6.7359,6.7243,6.8162,6.8345,6.8262,6.8389,6.8332,6.8117,6.7899,6.7549,6.742,6.7662,6.789,6.8083,6.8083,6.8083,6.8004,6.7879,6.7638,6.7428,6.7263,6.7014,6.6812,6.6812,6.6812,6.6812,6.6812,6.6812,6.6812,6.6812,6.6812,6.6812,6.6812,6.6812,6.6812,6.6812,6.6812,6.6728,6.6507,6.6507,6.6507,6.6507,6.6302,6.6182,6.6182,6.5955,6.5867,6.7856,6.8511,6.9256,0.0,6.9891,6.9891,6.9891,6.9891,6.9891,6.9891,6.9891,6.9891,6.9891,6.9891,6.9966,7.0141,7.0342,7.0563,7.0952,7.1056,7.1106,7.113,7.1056,7.0925,7.0681,7.0271,6.9923,6.9777,6.9134,6.8763,6.8726,6.8468,6.8259,6.8208,6.8107,6.7952,6.7899,6.7847,6.7741,6.7687,6.7687,6.7687,6.7687,6.7687,6.7687,6.7687,6.7687,6.7687,6.7687,6.7687,6.7687,6.7687,6.7687,6.7687,6.7687,6.7687,6.7633,6.747,6.747,6.7414,6.7414,6.747,6.7414,6.7414,6.7524,6.7631,6.7746,6.8247,6.8742,6.9041,6.8902,6.8635,6.8435,6.8343,6.792,6.7557,6.7879,6.8004,6.8083,6.8083,6.8083,6.8039,6.7879,6.7638,6.7428,6.7263,6.7014,6.6812,6.6812,6.6812,6.6812,6.6812,6.6812,6.6812,6.6812,6.6812,6.6812,6.6812,6.6812,6.6812,6.6812,6.6643,6.6592,6.6507,6.6507,6.6421,6.6302,6.6042,6.5955,6.5955,6.5692,6.5603,0.0,0.0,6.9047,6.9738,6.9891,6.9891,6.9891,6.9891,6.9891,6.9891,6.9891,6.9891,6.9891,6.9891,6.9966,7.0141,7.0439,7.0681,7.0952,7.1106,7.1154,7.1081,7.1005,7.0925,7.0748,7.0167,6.9923,7.0133,6.9219,6.8763,6.9047,6.8528,6.8259,6.8208,6.8004,6.7847,6.7847,6.7741,6.7687,6.7687,6.7687,6.7687,6.7687,6.7687,6.7687,6.7687,6.7687,6.7687,6.7687,6.7687,6.7687,6.7687,6.7687,6.7687,6.7687,6.7687,6.7633,6.747,6.7414,6.7414,6.7359,6.7359,6.7359,6.7339,6.7726,6.7976,6.8232,6.8691,6.9318,6.9818,6.9332,6.8997,6.8716,6.8378,6.7879,6.7638,6.8004,6.8083,6.8083,6.8083,6.8083,6.8004,6.7799,6.7557,6.7428,6.718,6.693,6.6812,6.6812,6.6812,6.6812,6.6812,6.6812,6.6812,6.6812,6.6812,6.6812,6.6812,6.6812,6.6812,6.6728,6.6592,6.6421,6.6335,6.6335,6.6215,6.6009,6.578,6.5692,6.5692,6.5514,6.5425,0.0,6.832,0.0,6.9659,6.9891,6.9891,6.9891,6.9891,6.9891,6.9891,6.9891,6.9891,6.9891,6.9891,6.9966,7.0141,7.0439,7.0652,7.0871,7.103,7.1081,7.1005,7.0952,7.0748,7.0369,7.0304,7.0099,6.974,6.9344,6.9003,6.8915,6.8431,6.8018,6.7952,6.7794,6.7687,6.7687,6.7687,6.7687,6.7687,6.7687,6.7687,6.7687,6.7687,6.7687,6.7687,6.7687,6.7687,6.7687,6.7687,6.7687,6.7687,6.7687,6.7687,6.7687,6.7687,6.7633,6.747,6.7266,6.7154,6.7019,6.7019,6.6961,6.7048,6.8272,6.8335,6.8367,7.0155,7.0711,7.0495,6.9495,6.9458,6.9241,6.7684,6.7428,6.7638,6.8004,6.8083,6.8083,6.8083,6.8083,6.7959,6.7557,6.751,6.7346,6.6896,6.6812,6.6812,6.6812,6.6812,6.6812,6.6812,6.6812,6.6812,6.6812,6.6812,6.6812,6.6812,6.6812,6.6728,6.6507,6.6507,6.6335,6.5867,6.5867,6.578,6.578,6.5514,6.5425,6.5425,6.5425,6.5425,0.0,0.0,0.0,6.9622,6.9891,6.9891,6.9891,6.9891,6.9891,6.9891,6.9891,6.9891,6.9891,6.9891,7.0003,7.0407,7.0532,7.071,7.1056,7.1106,7.1081,7.1005,7.0952,7.0871,7.0719,7.0432,7.0337,7.0432,6.9851,6.9468,6.9428,6.8878,6.8442,6.8018,6.7899,6.7794,6.7687,6.7687,6.7687,6.7687,6.7687,6.7687,6.7687,6.7687,6.7687,6.7687,6.7687,6.7687,6.7687,6.7687,6.7687,6.7687,6.7687,6.7687,6.7687,6.7687,6.7633,6.747,6.7266,6.7154,6.7097,6.7019,6.7288,6.7855,6.8491,6.9063,6.9709,7.0519,7.1126,7.1132,6.9601,6.9349,6.913,6.7523,6.7428,6.7719,6.7879,6.7879,6.7959,6.8083,6.7879,6.7638,6.7475,6.7428,6.718,6.6812,6.6812,6.6812,6.6812,6.6812,6.6812,6.6812,6.6812,6.6812,6.6812,6.6812,6.6812,6.6812,6.6643,6.6592,6.6507,6.6249,6.5955,6.578,6.5603,6.5514,6.5514,6.5425,6.5425,6.5425,6.5425,6.5425,6.7856,0.0,0.0,6.9382,6.9777,6.9891,6.9891,6.9891,6.9891,6.9891,6.9891,6.9891,6.9891,6.9891,7.0003,7.0407,7.0532,7.071,7.1042,7.1106,7.1081,7.1005,7.0952,7.0898,7.0898,7.0652,7.0593,7.0871,7.0271,6.9887,6.9887,6.9265,6.8642,6.8018,6.7899,6.7794,6.7687,6.7687,6.7687,6.7687,6.7687,6.7687,6.7687,6.7687,6.7687,6.7687,6.7687,6.7687,6.7687,6.7687,6.7687,6.7633,6.7687,6.7687,6.7633,6.7687,6.7633,6.7524,6.7322,6.7266,6.7339,6.7367,6.7782,6.8386,6.9164,6.99,7.0506,7.1089,7.1526,7.1494,6.9672,6.8868,6.8335,6.7394,6.7428,6.7638,6.7799,6.7799,6.7879,6.7925,6.7799,6.7557,6.7428,6.7346,6.718,6.6812,6.6812,6.6812,6.6812,6.6812,6.6812,6.6812,6.6812,6.6812,6.6812,6.6812,6.6812,6.6812,6.6592,6.6421,6.6388,6.5955,6.578,6.5692,6.5514,6.5425,6.5425,6.5425,6.5425,6.5425,6.5425,6.5425,0.0,0.0,0.0,6.8959,6.9501,6.9891,6.9891,6.9891,6.9891,6.9891,6.9891,6.9891,6.9891,6.9891,6.9929,7.0141,7.0407,7.0622,7.0871,7.1005,7.1056,7.1005,7.0925,7.0898,7.0898,7.0898,7.0898,7.0898,7.0532,7.0304,7.0304,6.9391,6.8548,6.7952,6.7794,6.7687,6.7687,6.7687,6.7687,6.7687,6.7687,6.7687,6.7687,6.7687,6.7687,6.7687,6.7687,6.7687,6.7687,6.7687,6.7633,6.7524,6.7633,6.7633,6.7524,6.7633,6.7687,6.7687,6.7524,6.7506,6.7597,6.808,6.8255,6.8582,7.0288,7.0617,7.0615,7.1709,7.1988,7.1583,6.9672,6.8014,6.6896,6.7097,6.718,6.7346,6.7719,6.7799,6.7799,6.7799,6.7799,6.7638,6.7263,6.7346,6.7312,6.6896,6.6812,6.6812,6.6812,6.6812,6.6812,6.6812,6.6812,6.6812,6.6812,6.6812,6.6812,6.6812,6.6592,6.6421,6.6095,6.5867,6.5692,6.5425,6.5425,6.5425,6.5425,6.5425,6.5425,6.5425,6.5425,6.5425,6.756,0.0,0.0,0.0,0.0,0.0,6.9891,6.9738,6.9659,6.9853,6.962,6.9457,6.9582,6.946,6.946,6.9664,6.9887,7.0137,7.0375,7.0233,7.0266,7.0463,7.0463,7.0593,7.0871,7.0898,7.0898,7.0898,7.0532,7.0133,6.9739,6.8743,6.8084,6.7899,6.7794,6.7687,6.7687,6.7687,6.7687,6.7687,6.7687,6.7687,6.7687,6.7687,6.7687,6.7687,6.7687,6.7687,6.7687,6.7687,6.7687,6.7633,6.7687,6.7687,6.7633,6.7687,6.7687,6.7687,6.7524,6.7872,6.8328,6.8262,6.8982,7.0036,7.0532,7.0919,7.1303,7.1707,7.178,7.1268,6.96,6.8014,6.6812,6.6896,6.7097,6.7263,6.7475,6.7557,6.7638,6.7799,6.7394,6.7063,6.718,6.7097,6.698,6.6812,6.6812,6.6812,6.6812,6.6812,6.6812,6.6812,6.6812,6.6812,6.6812,6.6812,6.6728,6.6592,6.6388,6.6129,6.5867,6.5692,6.5514,6.5425,6.5425,6.5425,6.5425,6.5425,6.5425,6.5425,6.5425,6.5336,6.7266,6.763,6.8124,6.8651,0.0,0.0,6.9699,6.9579,6.9419,6.9579,6.9416,6.9246,6.9336,6.9251,6.9251,6.9344,6.9426,6.9625,7.003,6.9921,6.9885,7.0064,7.02,7.04,7.0622,7.0777,7.0843,7.0652,7.0432,6.9995,6.9269,6.8511,6.8084,6.7899,6.7794,6.7687,6.7687,6.7687,6.7687,6.7687,6.7687,6.7687,6.7687,6.7687,6.7687,6.7687,6.7687,6.7687,6.7687,6.7687,6.7687,6.7633,6.7687,6.7687,6.7633,6.7687,6.7687,6.7687,6.7579,6.8074,6.8657,6.8757,6.9623,7.0653,7.1017,7.1293,7.1494,7.1368,7.0907,7.0267,6.9056,6.8059,6.7195,6.6896,6.6896,6.7097,6.7346,6.7346,6.7312,6.7638,6.7394,6.7063,6.7014,6.7014,6.693,6.6812,6.6812,6.6812,6.6812,6.6812,6.6812,6.6812,6.6812,6.6812,6.6812,6.6812,6.6728,6.6507,6.6302,6.6009,6.578,6.5514,6.5425,6.5425,6.5425,6.5213,6.4761,6.4761,6.4545,6.4142,6.442,6.4545,6.6845,6.721,6.7684,6.8124,6.8501,0.0,6.9336,6.9251,6.9078,6.9166,6.916,6.916,6.9122,6.916,6.9116,6.9116,6.89,6.9003,6.9701,6.9701,6.9664,6.9702,6.9995,7.0167,7.02,7.0532,7.0593,7.02,7.0133,6.9702,6.887,6.8558,6.821,6.7899,6.7794,6.7687,6.7687,6.7687,6.7687,6.7687,6.7687,6.7687,6.7687,6.7687,6.7687,6.7687,6.7687,6.7687,6.7687,6.7687,6.7633,6.7524,6.7633,6.7633,6.7524,6.7633,6.7687,6.7687,6.7797,6.8202,6.8896,6.9529,7.0192,7.0871,7.1598,7.1656,7.1368,7.074,6.9814,6.8943,6.8301,6.8024,6.7731,6.6946,6.6812,6.6896,6.7097,6.7014,6.698,6.7428,6.7394,6.7312,6.6896,6.7014,6.7097,6.6812,6.6812,6.6812,6.6812,6.6812,6.6812,6.6812,6.6812,6.6812,6.6812,6.6812,6.6643,6.6507,6.6215,6.5922,6.578,6.5514,6.5336,6.5213,6.5123,6.4545,6.3483,6.3705,6.3196,6.2256,6.3036,6.3451,6.704,6.721,6.763,6.7736,6.801,0.0,6.8817,6.8679,6.8538,6.9078,6.8892,6.866,6.8855,6.8754,6.865,6.865,6.8602,6.866,6.8959,6.8863,6.8863,6.9219,6.9265,6.9428,6.9626,6.9739,6.9702,6.9511,6.9106,6.8651,6.8134,6.793,6.781,6.7741,6.7741,6.7687,6.7687,6.7687,6.7687,6.7687,6.7687,6.7687,6.7687,6.7687,6.7687,6.7687,6.7687,6.7687,6.7687,6.7687,6.7687,6.7633,6.7687,6.7687,6.7633,6.7687,6.7687,6.7797,6.8458,6.9192,6.9851,7.0369,7.1112,7.1745,7.1583,7.1494,7.1368,7.0642,6.9347,6.8215,6.8059,6.7569,6.6946,6.6812,6.6812,6.6896,6.7097,6.718,6.718,6.7263,6.7063,6.6896,6.6812,6.6812,6.6812,6.6812,6.6812,6.6812,6.6812,6.6812,6.6812,6.6812,6.6812,6.6812,6.6812,6.6677,6.6473,6.6182,6.5955,6.578,6.5514,6.5425,6.5033,6.4175,6.3356,6.2256,6.0979,6.209,6.2355,6.1927,6.2972,6.326,6.6983,6.7019,6.723,6.7415,6.7486,0.0,0.0,6.806,6.8097,6.8442,6.8517,6.8554,6.8613,6.8602,6.8506,6.8506,6.8506,6.8554,6.866,6.8565,6.8565,6.8763,6.8952,6.9053,6.9223,6.935,6.9272,6.9015,6.8511,6.8134,6.7952,6.7794,6.7687,6.7687,6.7687,6.7687,6.7687,6.7687,6.7687,6.7687,6.7687,6.7687,6.7687,6.7687,6.7687,6.7687,6.7687,6.7687,6.7687,6.7687,6.7687,6.7687,6.7687,6.7687,6.7687,6.7687,6.7944,6.8348,6.8752,6.965,7.0657,7.0887,7.1368,7.1903,7.1744,7.1167,7.03,6.9419,6.86,6.7935,6.7488,6.7407,6.7277,6.6896,6.6812,6.6812,6.7014,6.7014,6.7014,6.7014,6.6896,6.6812,6.6812,6.6812,6.6812,6.6812,6.6812,6.6812,6.6812,6.6812,6.6812,6.6812,6.6812,6.6728,6.6677,6.6592,6.6335,6.5955,6.5867,6.5692,6.5425,6.5425,6.4943,6.3894,6.2189,6.0979,6.0255,6.0255,6.0119,6.0014,6.102,6.1659,6.6961,6.6786,6.6845,6.7081,6.7004,6.6983,0.0,0.0,0.0,6.7789,6.8171,6.8506,6.8506,6.8506,6.8506,6.8506,6.8506,6.8506,6.8457,6.8457,6.8457,6.8506,6.867,6.8734,6.8734,6.8884,6.8884,6.8511,6.8134,6.7847,6.7847,6.7741,6.7741,6.7741,6.7741,6.7741,6.7794,6.7741,6.7741,6.7794,6.7741,6.7741,6.7741,6.7741,6.7741,6.7687,6.7687,6.7687,6.7687,6.7687,6.7687,6.7687,6.7687,6.7687,6.7687,6.7687,6.8201,6.8935,6.9082,6.9998,7.1186,7.1275,7.1453,7.1656,7.1707,7.057,6.8982,6.8215,6.7856,6.765,6.6946,6.7277,6.765,6.6946,6.6812,6.6812,6.6812,6.6812,6.6812,6.6812,6.6812,6.6812,6.6812,6.6812,6.6812,6.6812,6.6812,6.6812,6.6812,6.6812,6.6812,6.6812,6.6728,6.6677,6.6507,6.6421,6.6249,6.578,6.578,6.5603,6.5425,6.5033,6.436,6.3483,6.1184,6.0075,6.015,5.8822,5.8085,5.8085,5.8979,5.9909,6.704,6.6786,6.6786,6.6632,6.6512,6.6452,6.6714,0.0,6.7305,6.7736,0.0,6.8506,6.8506,0.0,0.0,6.8506,6.8506,6.8457,6.8358,6.8309,6.8358,6.8457,6.8321,6.8222,6.8222,6.7982,6.7863,6.781,6.7794,6.7741,6.7741,6.7687,6.7741,6.7899,6.7794,6.7847,6.8018,6.7847,6.7847,6.8018,6.7952,6.7899,6.7899,6.7899,6.7847,6.7687,6.7687,6.7687,6.7687,6.7687,6.7687,6.7687,6.7687,6.7687,6.7687,6.7687,6.8201,6.9009,6.9706,7.055,7.1374,7.1992,7.1671,7.0973,7.0806,6.9672,6.837,6.8093,6.7488,6.6896,6.6812,6.6896,6.6896,6.6812,6.6812,6.6812,6.6812,6.6812,6.6812,6.6812,6.6812,6.6812,6.6812,6.6812,6.6812,6.6812,6.6812,6.6812,6.6812,6.6812,6.6812,6.6812,6.6677,6.6507,6.6507,6.6162,6.5867,6.578,6.5603,6.5425,6.5425,6.3641,6.2453,6.2027,5.997,5.9069,5.9516,5.8386,5.7892,5.7892,5.8901,5.9302,6.7305,6.7117,6.6946,6.6355,6.6476,6.6736,6.6595,6.6852,6.7213,6.7684,0.0,0.0,0.0,0.0,0.0,0.0,6.8408,6.8358,6.8309,6.8158,6.8107,6.8259,6.8107,6.7915,6.7899,6.7794,6.7687,6.7687,6.7687,6.7687,6.7687,6.7687,6.7741,6.7794,6.7741,6.7741,6.7899,6.7741,6.7741,6.7899,6.7794,6.7794,6.7794,6.7794,6.7741,6.7687,6.7687,6.7687,6.7687,6.7687,6.7687,6.7687,6.7687,6.7687,6.776,6.8201,6.8898,6.9706,7.0513,7.1321,7.1998,7.2248,7.1805,7.1002,7.0163,6.9203,6.8293,6.7488,6.7029,6.6812,6.6812,6.6812,6.6812,6.6812,6.6812,6.6812,6.6812,6.6812,6.6812,6.6812,6.6812,6.6812,6.6812,6.6812,6.6812,6.6812,6.6812,6.6812,6.6812,6.6812,6.6728,6.6677,6.6592,6.6421,6.6162,6.5867,6.5692,6.5603,6.5425,6.5123,6.4545,6.3068,6.1859,6.0949,5.9255,5.8415,5.8495,5.7863,5.7528,5.7528,5.7944,5.8466,6.761,6.7378,6.7101,6.6416,6.6618,6.6874,6.6595,6.691,6.7415,6.7736,6.8171,0.0,0.0,0.0,6.8506,6.8506,0.0,6.8309,6.8259,6.8055,6.7952,6.807,6.8004,6.7847,6.7741,6.7687,6.7687,6.7687,6.7687,6.7687,6.7687,6.7687,6.7741,6.7741,6.7741,6.7741,6.7794,6.7741,6.7741,6.7794,6.7794,6.7741,6.7741,6.7741,6.7741,6.7687,6.7687,6.7687,6.7687,6.7687,6.7687,6.7687,6.7687,6.7834,6.8091,6.8678,6.9559,7.0513,7.1101,7.1835,7.2496,7.2416,7.1927,7.1131,6.9849,6.913,6.8447,6.7195,6.6812,6.6896,6.6812,6.6812,6.6812,6.6812,6.6812,6.6812,6.6812,6.6812,6.6812,6.6812,6.6812,6.6812,6.6812,6.6812,6.6812,6.6812,6.6812,6.6812,6.6812,6.6812,6.6728,6.6507,6.6421,6.6215,6.578,6.5692,6.5603,6.5425,6.5123,6.4669,6.3894,6.2485,6.1255,6.015,5.8822,5.8085,5.8085,5.7528,5.7416,5.7722,5.7416,5.7722,6.8161,6.7647,6.7213,6.6772,6.6714,6.6655,6.6536,6.7137,6.7789,6.7789,6.8171,6.8506,6.8506,6.8506,6.8506,6.8506,6.8358,0.0,0.0,6.8004,6.7952,6.807,6.8004,6.7847,6.7741,6.7687,6.7687,6.7687,6.7687,6.7687,6.7687,6.7687,6.7741,6.7899,6.7794,6.7847,6.807,6.7847,6.7847,6.807,6.7952,6.7899,6.7899,6.7899,6.7847,6.7687,6.7687,6.7687,6.7687,6.7687,6.7687,6.7687,6.7687,6.8164,6.8862,6.8898,6.9926,7.1284,7.1321,7.1835,7.2496,7.2496,7.2011,7.1195,7.0058,6.9311,6.8635,6.7195,6.7014,6.7097,6.6896,6.6812,6.6812,6.6812,6.6812,6.6812,6.6812,6.6812,6.6812,6.6812,6.6812,6.6812,6.6812,6.6812,6.6812,6.6812,6.6812,6.6812,6.6812,6.6812,6.6728,6.6507,6.6302,6.6009,6.578,6.5603,6.5425,6.5425,6.4485,6.3894,6.3894,6.1589,6.015,5.9804,5.8495,5.8195,5.9009,5.7833,5.7833,5.8901,5.7833,5.7303,6.8688,6.8464,6.8173,6.7396,6.7557,6.7819,6.7469,6.7577,6.793,6.8222,6.8408,6.8506,6.8506,6.8506,6.8457,6.8358,6.8259,6.8158,0.0,6.7794,6.7633,6.7687,6.7633,6.7633,6.7579,6.7579,6.7579,6.7687,6.7687,6.7687,6.7687,6.7687,6.7741,6.7794,6.7741,6.7741,6.7847,6.7741,6.7741,6.7847,6.7794,6.7794,6.7794,6.7794,6.7741,6.7687,6.7687,6.7687,6.7687,6.7687,6.7687,6.7724,6.8274,6.8972,6.9706,6.9706,7.0367,7.1394,7.1908,7.2275,7.2496,7.2496,7.1609,7.0368,6.9849,6.8793,6.7604,6.698,6.6896,6.6896,6.6812,6.6812,6.6812,6.6812,6.6812,6.6812,6.6812,6.6812,6.6812,6.6812,6.6812,6.6812,6.6812,6.6812,6.6812,6.6812,6.6812,6.6812,6.6812,6.6812,6.6643,6.6302,6.6182,6.5922,6.5603,6.5425,6.5123,6.4453,6.4081,6.3196,6.1589,6.0774,5.9728,5.8495,5.7974,5.7863,5.7833,5.7528,5.7528,5.7833,5.7528,5.7303,6.9134,6.9003,6.8743,6.8037,6.8185,6.8416,6.8047,6.8047,6.8198,6.8457,6.8506,6.8506,6.8506,6.8506,6.8457,0.0,0.0,6.8055,0.0,6.7633,6.747,6.7414,6.7414,6.7414,6.7414,6.7414,6.7414,6.7524,6.7579,6.7633,6.7633,6.7687,6.7687,6.7687,6.7687,6.7687,6.7687,6.7687,6.7687,6.7687,6.7687,6.7687,6.7687,6.7687,6.7687,6.7687,6.7687,6.7687,6.7687,6.7687,6.7687,6.776,6.8605,6.9376,7.011,7.0403,7.1027,7.1798,7.2312,7.2496,7.2496,7.2496,7.1511,7.0332,6.9849,6.8793,6.7753,6.7285,6.71,6.7048,6.7151,6.7015,6.6812,6.6812,6.6812,6.6812,6.6812,6.6812,6.6812,6.6812,6.6812,6.6812,6.6812,6.6812,6.6812,6.6812,6.6812,6.6812,6.6812,6.6812,6.6643,6.6182,6.6095,6.5922,6.5425,6.5425,6.4943,6.3988,6.3388,6.2288,6.0359,5.9758,5.9021,5.8102,5.7786,5.7644,5.7652,5.7419,5.7303,5.7303,5.7191,5.7191]},{"header":{"parameterUnit":"m.s-1","parameterCategory":1,"la1":30.6,"la2":29.2853,"lo1":-89.7004,"lo2":-87.6739,"dx":0.0162,"dy":0.0183,"nx":112,"ny":82,"refTime":"2023-01-28T06:00:00:Z","depth":0,"parameterNumber":3,"parameterNumberName":"V-component_of_WINDS"},"data":[0.0,0.0,0.0,0.0,0.0,0.0,0.0,0.0,0.0,0.0,0.0,0.0,0.0,0.0,0.0,0.0,0.0,0.0,0.0,0.0,0.0,0.0,0.0,0.0,0.0,0.0,0.0,0.0,0.0,0.0,0.0,0.0,0.0,0.0,0.0,0.0,0.0,0.0,0.0,0.0,0.0,0.0,0.0,0.0,0.0,0.0,0.0,0.0,0.0,0.0,0.0,0.0,0.0,0.0,0.0,0.0,0.0,0.0,0.0,0.0,0.0,0.0,0.0,0.0,0.0,0.0,0.0,0.0,0.0,0.0,0.0,0.0,0.0,0.0,0.0,0.0,0.0,0.0,0.0,0.0,0.0,0.0,0.0,0.0,0.0,0.0,0.0,0.0,0.0,0.0,-2.7729,-2.8745,-2.8745,-2.9342,-3.0898,-3.1968,-3.2662,-3.283,0.0,0.0,0.0,0.0,0.0,0.0,0.0,0.0,0.0,0.0,0.0,0.0,0.0,0.0,0.0,0.0,0.0,0.0,0.0,0.0,0.0,0.0,0.0,0.0,0.0,0.0,0.0,0.0,0.0,0.0,0.0,0.0,0.0,0.0,0.0,0.0,0.0,0.0,0.0,0.0,0.0,0.0,0.0,0.0,0.0,0.0,0.0,0.0,0.0,0.0,0.0,0.0,0.0,0.0,0.0,0.0,0.0,0.0,0.0,0.0,0.0,0.0,0.0,0.0,0.0,0.0,0.0,0.0,0.0,0.0,0.0,0.0,0.0,0.0,0.0,0.0,0.0,0.0,0.0,0.0,0.0,0.0,0.0,0.0,0.0,0.0,0.0,0.0,0.0,0.0,0.0,0.0,0.0,0.0,0.0,0.0,0.0,0.0,0.0,0.0,0.0,0.0,0.0,0.0,-2.8814,-2.8321,-2.8355,-2.9331,-3.1774,-3.2135,-3.2713,-3.3559,0.0,0.0,0.0,0.0,0.0,0.0,0.0,0.0,0.0,0.0,0.0,0.0,0.0,0.0,0.0,0.0,0.0,0.0,0.0,0.0,0.0,0.0,0.0,0.0,0.0,0.0,0.0,0.0,0.0,0.0,0.0,0.0,0.0,0.0,0.0,0.0,0.0,0.0,0.0,0.0,0.0,0.0,0.0,0.0,0.0,0.0,0.0,0.0,0.0,0.0,0.0,0.0,0.0,0.0,0.0,0.0,0.0,0.0,0.0,0.0,0.0,0.0,0.0,0.0,0.0,0.0,0.0,0.0,0.0,0.0,0.0,0.0,0.0,0.0,0.0,0.0,0.0,0.0,0.0,0.0,0.0,0.0,0.0,0.0,0.0,0.0,0.0,0.0,0.0,0.0,0.0,0.0,0.0,0.0,0.0,0.0,0.0,0.0,0.0,0.0,0.0,0.0,0.0,-2.9944,-3.0747,-2.935,-3.0112,-3.1462,-3.3315,-3.3674,-3.3948,-3.4487,-3.4508,0.0,0.0,0.0,0.0,0.0,0.0,0.0,0.0,0.0,0.0,0.0,0.0,0.0,0.0,0.0,0.0,0.0,0.0,0.0,0.0,0.0,0.0,0.0,0.0,0.0,0.0,0.0,0.0,0.0,0.0,0.0,0.0,0.0,0.0,0.0,0.0,0.0,0.0,0.0,0.0,0.0,0.0,0.0,0.0,0.0,0.0,0.0,0.0,0.0,0.0,0.0,0.0,0.0,0.0,0.0,0.0,0.0,0.0,0.0,0.0,0.0,0.0,0.0,0.0,0.0,0.0,0.0,0.0,0.0,0.0,0.0,0.0,0.0,0.0,0.0,0.0,0.0,0.0,0.0,0.0,0.0,0.0,0.0,0.0,0.0,0.0,0.0,0.0,0.0,0.0,0.0,0.0,0.0,0.0,0.0,0.0,0.0,0.0,0.0,0.0,0.0,0.0,-3.0917,-3.2144,-3.1238,-3.2241,-3.3498,-3.4861,-3.524,-3.5435,-3.5328,-3.5543,0.0,0.0,0.0,0.0,0.0,0.0,0.0,0.0,0.0,0.0,0.0,0.0,0.0,0.0,0.0,0.0,0.0,0.0,0.0,0.0,0.0,0.0,0.0,0.0,0.0,0.0,0.0,0.0,0.0,0.0,0.0,0.0,0.0,0.0,0.0,0.0,0.0,0.0,0.0,0.0,0.0,0.0,0.0,0.0,0.0,0.0,0.0,0.0,0.0,0.0,0.0,0.0,0.0,0.0,0.0,0.0,0.0,0.0,0.0,0.0,0.0,0.0,0.0,0.0,0.0,0.0,0.0,0.0,0.0,0.0,0.0,0.0,0.0,0.0,0.0,0.0,0.0,0.0,0.0,0.0,0.0,0.0,0.0,0.0,0.0,0.0,0.0,0.0,0.0,0.0,0.0,0.0,0.0,0.0,0.0,0.0,0.0,0.0,0.0,0.0,0.0,0.0,-3.2181,-3.2334,-3.3993,-3.3908,-3.4427,-3.6072,-3.6316,-3.6267,-3.6178,-3.6156,0.0,0.0,0.0,0.0,0.0,0.0,0.0,0.0,0.0,0.0,0.0,0.0,0.0,0.0,0.0,0.0,0.0,0.0,0.0,0.0,0.0,0.0,0.0,0.0,0.0,0.0,0.0,0.0,0.0,0.0,0.0,0.0,0.0,0.0,0.0,0.0,0.0,0.0,0.0,0.0,0.0,0.0,0.0,0.0,0.0,0.0,0.0,0.0,0.0,0.0,0.0,0.0,0.0,0.0,0.0,0.0,0.0,0.0,0.0,0.0,0.0,0.0,0.0,0.0,0.0,0.0,0.0,0.0,0.0,0.0,0.0,0.0,0.0,0.0,0.0,0.0,0.0,0.0,0.0,0.0,0.0,0.0,0.0,0.0,0.0,0.0,0.0,0.0,0.0,0.0,0.0,0.0,0.0,0.0,0.0,0.0,0.0,0.0,0.0,0.0,0.0,0.0,-3.245,-3.3058,-3.2815,-3.4383,-3.5788,-3.6667,-3.6911,-3.6946,-3.7014,0.0,0.0,0.0,0.0,0.0,0.0,0.0,0.0,0.0,0.0,0.0,0.0,0.0,0.0,0.0,0.0,0.0,0.0,0.0,0.0,0.0,0.0,0.0,0.0,0.0,0.0,0.0,0.0,0.0,0.0,0.0,0.0,0.0,0.0,0.0,0.0,0.0,0.0,0.0,0.0,0.0,0.0,0.0,0.0,0.0,0.0,0.0,0.0,0.0,0.0,0.0,0.0,0.0,0.0,0.0,0.0,0.0,0.0,0.0,0.0,0.0,0.0,0.0,0.0,0.0,0.0,0.0,0.0,0.0,0.0,0.0,0.0,0.0,0.0,0.0,0.0,0.0,0.0,0.0,0.0,0.0,0.0,0.0,0.0,0.0,0.0,0.0,0.0,0.0,0.0,0.0,0.0,0.0,0.0,0.0,0.0,0.0,0.0,0.0,0.0,0.0,0.0,-3.191,-3.2681,-3.2854,-3.2327,-3.4113,-3.5541,-3.6156,-3.638,-3.6868,-3.7374,0.0,0.0,0.0,0.0,0.0,0.0,0.0,0.0,0.0,0.0,0.0,0.0,0.0,0.0,0.0,0.0,0.0,0.0,0.0,0.0,0.0,0.0,0.0,0.0,0.0,0.0,0.0,0.0,0.0,0.0,0.0,0.0,0.0,0.0,0.0,0.0,0.0,0.0,0.0,0.0,0.0,0.0,0.0,0.0,0.0,0.0,0.0,0.0,0.0,0.0,0.0,0.0,0.0,0.0,0.0,0.0,0.0,0.0,0.0,0.0,0.0,0.0,0.0,0.0,0.0,0.0,0.0,0.0,0.0,0.0,0.0,0.0,0.0,0.0,0.0,0.0,0.0,0.0,0.0,0.0,0.0,0.0,0.0,0.0,0.0,0.0,0.0,0.0,0.0,0.0,0.0,0.0,0.0,0.0,0.0,0.0,0.0,0.0,0.0,0.0,0.0,0.0,-3.4673,-3.2765,-3.1873,-3.3107,-3.3,-3.3379,-3.4736,-3.486,-3.5479,0.0,0.0,0.0,0.0,0.0,0.0,0.0,0.0,0.0,0.0,0.0,0.0,0.0,0.0,0.0,0.0,0.0,0.0,0.0,0.0,0.0,0.0,0.0,0.0,0.0,0.0,0.0,0.0,0.0,0.0,0.0,0.0,0.0,0.0,0.0,0.0,0.0,0.0,0.0,0.0,0.0,0.0,0.0,0.0,0.0,0.0,0.0,0.0,0.0,0.0,0.0,0.0,0.0,0.0,0.0,0.0,0.0,0.0,0.0,0.0,0.0,0.0,0.0,0.0,0.0,0.0,0.0,0.0,0.0,0.0,0.0,0.0,0.0,0.0,0.0,0.0,0.0,0.0,0.0,0.0,0.0,0.0,0.0,0.0,0.0,0.0,0.0,0.0,0.0,0.0,0.0,0.0,0.0,0.0,0.0,0.0,0.0,0.0,0.0,0.0,0.0,0.0,0.0,-3.1598,-3.1083,-3.0825,-3.1451,-3.2346,-3.3379,-3.4736,-3.4093,-3.4736,-3.7253,0.0,0.0,0.0,0.0,0.0,0.0,0.0,0.0,0.0,0.0,0.0,0.0,0.0,0.0,0.0,0.0,0.0,0.0,0.0,0.0,0.0,0.0,0.0,0.0,0.0,0.0,0.0,0.0,0.0,0.0,0.0,0.0,0.0,0.0,0.0,0.0,0.0,0.0,0.0,0.0,0.0,0.0,0.0,0.0,0.0,0.0,0.0,0.0,0.0,0.0,0.0,0.0,0.0,0.0,0.0,0.0,0.0,0.0,0.0,0.0,0.0,0.0,0.0,0.0,0.0,0.0,0.0,0.0,0.0,0.0,0.0,0.0,0.0,0.0,0.0,0.0,0.0,0.0,0.0,0.0,0.0,0.0,0.0,0.0,0.0,0.0,0.0,0.0,0.0,0.0,0.0,0.0,0.0,0.0,0.0,0.0,0.0,0.0,0.0,0.0,0.0,0.0,-3.0714,-3.0455,-3.0325,-3.0584,-3.1083,-3.211,-3.3485,-3.3214,-3.3968,-3.6624,0.0,0.0,0.0,0.0,0.0,0.0,0.0,0.0,0.0,0.0,0.0,0.0,0.0,0.0,0.0,0.0,0.0,0.0,0.0,0.0,0.0,0.0,0.0,0.0,0.0,0.0,0.0,0.0,0.0,0.0,0.0,0.0,0.0,0.0,0.0,0.0,0.0,0.0,0.0,0.0,0.0,0.0,0.0,0.0,0.0,0.0,0.0,0.0,0.0,0.0,0.0,0.0,0.0,0.0,0.0,0.0,0.0,0.0,0.0,0.0,0.0,0.0,0.0,0.0,0.0,0.0,0.0,0.0,0.0,0.0,0.0,0.0,0.0,0.0,0.0,0.0,0.0,0.0,0.0,0.0,0.0,0.0,0.0,0.0,0.0,0.0,0.0,0.0,0.0,0.0,0.0,0.0,0.0,0.0,0.0,0.0,0.0,0.0,0.0,0.0,0.0,0.0,-3.1249,-3.0732,-3.0361,-3.0361,-2.9709,-3.0083,-3.1598,-3.1963,-3.3214,-3.5746,0.0,0.0,0.0,0.0,0.0,0.0,0.0,0.0,0.0,0.0,0.0,0.0,0.0,0.0,0.0,0.0,0.0,0.0,0.0,0.0,0.0,0.0,0.0,0.0,0.0,0.0,0.0,0.0,0.0,0.0,0.0,0.0,0.0,0.0,0.0,0.0,0.0,0.0,0.0,0.0,0.0,0.0,0.0,0.0,0.0,0.0,0.0,0.0,0.0,0.0,0.0,0.0,0.0,0.0,0.0,0.0,0.0,0.0,0.0,0.0,-1.3904,-1.3904,0.0,0.0,0.0,0.0,0.0,0.0,0.0,0.0,0.0,0.0,0.0,0.0,0.0,0.0,0.0,0.0,0.0,0.0,0.0,0.0,0.0,0.0,0.0,0.0,0.0,0.0,0.0,0.0,0.0,0.0,0.0,0.0,0.0,0.0,0.0,0.0,0.0,0.0,0.0,0.0,-2.9822,-3.0083,-3.0361,-3.0361,-3.0213,-3.0602,-3.1726,-3.1102,-3.2237,-3.5623,-3.5376,0.0,0.0,0.0,0.0,0.0,0.0,0.0,0.0,0.0,0.0,0.0,0.0,0.0,0.0,0.0,0.0,0.0,0.0,0.0,0.0,0.0,0.0,0.0,0.0,0.0,0.0,0.0,0.0,0.0,0.0,0.0,0.0,0.0,0.0,0.0,0.0,0.0,0.0,0.0,0.0,0.0,0.0,0.0,0.0,0.0,0.0,0.0,0.0,0.0,0.0,0.0,0.0,0.0,0.0,0.0,0.0,0.0,0.0,0.0,-1.3904,-1.3904,0.0,0.0,0.0,0.0,0.0,0.0,0.0,0.0,0.0,0.0,0.0,0.0,0.0,0.0,0.0,0.0,0.0,0.0,0.0,0.0,0.0,0.0,0.0,0.0,0.0,0.0,0.0,0.0,0.0,0.0,0.0,0.0,0.0,0.0,0.0,0.0,0.0,0.0,0.0,0.0,-2.9447,-3.0213,-3.0861,-3.0861,-3.0473,-3.0602,-3.1488,-3.123,-3.2237,-3.5005,-3.5129,0.0,0.0,0.0,0.0,0.0,0.0,0.0,0.0,0.0,0.0,0.0,0.0,0.0,0.0,0.0,0.0,0.0,0.0,0.0,0.0,0.0,0.0,0.0,0.0,0.0,0.0,0.0,0.0,0.0,0.0,0.0,0.0,0.0,0.0,0.0,0.0,0.0,0.0,0.0,0.0,0.0,0.0,0.0,0.0,0.0,0.0,0.0,0.0,0.0,0.0,0.0,0.0,0.0,-1.3904,-1.3904,-1.3904,-1.3904,-1.3904,-1.3904,-1.3904,-1.3904,-1.3904,-1.3888,0.0,0.0,0.0,0.0,0.0,0.0,0.0,0.0,0.0,0.0,0.0,0.0,0.0,0.0,0.0,0.0,0.0,0.0,0.0,0.0,0.0,0.0,-2.72,-2.72,-2.72,-2.72,-2.72,0.0,0.0,0.0,0.0,0.0,0.0,0.0,0.0,0.0,0.0,0.0,-2.9447,-3.0473,-3.1377,-3.1377,-3.0861,-3.0732,-3.1377,-3.1616,-3.2492,-3.4258,-3.5129,-3.6135,0.0,0.0,0.0,0.0,0.0,0.0,0.0,0.0,0.0,0.0,0.0,0.0,0.0,0.0,0.0,0.0,0.0,0.0,0.0,0.0,0.0,0.0,0.0,0.0,0.0,0.0,0.0,0.0,0.0,0.0,0.0,0.0,-1.2741,-1.2764,0.0,0.0,0.0,0.0,0.0,0.0,0.0,0.0,0.0,0.0,0.0,0.0,0.0,-1.3904,-1.3904,-1.3904,-1.3904,-1.3904,-1.3904,-1.3904,-1.3904,-1.3904,-1.3904,-1.3904,-1.3904,0.0,-1.3904,-1.3896,0.0,0.0,0.0,0.0,0.0,0.0,0.0,0.0,0.0,0.0,0.0,0.0,0.0,0.0,0.0,0.0,0.0,0.0,0.0,0.0,0.0,0.0,-2.72,-2.72,-2.72,-2.72,-2.72,-2.72,-2.72,-2.72,-2.72,-2.72,0.0,0.0,0.0,0.0,0.0,0.0,-2.9316,-3.0473,-3.1377,-3.1377,-3.1249,-3.1249,-3.1377,-3.1377,-3.2256,-3.4258,-3.4507,-3.5376,-3.7374,-3.7976,0.0,0.0,0.0,0.0,0.0,0.0,0.0,0.0,0.0,0.0,0.0,0.0,0.0,0.0,0.0,0.0,0.0,0.0,0.0,0.0,0.0,0.0,0.0,0.0,0.0,0.0,0.0,0.0,0.0,-1.3456,-1.3409,-1.3367,-1.3669,-1.3891,0.0,0.0,0.0,0.0,0.0,0.0,0.0,0.0,0.0,-1.3904,-1.3904,-1.3904,-1.3904,-1.3904,-1.3904,-1.3904,-1.3904,-1.3904,-1.3904,-1.3904,-1.3904,-1.3904,-1.3904,-1.3904,-1.3904,-1.3904,-1.3904,-1.3904,0.0,0.0,0.0,0.0,-1.6037,-1.6178,-1.6178,-1.6603,-1.7157,-1.7157,0.0,0.0,0.0,0.0,0.0,0.0,0.0,-2.6249,-2.6249,-2.6784,-2.72,-2.72,-2.72,-2.72,-2.72,-2.72,-2.72,-2.72,-2.72,-2.72,-2.72,-2.76,0.0,0.0,0.0,-2.9839,-2.9839,-3.0732,-3.1377,-3.1377,-3.1377,-3.1377,-3.1377,-3.1377,-3.2256,-3.4258,-3.4383,-3.5253,-3.7374,-3.8335,-3.8953,0.0,0.0,0.0,0.0,0.0,0.0,0.0,0.0,0.0,0.0,0.0,0.0,0.0,0.0,0.0,0.0,0.0,0.0,0.0,0.0,0.0,0.0,0.0,0.0,0.0,0.0,0.0,0.0,-1.3913,-1.385,-1.3842,-1.3858,-1.3907,0.0,0.0,0.0,0.0,0.0,0.0,-1.3904,-1.3904,-1.3904,-1.3904,-1.3904,-1.3904,-1.3904,-1.3904,-1.3904,-1.3904,-1.4096,-1.3228,-1.1606,-1.2691,-1.2865,-1.2424,-1.272,-1.3017,-1.345,-1.3793,-1.3904,-1.4189,-1.4768,-1.5052,-1.5186,-1.5895,-1.6178,-1.6178,-1.6178,-1.6178,-1.6178,-1.6461,-1.7991,-2.0063,-2.0479,0.0,0.0,0.0,0.0,-2.5712,-2.6072,-2.6791,-2.7359,-2.7439,-2.7471,-2.7471,-2.7471,-2.7471,-2.7407,-2.7232,-2.72,-2.72,-2.72,-2.7865,0.0,-2.8263,-2.9447,-3.0361,-3.0361,-3.0991,-3.1377,-3.1377,-3.1377,-3.1377,-3.1377,-3.1377,-3.2128,-3.3882,-3.4258,-3.5129,-3.6989,-3.8335,-3.9072,-3.9308,0.0,0.0,0.0,0.0,0.0,0.0,0.0,0.0,0.0,0.0,0.0,0.0,0.0,0.0,0.0,0.0,0.0,0.0,0.0,0.0,0.0,0.0,0.0,0.0,0.0,0.0,0.0,0.0,0.0,-1.3888,-1.3888,0.0,0.0,0.0,0.0,-1.3904,-1.3904,-1.3904,-1.3904,-1.3904,-1.3904,-1.3904,-1.3904,-1.3904,-1.3904,-1.3904,-1.3904,-1.3904,-1.4686,-1.1616,-0.5564,-0.9672,-1.0351,-0.8402,-0.9313,-1.0667,-1.2148,-1.3457,-1.4189,-1.4474,-1.491,-1.5186,-1.5603,-1.6037,-1.6178,-1.6178,-1.6178,-1.6178,-1.632,-1.7026,-1.8282,-1.9808,-2.1609,-2.231,0.0,0.0,-2.5562,-2.5907,-2.7207,-2.7573,-2.7788,-2.809,-2.817,-2.817,-2.817,-2.817,-2.7979,-2.7328,-2.72,-2.72,-2.72,0.0,-2.8263,-2.8263,-2.9447,-3.0361,-3.0361,-3.0991,-3.1377,-3.1377,-3.1377,-3.1377,-3.1377,-3.1377,-3.1873,-3.2873,-3.3882,-3.4881,-3.5869,-3.7473,-3.8716,-3.9308,-3.9873,0.0,0.0,0.0,0.0,0.0,0.0,0.0,0.0,0.0,0.0,0.0,0.0,0.0,0.0,0.0,0.0,0.0,0.0,0.0,0.0,0.0,0.0,0.0,0.0,0.0,0.0,0.0,0.0,-1.3904,-1.3904,0.0,-1.3904,-1.3904,-1.3904,-1.3904,-1.3904,-1.3904,-1.3904,-1.3904,-1.3904,-1.3904,-1.3904,-1.3904,-1.3904,-1.4322,-1.4686,-1.4541,-1.4571,-1.3428,-1.1161,-1.1244,-1.0977,-1.053,-1.099,-1.1444,-1.2182,-1.356,-1.4537,-1.4984,-1.5558,-1.5849,-1.5995,-1.643,-1.6585,-1.6585,-1.6585,-1.6585,-1.673,-1.8011,-1.9162,-2.0175,-2.1469,-2.1753,-2.2165,-2.3701,-2.4526,-2.5374,-2.6632,-2.7492,-2.8212,-2.8753,-2.8923,-2.8923,-2.8923,-2.8923,-2.8858,-2.8598,-2.8141,-2.8004,-2.8549,-2.9227,-2.9901,-3.0304,-3.1238,-3.1769,-3.1769,-3.2034,-3.2166,-3.2166,-3.2166,-3.2166,-3.2166,-3.1928,-3.2153,-3.3168,-3.4041,-3.4881,-3.5869,-3.7834,-3.9072,-3.9308,-4.0363,-4.1057,0.0,0.0,0.0,0.0,0.0,0.0,0.0,0.0,0.0,0.0,0.0,0.0,0.0,0.0,0.0,0.0,0.0,0.0,0.0,0.0,0.0,0.0,0.0,0.0,0.0,-1.3904,-1.3904,-1.3904,-1.3904,-1.3904,-1.3904,-1.3904,-1.3904,-1.3904,-1.3904,-1.3904,-1.3904,-1.3904,-1.3904,-1.3904,-1.4112,-1.4145,-1.4145,-1.4479,-1.4872,-1.5027,-1.4753,-1.4223,-1.3618,-1.1704,-1.0666,-1.0521,-0.9915,-1.0218,-1.1428,-1.2634,-1.4002,-1.536,-1.5815,-1.6213,-1.6499,-1.6655,-1.6802,-1.6802,-1.6802,-1.7096,-1.7673,-1.8831,-1.986,-2.074,-2.133,-2.1474,-2.1762,-2.2885,-2.3998,-2.5158,-2.6402,-2.7695,-2.8996,-2.9527,-2.9976,-3.0132,-3.0132,-3.0132,-3.0132,-3.0132,-2.9363,-2.8923,-2.961,-3.0293,-3.0972,-3.1513,-3.2186,-3.2588,-3.2588,-3.2588,-3.2588,-3.2588,-3.2588,-3.2588,-3.2588,-3.2747,-3.2843,-3.3236,-3.4485,-3.5355,-3.5852,-3.8043,-3.9426,-3.9661,-4.0595,-4.1172,-4.1196,0.0,0.0,0.0,0.0,0.0,0.0,0.0,0.0,0.0,0.0,0.0,0.0,0.0,0.0,0.0,0.0,0.0,0.0,0.0,0.0,0.0,0.0,0.0,-1.3904,-1.3904,-1.3904,-1.3904,-1.3904,-1.3904,-1.3904,-1.3904,-1.3904,-1.3904,-1.3904,-1.3904,-1.3904,-1.3904,-1.3912,-1.3912,-1.455,-1.4796,-1.4488,-1.4359,-1.4596,-1.5058,-1.4944,-1.3793,-1.1644,-1.0554,-0.9066,-0.7357,-0.5802,-0.7045,-0.9992,-1.0457,-1.2628,-1.5548,-1.5641,-1.6084,-1.6821,-1.6821,-1.6821,-1.6821,-1.6821,-1.7839,-1.9144,-1.9144,-2.0172,-2.1498,-2.1498,-2.1498,-2.1787,-2.2898,-2.4025,-2.5229,-2.6683,-2.8475,-2.9996,-3.0326,-3.0977,-3.1559,-3.1559,-3.1559,-3.1559,-3.1559,-3.0422,-2.978,-3.0446,-3.1125,-3.1684,-3.1684,-3.2222,0.0,-3.2625,-3.2625,-3.2625,-3.2625,-3.2625,-3.2625,-3.2625,-3.352,-3.3785,-3.274,-3.5051,-3.6332,-3.5913,-3.81,-3.9661,-4.0223,-4.0826,-4.1172,-4.1287,0.0,0.0,0.0,0.0,0.0,0.0,0.0,0.0,0.0,0.0,0.0,0.0,0.0,0.0,0.0,0.0,0.0,0.0,0.0,0.0,0.0,-1.3904,-1.3904,-1.3904,-1.3904,-1.3904,-1.3904,-1.3904,-1.3904,-1.3904,-1.3904,-1.3904,-1.3904,-1.3904,-1.3904,-1.3904,-1.4474,-1.4558,-1.4252,-1.4424,-1.467,-1.4826,-1.4852,-1.4944,-1.4952,-1.4974,-1.3969,-1.2266,-1.1998,-1.0308,-0.7513,-0.8288,-0.8443,-0.8443,-1.0928,-1.2783,-1.4322,-1.592,-1.6642,-1.6793,-1.7105,-1.7256,-1.7256,-1.7256,-1.8301,-1.9639,-1.9639,-2.0694,-2.2042,-2.2042,-2.2042,-2.2485,-2.4501,-2.5361,-2.5968,-2.8105,-2.9408,-3.0435,-3.1101,-3.1824,-3.2386,-3.2386,-3.2386,-3.2386,-3.2386,-3.2088,-3.1792,-3.2069,-3.2208,-3.2641,-3.3055,-3.3349,-3.3486,-3.3486,-3.3486,-3.3486,-3.3486,-3.3486,-3.3486,-3.3486,-3.3484,-3.3317,-3.3046,-3.4858,-3.6152,-3.6494,-3.8586,-4.0127,-4.0942,-4.1057,-4.1516,0.0,0.0,0.0,0.0,0.0,0.0,0.0,0.0,0.0,0.0,0.0,0.0,0.0,0.0,0.0,0.0,0.0,0.0,0.0,0.0,0.0,0.0,-1.3904,-1.3904,-1.3904,-1.3904,-1.3904,-1.3904,-1.3904,-1.3904,-1.3904,-1.3904,-1.3904,-1.3904,-1.4129,-1.4314,-1.4162,-1.4496,-1.4742,-1.4441,-1.4613,-1.4703,-1.4861,-1.4884,-1.4974,-1.4974,-1.5072,-1.4191,-1.2481,-1.1708,-0.9998,-0.7513,-0.7821,-0.8132,-0.8755,-1.0773,-1.2783,-1.4637,0.0,0.0,0.0,0.0,-1.7426,-1.7426,-1.7426,-1.8481,-1.9844,-1.9844,-2.0898,-2.2259,-2.2259,-2.2259,-2.2558,-2.4018,-2.5038,-2.605,-2.7535,-2.9409,-3.0977,-3.1418,-3.2403,-3.3103,-3.3103,-3.3103,-3.3103,-3.3103,-3.3103,0.0,-3.3103,-3.3103,-3.3242,-3.3678,-3.3817,-3.3817,-3.3817,-3.3817,-3.3817,-3.3817,-3.3817,-3.3817,-3.3817,-3.4009,0.0,0.0,0.0,-3.6521,-3.772,-3.9764,0.0,0.0,0.0,-4.1402,-4.1972,-4.1972,0.0,0.0,-4.2824,-4.3551,0.0,0.0,0.0,0.0,0.0,0.0,0.0,0.0,0.0,0.0,0.0,0.0,0.0,0.0,0.0,0.0,-1.3904,-1.3904,-1.3904,-1.3904,-1.3904,-1.3904,-1.3904,-1.3904,-1.3904,-1.392,-1.408,-1.3937,-1.4558,-1.4813,-1.4513,-1.4523,0.0,0.0,0.0,-1.49,-1.4741,-1.4887,-1.4968,-1.4968,-1.4806,-1.3883,-1.2481,-1.0773,-0.9221,-0.7669,-0.5955,-0.7045,-1.0147,-1.0457,-1.2628,-1.5735,-1.6203,-1.6662,-1.7426,-1.7426,-1.7426,-1.7426,-1.7426,0.0,0.0,-1.9833,-2.1048,-2.2259,-2.2259,-2.2259,-2.2259,-2.2408,-2.4166,-2.5758,-2.5904,-2.8804,-3.1559,-3.1559,-3.2684,-3.3817,-3.3817,-3.3817,-3.3817,-3.3817,-3.3817,-3.3817,-3.3817,-3.3817,-3.3817,-3.3817,-3.3817,-3.3817,-3.3817,-3.3817,-3.3817,-3.3817,-3.3817,0.0,-3.3817,-3.4609,-3.4746,-3.3817,-3.5605,-3.739,-3.9214,-4.1135,-4.211,-4.2062,-4.1533,-4.1268,-4.1268,-4.122,-4.1172,-4.1172,-4.2824,-4.3356,0.0,0.0,0.0,0.0,0.0,0.0,0.0,0.0,0.0,0.0,0.0,0.0,0.0,0.0,0.0,-1.3904,-1.3904,-1.3904,-1.3904,-1.3904,-1.3904,-1.3904,-1.3904,-1.3904,-1.3904,-1.4491,-1.4583,-1.4276,-1.4441,-1.4539,-1.4539,-1.4711,-1.481,-1.4659,-1.483,-1.4919,-1.4919,-1.4952,-1.4968,-1.4968,-1.3568,0.0,-1.2481,-1.0773,-0.9837,-0.9371,-0.7669,-0.8288,-1.0457,-1.0612,-1.293,-1.6653,-1.6653,-1.6959,-1.7426,-1.7426,-1.7426,-1.7426,-1.8177,-1.8926,-1.9833,-2.0586,-2.1499,-2.2259,-2.2259,-2.2259,0.0,-2.3426,-2.4743,-2.6064,-2.6939,-2.9393,-3.1559,-3.1559,-3.2684,-3.3817,-3.3817,-3.3817,-3.3817,-3.3817,-3.3817,-3.3817,-3.3817,-3.3817,-3.3817,-3.3817,-3.3817,-3.3817,-3.3817,-3.3817,-3.3817,-3.3817,-3.3817,-3.3817,-3.3817,-3.3937,-3.4075,-3.3817,-3.6784,-3.8893,-3.9721,-4.1999,-4.3024,-4.2615,-4.2086,-4.1822,-4.1822,-4.1389,-4.1172,-4.1172,-4.1516,-4.1606,0.0,0.0,0.0,0.0,0.0,0.0,0.0,0.0,0.0,0.0,0.0,-1.3904,-1.3904,0.0,-1.3904,-1.3904,-1.3904,-1.3904,-1.3904,-1.4281,-1.4305,-1.3912,-1.4281,-1.4491,-1.4491,-1.4658,-1.4612,-1.4457,-1.4629,-1.4728,-1.4728,-1.49,-1.499,-1.4838,-1.4919,-1.4968,-1.4968,-1.4968,-1.4653,-1.3722,-1.3722,-1.2481,-0.9998,-0.9998,-0.9061,-0.7509,-0.7669,-0.891,-1.0767,-1.2776,-1.5097,-1.7111,-1.7111,-1.7273,-1.7426,-1.7426,-1.7578,-1.8025,-1.8471,-1.938,-2.0436,-2.0887,-2.1648,-2.2259,-2.2259,-2.2259,-2.2408,-2.2992,-2.4005,-2.5318,-2.6779,-2.8947,-3.0977,-3.1965,-3.2963,-3.3817,-3.3817,-3.3817,-3.3817,-3.3817,-3.3817,-3.3817,-3.3817,-3.3817,-3.3817,-3.3817,-3.3817,-3.3817,-3.3817,-3.3817,-3.3817,-3.3817,-3.3817,-3.3817,-3.3817,-3.3955,-3.4094,-3.4094,-3.74,-3.9519,-3.9692,-4.2125,-4.3385,-4.3144,-4.2639,-4.2375,-4.2375,-4.1846,-4.1581,-4.1581,-4.1317,-4.1172,0.0,0.0,0.0,0.0,0.0,0.0,0.0,-1.3904,-1.3904,-1.3904,-1.3904,-1.3904,-1.3904,-1.3904,-1.3904,-1.3904,-1.3928,-1.3953,-1.4104,-1.4566,-1.4779,-1.417,-1.4591,-1.4838,-1.4984,-1.4695,-1.4489,-1.4637,-1.4818,-1.4916,-1.4757,-1.4887,-1.4968,-1.4968,-1.4968,-1.4968,-1.4968,-1.4653,-1.3883,-1.2488,-1.3252,-1.1547,-0.7981,-0.8755,-0.8132,-0.6733,-0.8905,-1.0302,-1.1231,-1.525,-1.7121,-1.7426,-1.7426,-1.7426,-1.7426,-1.7426,-1.7873,-1.8623,-1.8774,-1.9822,-2.1026,-2.1187,-2.1798,-2.2259,-2.2259,-2.2259,-2.2259,-2.2259,-2.3141,-2.4449,-2.6328,-2.8357,-3.0233,-3.2246,-3.3242,-3.3817,-3.3817,-3.3817,-3.3817,-3.3817,-3.3817,-3.3817,-3.3817,-3.3817,-3.3817,-3.3817,-3.3817,-3.3817,-3.3817,-3.3817,-3.3817,-3.3817,-3.3817,-3.3817,-3.3955,-3.4232,-3.437,-3.4508,-3.7668,-3.9497,-3.9235,-4.2085,-4.3551,-4.3283,-4.3048,-4.2904,-4.2904,-4.2375,-4.2134,-4.211,-4.1677,-4.1389,-1.1619,-1.2647,-1.3674,-1.3634,-1.3769,-1.392,0.0,-1.3904,-1.3904,-1.3904,-1.3904,-1.3904,-1.3904,-1.3904,-1.3904,-1.3904,-1.389,-1.4148,-1.4753,-1.4914,-1.5015,-1.4843,-1.4695,-1.4555,-1.4564,-1.4877,-1.4834,-1.4676,-1.4838,-1.4935,-1.4935,-1.4952,-1.4968,-1.4968,-1.4968,-1.4968,-1.4968,-1.3568,-1.2642,-1.2481,-0.9687,-0.8755,-0.9682,-0.6889,-0.7976,-1.2326,-1.479,-1.4475,-1.2622,-1.5871,-1.7426,-1.7426,-1.7426,-1.7426,-1.7426,-1.7426,-1.7873,-1.8774,-1.938,-2.0285,-2.1187,-2.1948,-2.2259,-2.2259,-2.2259,-2.2259,-2.2259,-2.2259,-2.3141,-2.4449,-2.6328,-2.8357,-3.0233,-3.2246,-3.3242,-3.3817,-3.3817,-3.3817,-3.3817,-3.3817,-3.3817,-3.3817,-3.3817,-3.3817,-3.3817,-3.3817,-3.3817,-3.3817,-3.3817,-3.3817,-3.3817,-3.3817,-3.3817,-3.3955,-3.4232,-3.437,-3.4508,-3.4784,-3.7801,-3.8972,-3.7801,-4.1924,-4.3606,-4.2454,-4.3061,-4.3433,-4.3433,-4.2928,-4.2663,-4.2663,-4.2615,-4.2086,-1.1579,-1.276,-1.3945,-1.3912,-1.3912,-1.3904,-1.3904,-1.3904,-1.3904,-1.3904,-1.3904,-1.3904,-1.3904,-1.3904,-1.4088,-1.4491,-1.4131,-1.4213,-1.4922,-1.4951,-1.506,-1.506,-1.4843,-1.4708,-1.4761,-1.4916,-1.5015,-1.4854,-1.4927,-1.4968,-1.4968,-1.4968,-1.4968,-1.4968,-1.4037,-1.3568,-1.3568,-1.1856,-1.0618,-0.9532,-0.9221,-0.8288,-0.7045,-0.7205,-0.8759,-1.1708,-1.279,-1.3553,-1.4475,-1.5718,-1.6806,-1.7426,-1.7426,-1.7721,-1.8177,-1.8177,-1.8623,-1.938,-2.0285,-2.1037,-2.1798,-2.2109,-2.2259,-2.2259,-2.2259,-2.2259,-2.2259,-2.2259,-2.2843,-2.4018,-2.6736,-2.8326,-2.9774,-3.2666,-3.3521,-3.3817,-3.3817,-3.3817,-3.3817,-3.3817,-3.3817,-3.3817,-3.3817,-3.3817,-3.3817,-3.3817,-3.3817,-3.3817,-3.3817,-3.3817,-3.3817,-3.3817,-3.3955,-3.4232,-3.437,-3.4784,-3.5059,-3.5196,-3.7441,-3.8486,-3.7822,-4.0452,-4.1633,-4.1119,-4.2189,-4.2849,-4.2849,-4.3068,-4.3192,-4.3192,-4.2904,-4.2519,-1.2287,-1.3031,-1.392,-1.3904,-1.3904,-1.3904,-1.3904,-1.3904,-1.3904,-1.3904,-1.3904,-1.3904,-1.3904,-1.3945,-1.4026,-1.4617,-1.4416,-1.4367,-1.496,-1.4977,-1.4941,-1.4941,-1.5048,-1.5072,-1.4949,-1.5048,-1.4968,-1.4968,-1.4968,-1.4968,-1.4968,-1.4968,-1.4653,-1.4184,-1.3105,-1.2326,-1.1863,-1.0618,-0.9221,-0.7513,-0.8755,-0.7976,-0.5489,-0.8141,-0.9542,-1.0164,-1.1089,-1.279,-1.5105,-1.5412,-1.6339,-1.7426,-1.7426,-1.7873,-1.8623,-1.8774,-1.938,-2.0135,-2.0737,-2.1648,-2.2259,-2.2259,-2.2259,-2.2259,-2.2259,-2.2259,-2.2259,-2.2259,-2.2558,-2.3722,-2.7156,-2.831,-2.9472,-3.2945,-3.3817,-3.3817,-3.3817,-3.3817,-3.3817,-3.3817,-3.3817,-3.3817,-3.3817,-3.3817,-3.3817,-3.3817,-3.3817,-3.3817,-3.3817,-3.3817,-3.3817,-3.3817,-3.4094,-3.437,-3.4508,-3.5059,-3.5489,-3.5606,-3.7193,-3.7975,-3.7595,-3.9299,-4.0062,-3.967,-4.0991,-4.1761,-4.1761,-4.2279,-4.2838,-4.3108,-4.2485,-4.2225,-1.3777,-1.392,-1.392,-1.3904,-1.3904,-1.3904,-1.3904,-1.3904,-1.3904,-1.3904,-1.3904,-1.3904,-1.3904,-1.3898,-1.3873,-1.3873,-1.4464,-1.501,-1.5018,-1.5007,-1.496,-1.496,-1.496,-1.496,-1.496,-1.496,-1.4968,-1.4968,-1.4968,-1.4968,-1.4968,-1.4968,-1.403,-1.1843,-1.232,-1.1702,-1.0147,-0.9992,-0.9221,-0.7513,-0.7513,-0.7049,-0.6427,-0.9226,-0.9858,-0.909,-1.2179,-1.3722,-1.3876,-1.5105,-1.6339,-1.7426,-1.7426,-1.7873,-1.8623,-1.9531,-2.0285,-2.1037,-2.1026,-2.1648,-2.2259,-2.2259,-2.2259,-2.2259,-2.2259,-2.2259,-2.2259,-2.2259,-2.2558,-2.3722,-2.7156,-2.831,-2.9472,-3.2945,-3.3817,-3.3817,-3.3817,-3.3817,-3.3817,-3.3817,-3.3817,-3.3817,-3.3817,-3.3817,-3.3817,-3.3817,-3.3817,-3.3817,-3.3817,-3.3817,-3.3817,-3.3817,-3.4094,-3.4508,-3.4921,-3.5196,-3.5626,-3.6016,-3.7327,-3.7461,-3.6152,-3.8772,-3.954,-3.8242,-3.9561,-4.0192,-4.0192,-4.0322,-4.0946,-4.227,-4.0946,-4.0679,-1.3912,-1.3904,-1.3904,-1.3904,-1.3904,-1.3904,-1.3904,-1.3904,-1.3904,-1.3904,-1.385,-1.393,-1.393,-1.3921,-1.408,-1.4513,-1.4793,-1.506,-1.5023,-1.4927,-1.4968,-1.4968,-1.4968,-1.4968,-1.4968,-1.4968,-1.4968,-1.4968,-1.4968,-1.4968,-1.4968,-1.4968,-1.4653,-1.3868,-1.2944,-1.1708,-0.9992,-0.891,-0.7513,-0.5802,-0.6427,-0.7209,-0.7994,-0.8929,-0.9397,-0.9708,-1.0791,-1.2179,-1.3722,-1.4184,-1.5573,-1.7426,-1.8025,-1.8623,-1.9531,-2.0285,-2.1187,-2.1798,-2.1798,-2.2109,-2.2259,-2.2259,-2.2259,-2.2259,-2.2259,-2.2259,-2.2259,-2.2259,-2.2707,-2.3735,-2.589,-2.7749,-2.9488,-3.1789,-3.3085,-3.3817,-3.3817,-3.3817,-3.3817,-3.3817,-3.3817,-3.3817,-3.3817,-3.3817,-3.3817,-3.3817,-3.3817,-3.3817,-3.3817,-3.4094,-3.4232,-3.4232,-3.4784,-3.5196,-3.5333,-3.5606,-3.5879,-3.6016,-3.6403,-3.6539,-3.6016,-3.6944,-3.7193,-3.6674,-3.8109,-3.8772,-3.8772,-3.967,-4.0452,-4.0862,-4.0452,-4.0364,-1.3904,-1.3904,-1.3904,-1.3904,-1.3904,-1.3904,-1.3904,-1.3904,-1.3904,-1.3904,-1.3898,-1.4027,-1.418,-1.4219,-1.4412,-1.4851,-1.5076,-1.4999,-1.4952,-1.4968,-1.4968,-1.4968,-1.4968,-1.4968,-1.4968,-1.4968,-1.4968,-1.4968,-1.4968,-1.4968,-1.4968,-1.4968,-1.4653,-1.4191,-1.2481,-1.0773,-0.9066,-0.7981,-0.7049,-0.6427,-0.6584,-0.7525,-0.8778,-0.909,-0.9553,-1.0019,-1.0019,-1.1411,-1.3722,-1.3722,-1.5259,-1.7873,-1.8471,-1.9229,-2.0285,-2.0887,-2.1487,-2.2259,-2.2259,-2.2259,-2.2259,-2.2259,-2.2259,-2.2259,-2.2259,-2.2259,-2.2259,-2.2408,-2.3005,-2.3735,-2.5465,-2.7475,-2.9631,-3.1067,-3.2666,-3.3817,-3.3817,-3.3817,-3.3817,-3.3817,-3.3817,-3.3817,-3.3817,-3.3817,-3.3817,-3.3817,-3.3817,-3.3817,-3.3817,-3.4094,-3.437,-3.437,-3.5059,-3.5489,-3.5489,-3.5743,-3.6016,-3.6016,-3.6016,-3.6016,-3.6016,-3.6016,-3.6016,-3.6016,-3.6944,-3.7327,-3.7327,-3.8242,-3.8904,-3.9408,-3.8882,-3.9035,-1.3904,-1.3904,-1.3904,-1.3904,-1.3904,-1.3904,-1.3904,-1.3904,-1.3904,-1.3912,-1.3914,-1.4188,-1.4813,-1.496,-1.5035,-1.5035,-1.5015,-1.4968,-1.4968,-1.4968,-1.4968,-1.4968,-1.4968,-1.4968,-1.4968,-1.4968,-1.4968,-1.4968,-1.4968,-1.4968,-1.4968,-1.4968,-1.4191,-1.2642,-1.0928,-0.9216,-0.7669,-0.7513,-0.7829,-0.8769,-0.7989,-0.7994,-0.8934,-0.9708,-1.0019,-1.0019,-1.0019,-1.1411,-1.3722,-1.3722,-1.571,-1.8623,-1.8623,-1.9671,-2.1037,-2.1037,-2.1648,-2.2259,-2.2259,-2.2259,-2.2259,-2.2259,-2.2259,-2.2259,-2.2259,-2.2259,-2.2408,-2.2856,-2.3154,-2.3883,-2.5772,-2.7635,-2.9488,-3.1067,-3.2508,-3.3678,-3.3817,-3.3817,-3.3817,-3.3817,-3.3817,-3.3817,-3.3817,-3.3817,-3.3817,-3.3817,-3.3817,-3.3817,-3.3817,-3.4232,-3.437,-3.4508,-3.5059,-3.547,-3.547,-3.5879,-3.6016,-3.6016,-3.6016,-3.6016,-3.6016,-3.6016,-3.6016,-3.6016,-3.6016,-3.6016,-3.6016,-3.6016,-3.6674,-3.7975,-3.6674,-3.6674,-1.3904,-1.3904,-1.3904,-1.3904,-1.3904,-1.3904,-1.3904,-1.3904,-1.3937,-1.3922,-1.3937,-1.4104,-1.4861,-1.5068,-1.5056,-1.5056,-1.4935,-1.4968,-1.4968,-1.4968,-1.4968,-1.4968,-1.4968,-1.4968,-1.4968,-1.4968,-1.4968,-1.4968,-1.4968,-1.4968,-1.4968,-1.3876,-1.3568,-1.4345,-1.1547,-0.9837,-0.9371,-0.7517,-0.7365,-0.8774,-0.8622,-0.8934,-0.9708,-0.9864,-1.0019,-1.0019,-1.0019,-1.1411,-1.3722,-1.3722,-1.571,-1.8623,-1.9229,-2.0135,-2.1037,-2.1798,-2.2109,-2.2259,-2.2259,-2.2259,-2.2259,-2.2259,-2.2259,-2.2259,-2.2259,-2.2259,-2.2408,-2.2856,-2.3154,-2.3587,-2.4327,-2.6064,-2.7939,-2.9361,-3.0926,-3.2368,-3.3521,-3.3817,-3.3817,-3.3817,-3.3817,-3.3817,-3.3817,-3.3817,-3.3817,-3.3817,-3.3817,-3.3955,-3.4232,-3.4508,-3.4921,-3.5196,-3.5606,-3.5879,-3.5879,-3.5879,-3.6016,-3.6016,-3.6016,-3.6016,-3.6016,-3.6016,-3.6016,-3.6016,-3.6016,-3.6016,-3.6016,-3.6016,-3.6152,-3.6539,-3.6152,-3.6152,-1.3904,-1.3904,-1.3904,-1.3904,-1.3904,-1.3904,-1.3904,-1.3961,-1.3898,-1.3857,-1.4219,-1.4586,-1.4851,-1.5007,-1.4968,-1.4968,-1.4968,-1.4968,-1.4968,-1.4968,-1.4968,-1.4968,-1.4968,-1.4968,-1.4968,-1.4968,-1.4968,-1.4968,-1.4968,-1.4968,-1.4968,-1.4037,-1.4037,-1.4968,-1.2481,-1.0618,-0.9537,-0.7673,-0.7525,-0.8778,-0.8778,-0.9246,-1.0019,-1.0019,-1.0019,-1.0019,-1.0641,-1.1876,-1.3722,-1.4645,-1.6626,-1.9229,-1.9984,-2.0887,-2.1648,-2.2109,-2.2259,-2.2259,-2.2259,-2.2259,-2.2259,-2.2259,-2.2259,-2.2259,-2.2259,-2.2259,-2.2408,-2.3005,-2.3302,-2.36,-2.4044,-2.5639,-2.7085,-2.7924,-2.9932,-3.1789,-3.2648,-3.3381,-3.3817,-3.3817,-3.3817,-3.3817,-3.3817,-3.3817,-3.3817,-3.3817,-3.3955,-3.4232,-3.4508,-3.4784,-3.5059,-3.5196,-3.5743,-3.6016,-3.6016,-3.6016,-3.6016,-3.6016,-3.6016,-3.6016,-3.6016,-3.6016,-3.6016,-3.6016,-3.6016,-3.6016,-3.6016,-3.6016,-3.6016,-3.6016,-3.6016,-3.6016,-1.3904,-1.3904,-1.3904,-1.3904,-1.3904,-1.3904,-1.3904,-1.389,-1.3881,-1.3905,-1.4473,-1.4875,-1.5051,-1.5023,-1.4968,-1.4968,-1.4968,-1.4968,-1.4968,-1.4968,-1.4968,-1.4968,-1.4968,-1.4968,-1.4968,-1.4968,-1.4968,-1.4968,-1.4968,-1.4968,-1.4968,-1.4653,-1.4184,-1.3722,-1.279,-1.1089,-0.8613,-0.7994,-0.815,-0.8934,-0.8934,-0.9402,-1.0019,-1.0019,-1.0019,-1.0019,-1.1417,-1.2649,-1.403,-1.6015,-1.8006,-1.9984,-2.0737,-2.1499,-2.2259,-2.2259,-2.2259,-2.2259,-2.2259,-2.2259,-2.2259,-2.2259,-2.2259,-2.2259,-2.2259,-2.2408,-2.2558,-2.3154,-2.3438,-2.36,-2.4341,-2.5653,-2.6648,-2.7085,-2.9218,-3.1367,-3.1649,-3.2806,-3.3817,-3.3817,-3.3817,-3.3817,-3.3817,-3.3817,-3.3817,-3.3817,-3.4094,-3.4508,-3.4784,-3.4921,-3.5059,-3.5059,-3.5606,-3.6016,-3.6016,-3.6016,-3.6016,-3.6016,-3.6016,-3.6016,-3.6016,-3.6016,-3.6016,-3.6016,-3.6016,-3.6016,-3.6016,-3.6016,-3.6016,-3.6016,-3.6016,-3.6016,-1.3904,-1.3904,-1.3904,-1.3904,-1.3904,-1.3904,-1.3904,-1.389,-1.3913,-1.3901,-1.394,-1.4279,-1.4895,-1.4944,-1.4968,-1.4968,-1.4968,-1.4968,-1.4968,-1.4968,-1.4968,-1.4968,-1.4968,-1.4968,-1.4968,-1.4968,-1.4968,-1.4968,-1.4968,-1.4968,-1.4968,-1.232,-0.9527,-0.6889,-0.9842,-1.0158,-0.7681,-0.8306,-0.8934,-0.9864,-0.9864,-0.9864,-1.0019,-1.0019,-1.0019,-1.0019,-1.1417,-1.2951,-1.479,-1.6168,-1.8451,-2.0887,-2.0887,-2.1499,-2.2259,-2.2259,-2.2259,-2.2259,-2.2259,-2.2259,-2.2259,-2.2259,-2.2259,-2.2259,-2.2259,-2.2558,-2.2856,-2.329,-2.3587,-2.4044,-2.4488,-2.4784,-2.5639,-2.8213,-2.9202,-3.0359,-3.2806,-3.3659,-3.3817,-3.3817,-3.3817,-3.3817,-3.3817,-3.3817,-3.3817,-3.3817,-3.4094,-3.437,-3.4508,-3.5059,-3.547,-3.5743,-3.5879,-3.6016,-3.6016,-3.6016,-3.6016,-3.6016,-3.6016,-3.6016,-3.6016,-3.6016,-3.6016,-3.6016,-3.6016,-3.6016,-3.6016,-3.6016,-3.6016,-3.6016,-3.6016,-3.6016,-1.3904,-1.3904,-1.3904,-1.3904,-1.3969,-1.4042,-1.4347,-1.4261,-1.4167,-1.4404,-1.4406,-1.4549,-1.4952,-1.4968,-1.4968,-1.4968,-1.4968,-1.4968,-1.4968,-1.4968,-1.4968,-1.4968,-1.4968,-1.4968,-1.4968,-1.4968,-1.4968,-1.4968,-1.4968,-1.4968,-1.4968,-1.2635,-1.0773,-0.9537,-1.0158,-1.0164,-0.9547,-0.9397,-0.9553,-1.0019,-1.0019,-1.0019,-1.0019,-1.0019,-1.0019,-1.0019,-1.1572,-1.3259,-1.5097,-1.6931,-1.9067,-2.1037,-2.1487,-2.1948,-2.2259,-2.2259,-2.2259,-2.2259,-2.2259,-2.2259,-2.2259,-2.2259,-2.2408,-2.2558,-2.2558,-2.2856,-2.3154,-2.329,-2.3735,-2.4044,-2.4488,-2.4636,-2.4918,-2.6488,-2.8068,-3.0058,-3.3085,-3.3817,-3.3817,-3.3817,-3.3817,-3.3817,-3.3817,-3.3817,-3.3817,-3.3817,-3.4094,-3.4508,-3.4646,-3.5196,-3.5606,-3.5743,-3.5879,-3.6016,-3.6016,-3.6016,-3.6016,-3.6016,-3.6016,-3.6016,-3.6016,-3.6016,-3.6016,-3.6016,-3.6016,-3.6016,-3.6016,-3.6016,-3.6016,-3.6016,-3.6016,-3.6016,-1.4625,-1.4324,-1.3888,-1.3945,-1.4066,-1.4188,-1.4838,-1.4786,-1.4557,-1.4867,-1.5007,-1.4968,-1.4968,-1.4968,-1.4968,-1.4968,-1.4968,-1.4968,-1.4968,-1.4968,-1.4968,-1.4968,-1.4968,-1.4968,-1.4968,-1.4968,-1.4968,-1.4968,-1.4968,-1.4814,-1.4499,-1.3414,-1.2642,-1.2649,-1.1095,-1.048,-1.0796,-1.033,-1.0019,-1.0019,-1.0019,-1.0019,-1.0019,-1.0019,-1.0019,-1.0019,-1.1727,-1.3414,-1.5395,-1.754,-1.952,-2.1337,-2.2109,-2.2259,-2.2259,-2.2259,-2.2259,-2.2259,-2.2259,-2.2259,-2.2259,-2.2408,-2.2707,-2.2856,-2.2856,-2.3154,-2.36,-2.36,-2.3896,-2.4193,-2.4488,-2.4636,-2.4636,-2.5065,-2.7505,-3.0359,-3.2806,-3.3521,-3.3817,-3.3817,-3.3817,-3.3817,-3.3817,-3.3817,-3.3817,-3.3817,-3.4232,-3.4646,-3.4921,-3.5333,-3.5626,-3.5626,-3.5879,-3.6016,-3.6016,-3.6016,-3.6016,-3.6016,-3.6016,-3.6016,-3.6016,-3.6016,-3.6016,-3.6016,-3.6016,-3.6016,-3.6016,-3.6016,-3.6016,-3.6016,-3.6016,-3.6016,-1.7228,-1.6018,-1.3989,-1.4244,-1.4318,-1.4375,-1.4843,-1.5027,-1.5018,-1.5026,-1.5007,-1.4968,-1.4968,-1.4968,-1.4968,-1.4968,-1.4968,-1.4968,-1.4968,-1.4968,-1.4968,-1.4968,-1.4968,-1.4968,-1.4968,-1.4968,-1.4968,-1.4968,-1.4968,-1.4345,-1.2797,-1.3267,-1.2185,-0.9387,-1.048,-1.0486,-0.909,-0.9708,-1.0019,-1.0019,-1.0019,-1.0019,-1.0019,-1.0019,-1.0019,-1.0019,-1.1417,-1.356,-1.6142,-1.7521,-1.9661,-2.2259,-2.2259,-2.2259,-2.2259,-2.2259,-2.2259,-2.2259,-2.2259,-2.2259,-2.2408,-2.2707,-2.2856,-2.2856,-2.2856,-2.3451,-2.3896,-2.3896,-2.4193,-2.4488,-2.4636,-2.4636,-2.4918,-2.6371,-2.9075,-3.1367,-3.1649,-3.2806,-3.3817,-3.3817,-3.3817,-3.3817,-3.3817,-3.3817,-3.3817,-3.3817,-3.437,-3.4921,-3.4921,-3.547,-3.5879,-3.5879,-3.6016,-3.6016,-3.6016,-3.6016,-3.6016,-3.6016,-3.6016,-3.6016,-3.6016,-3.6016,-3.6016,-3.6016,-3.6016,-3.6016,-3.6016,-3.6016,-3.6016,-3.6016,-3.6016,-3.6016,-1.7631,-1.568,-1.3965,-1.426,-1.4562,-1.5138,-1.6517,-1.7161,-1.7454,-1.7888,-1.7331,-1.6779,-1.6492,-1.5573,-1.4968,-1.4968,-1.4968,-1.4968,-1.4968,-1.4968,-1.4968,-1.4968,-1.4968,-1.4968,-1.4968,-1.4968,-1.4968,-1.4968,-1.5275,-1.4814,-1.3267,-1.2649,-1.2024,-1.1399,-1.0325,-0.9708,-0.9558,-0.9864,-1.0019,-1.0019,-1.0019,-1.0019,-1.0019,-1.0019,-1.0019,-1.0019,-1.0796,-1.2937,-1.6133,-1.6904,-1.9197,-2.2259,-2.2259,-2.2259,-2.2259,-2.2259,-2.2259,-2.2259,-2.2259,-2.2259,-2.2408,-2.2707,-2.3005,-2.3154,-2.3154,-2.3748,-2.4341,-2.4044,-2.4341,-2.4636,-2.4636,-2.4636,-2.4918,-2.6502,-2.8501,-3.0359,-3.1367,-3.2666,-3.3817,-3.3817,-3.3817,-3.3817,-3.3817,-3.3817,-3.3817,-3.3817,-3.4094,-3.437,-3.4784,-3.5196,-3.547,-3.5879,-3.6016,-3.6016,-3.6016,-3.6016,-3.6016,-3.6016,-3.6016,-3.6016,-3.6016,-3.6016,-3.6016,-3.6016,-3.6016,-3.6016,-3.6016,-3.6016,-3.6016,-3.6016,-3.6016,-3.6016,-1.9458,-1.7268,-1.5319,-1.5496,-1.5718,-1.635,-1.7761,-1.8823,-1.9671,-2.0102,-1.9036,-1.7976,-1.7692,-1.6177,-1.4968,-1.4968,-1.4968,-1.4968,-1.4968,-1.4968,-1.4968,-1.4968,-1.4968,-1.5122,-1.5122,-1.5275,-1.5275,-1.5122,-1.5275,-1.4814,-1.4045,-1.234,-1.1714,-1.2488,-1.0325,-0.9402,-1.0019,-1.0019,-1.0019,-1.0019,-1.0019,-1.0019,-1.0019,-1.0019,-1.0019,-1.0019,-1.0486,-1.2628,-1.6133,-1.6608,-1.8895,-2.2259,-2.2259,-2.2259,-2.2259,-2.2259,-2.2259,-2.2259,-2.2259,-2.2259,-2.2408,-2.2707,-2.3154,-2.3438,-2.3587,-2.4044,-2.4488,-2.4193,-2.4341,-2.4636,-2.4636,-2.4636,-2.4918,-2.5932,-2.778,-2.9488,-3.0643,-3.2368,-3.3817,-3.3817,-3.3817,-3.3817,-3.3817,-3.3817,-3.3817,-3.3817,-3.3955,-3.4232,-3.4646,-3.4784,-3.5196,-3.5743,-3.5879,-3.5879,-3.6016,-3.6016,-3.6016,-3.6016,-3.6016,-3.6016,-3.6016,-3.6016,-3.6016,-3.6016,-3.6016,-3.6016,-3.6016,-3.6016,-3.6016,-3.6016,-3.6016,-3.6016,-2.3763,-2.1583,-1.8724,-1.8352,-1.8275,-1.816,-1.8079,-1.9629,-2.098,-2.098,-1.9327,-1.7976,-1.7976,-1.6321,-1.4968,-1.4968,-1.4968,-1.4968,-1.4968,-1.4968,-1.4968,-1.4968,-1.4968,-1.5122,-1.5582,-1.5897,-1.605,-1.559,-1.4806,-1.4499,-1.4968,-1.2649,-1.1262,-1.1262,-1.0486,-1.0019,-1.0019,-1.0019,-1.0019,-1.0019,-1.0019,-1.0019,-1.0019,-1.0019,-1.0019,-1.0019,-1.0486,-1.2628,-1.6133,-1.6608,-1.8895,-2.2259,-2.2259,-2.2259,-2.2259,-2.2259,-2.2259,-2.2259,-2.2259,-2.2259,-2.2408,-2.2707,-2.3154,-2.3451,-2.3883,-2.4341,-2.4636,-2.4636,-2.4636,-2.4636,-2.4636,-2.4636,-2.4636,-2.4636,-2.6925,-2.9202,-2.9202,-3.1649,-3.3817,-3.3817,-3.3817,-3.3817,-3.3817,-3.3817,-3.3817,-3.3817,-3.4094,-3.437,-3.437,-3.4646,-3.5059,-3.547,-3.5489,-3.5626,-3.6016,-3.6016,-3.6016,-3.6016,-3.6016,-3.6016,-3.6016,-3.6016,-3.6016,-3.6016,-3.6016,-3.6016,-3.6016,-3.6016,-3.6016,-3.6016,-3.6016,-3.6016,-2.2862,-2.2065,-2.1229,-2.0263,-1.9981,-2.0229,-2.137,-2.2323,-2.3227,-2.414,-2.2186,-2.0241,-1.9779,-1.754,-1.5582,-1.5122,-1.5429,-1.559,-1.5122,-1.5275,-1.5429,-1.5429,-1.5582,-1.5897,-1.605,-1.6203,-1.6203,-1.605,-1.5275,-1.4499,-1.3722,-1.2494,-1.1727,-1.1727,-1.0641,-1.0019,-1.0019,-1.0019,-1.0019,-1.0019,-1.0019,-1.0019,-1.0019,-1.0019,-1.0175,-1.0486,-1.0486,-1.2172,-1.4927,-1.6303,-1.829,-2.0725,-2.1798,-2.2259,-2.2259,-2.2259,-2.2259,-2.2259,-2.2259,-2.2408,-2.2707,-2.3154,-2.3451,-2.3896,-2.4341,-2.4488,-2.4636,-2.4636,-2.4636,-2.4636,-2.4636,-2.4636,-2.4636,-2.4636,-2.6925,-2.9202,-2.9202,-3.1649,-3.3817,-3.3817,-3.3817,-3.3817,-3.3817,-3.3817,-3.3817,-3.3817,-3.3955,-3.4094,-3.437,-3.4646,-3.5059,-3.547,-3.5762,-3.5879,-3.6016,-3.6016,-3.6016,-3.6016,-3.6016,-3.6016,-3.6016,-3.6016,-3.6016,-3.6016,-3.6016,-3.6016,-3.6016,-3.6016,-3.6016,-3.6016,-3.6016,-3.6016,0.0,-2.3187,-2.2834,-2.197,-2.2019,-2.2436,-2.3337,-2.4422,-2.5332,-2.6093,-2.3844,-2.1452,-2.0991,-1.8299,-1.605,-1.5582,-1.5897,-1.605,-1.5582,-1.5744,-1.5897,-1.5897,-1.6203,-1.6357,-1.6203,-1.651,-1.6662,-1.651,-1.5267,-1.4191,-1.3414,-1.203,-1.1107,-1.1107,-1.0486,-1.0019,-1.0019,-1.0019,-1.0019,-1.0019,-1.0019,-1.0019,-1.0175,-1.0175,-1.0486,-1.0796,-1.0952,-1.2333,0.0,-1.554,-1.7531,-1.9962,-2.0887,-2.1798,-2.2259,-2.2259,-2.2259,-2.2259,-2.2408,-2.2707,-2.3005,-2.3451,-2.3896,-2.4341,-2.4488,-2.4636,-2.4636,-2.4636,-2.4636,-2.4636,-2.4636,-2.4636,-2.4636,-2.4636,-2.6925,-2.9202,-2.9202,-3.1649,-3.3817,-3.3817,-3.3817,-3.3817,-3.3817,-3.3817,-3.3817,-3.3817,-3.3817,-3.3955,-3.4094,-3.437,-3.4646,-3.5196,-3.547,-3.5743,-3.6016,-3.6016,-3.6016,-3.6016,-3.6016,-3.6016,-3.6016,-3.6016,-3.6016,-3.6016,-3.6016,-3.6016,-3.6016,-3.6016,-3.6016,-3.6016,-3.6016,-3.6016,0.0,0.0,-2.3821,-2.3799,-2.4236,-2.4596,-2.4275,0.0,0.0,0.0,-2.4288,-2.1751,-2.1601,-1.8754,-1.6357,-1.6203,-1.6203,-1.6203,-1.6203,-1.6203,-1.6203,-1.6203,-1.6653,-1.6653,-1.6357,-1.6968,-1.7273,-1.6806,-1.4798,-1.3722,-1.3568,-1.1256,-1.0019,-1.0019,-1.0019,-1.0019,-1.0019,-1.0019,-1.0019,-1.0019,-1.0019,-1.0175,-1.0641,-1.0641,-1.0952,-1.1417,-1.1727,-1.2797,-1.4168,-1.4637,-1.677,-1.9661,-1.9811,-2.0876,-2.2259,-2.2259,-2.2259,-2.2408,-2.2707,-2.2856,-2.3154,-2.3748,-2.4341,-2.4636,-2.4636,-2.4636,-2.4636,-2.4636,-2.4636,-2.4636,-2.4636,-2.4636,-2.4636,-2.4636,-2.6925,-2.9202,-2.9202,-3.1649,-3.3817,-3.3817,-3.3817,-3.3817,-3.3817,-3.3817,-3.3817,-3.3817,-3.3817,-3.3817,-3.3817,-3.3817,-3.4094,-3.4784,-3.4921,-3.5196,-3.5879,-3.6016,-3.6016,-3.6016,-3.6016,-3.6016,-3.6016,-3.6016,-3.6016,-3.6016,-3.6016,-3.6016,-3.6016,-3.6016,-3.6016,-3.6016,-3.6016,-3.6016,0.0,0.0,-2.5884,-2.6185,-2.6328,-2.6385,0.0,0.0,0.0,0.0,-2.5345,-2.34,-2.19,-2.0102,-1.8309,-1.651,-1.6662,-1.6968,-1.6357,-1.651,-1.6653,-1.6653,-1.6959,-1.7273,-1.7121,-1.7273,-1.6959,-1.6024,-1.4491,-1.3259,-1.234,-1.0796,-1.0019,-1.0019,-1.0019,-1.0019,-1.0019,-1.0019,-1.0019,-1.0019,-1.033,-1.0486,-1.0641,-1.0952,-1.1417,-1.1727,-1.1882,-1.2347,-1.2958,-1.433,-1.616,-1.8138,-1.9359,-2.0876,-2.2259,-2.2259,-2.2558,-2.2707,-2.2856,-2.3302,-2.3896,-2.4341,-2.4488,-2.4636,-2.4636,-2.4636,-2.4636,-2.4636,-2.4636,-2.4636,-2.4636,-2.4636,-2.4636,-2.4636,-2.6925,-2.9202,-2.9202,-3.1649,-3.3817,-3.3817,-3.3817,-3.3817,-3.3817,-3.3817,-3.3817,-3.3817,-3.4094,-3.4094,-3.3817,-3.4232,-3.4784,-3.4921,-3.5196,-3.547,-3.6016,-3.6016,-3.6016,-3.6016,-3.6016,-3.6016,-3.6016,-3.6016,-3.6016,-3.6016,-3.6016,-3.6016,-3.6016,-3.6016,-3.6016,-3.6016,-3.6016,-3.6016,-2.6149,-2.6369,-2.6574,-2.691,-2.6983,-2.6983,0.0,0.0,0.0,0.0,0.0,-2.3103,-2.2049,-2.0113,-1.8319,-1.6968,-1.7121,-1.7273,-1.6815,-1.6968,-1.7111,-1.7111,-1.7273,-1.7426,-1.7426,-1.6959,-1.6339,-1.5718,-1.3876,-1.2649,-1.1882,-1.0641,-1.0019,-1.0019,-1.0019,-1.0019,-1.0019,-1.0175,-1.033,-1.033,-1.0641,-1.0952,-1.1262,-1.1417,-1.1727,-1.2192,-1.2192,-1.2649,-1.3722,-1.4483,-1.6312,-1.8592,-1.951,-2.0876,-2.2259,-2.2558,-2.2707,-2.3005,-2.3302,-2.3748,-2.4341,-2.4488,-2.4636,-2.4636,-2.4636,-2.4636,-2.4636,-2.4636,-2.4636,-2.4636,-2.4636,-2.4636,-2.4636,-2.4636,-2.6925,-2.9202,-2.9202,-3.1649,-3.3817,-3.3817,-3.3817,-3.3817,-3.3817,-3.3817,-3.3817,-3.3817,-3.3955,-3.4094,-3.3817,-3.437,-3.4784,-3.4921,-3.5196,-3.5626,-3.6016,-3.6016,-3.6016,-3.6016,-3.6016,-3.6016,-3.6016,-3.6016,-3.6016,-3.6016,-3.6016,-3.6016,-3.6016,-3.6016,-3.6016,-3.6016,-3.6016,-3.6016,-2.6413,-2.6544,-2.6647,-2.6925,-2.6983,-2.6983,-2.6983,0.0,0.0,0.0,0.0,-2.2496,-2.2198,-1.9811,-1.7721,-1.7426,-1.7426,-1.7426,-1.7426,-1.7426,-1.7426,-1.7426,-1.7426,-1.7426,-1.7426,-1.6339,-1.5565,-1.5259,-1.3267,-1.1882,-1.1572,-1.0641,-1.0019,-1.0019,-1.0019,-1.0175,-1.0175,-1.0486,-1.0641,-1.0641,-1.1107,-1.1572,-1.1882,-1.2037,-1.2347,-1.2804,-1.2804,-1.3722,-1.5242,-1.5242,-1.7074,-1.9811,-1.9811,-2.0876,-2.2408,-2.2707,-2.2856,-2.3154,-2.3896,-2.4341,-2.4636,-2.4636,-2.4636,-2.4636,-2.4636,-2.4636,-2.4636,-2.4636,-2.4636,-2.4636,-2.4636,-2.4636,-2.4636,-2.4636,-2.6925,-2.9202,-2.9202,-3.1649,-3.3817,-3.3817,-3.3817,-3.3817,-3.3817,-3.3817,-3.3817,-3.3817,-3.3817,-3.3955,-3.3955,-3.4232,-3.4646,-3.4921,-3.5333,-3.5626,-3.6016,-3.6016,-3.6016,-3.6016,-3.6016,-3.6016,-3.6016,-3.6016,-3.6016,-3.6016,-3.6016,-3.6016,-3.6016,-3.6016,-3.6016,-3.6016,-3.6016,-3.6016,-2.6413,-2.6705,-2.6925,-2.6983,-2.6983,-2.6983,-2.6983,-2.6983,0.0,0.0,0.0,0.0,-2.2496,-2.0703,-1.8916,-1.7578,-1.7426,-1.7426,-1.7426,-1.7426,-1.7426,-1.7426,-1.7426,-1.7426,-1.7426,-1.6339,-1.5105,-1.403,-1.2649,-1.1417,-1.033,-1.0175,-1.0175,-1.0486,-1.0486,-1.0641,-1.1107,-1.0796,-1.0796,-1.1262,-1.1572,-1.1882,-1.1882,-1.2192,-1.3112,-1.4483,-1.4483,-1.5548,-1.7074,-1.7074,-1.8138,-1.9811,-1.9811,-2.0876,-2.2408,-2.2707,-2.3154,-2.3438,-2.4193,-2.4488,-2.4636,-2.4636,-2.4636,-2.4636,-2.4636,-2.4636,-2.4636,-2.4636,-2.4636,-2.4636,-2.4636,-2.4636,-2.4636,-2.4636,-2.6925,-2.9202,-2.9202,-3.1649,-3.3817,-3.3817,-3.3817,-3.3817,-3.3817,-3.3817,-3.3817,-3.3817,-3.4094,-3.437,-3.437,-3.4646,-3.4921,-3.5333,-3.547,-3.5626,-3.6016,-3.6016,-3.6016,-3.6016,-3.6016,-3.6016,-3.6016,-3.6016,-3.6016,-3.6016,-3.6016,-3.6016,-3.6016,-3.6016,-3.6016,-3.6016,-3.6016,-3.6016,-2.6632,-2.6881,-2.6983,-2.6983,-2.6399,-2.5653,-2.5653,-2.5038,-2.4435,0.0,-2.3103,-2.1763,-2.1003,-1.9661,-1.8319,-1.7578,-1.7426,-1.7426,-1.7426,-1.7426,-1.7426,-1.7426,-1.7426,-1.7426,-1.7426,-1.5727,-1.4337,-1.3722,-1.1876,-1.0641,-1.0019,-1.0175,-1.0486,-1.0641,-1.0796,-1.1262,-1.1572,-1.1417,-1.1417,-1.1572,-1.2037,-1.2649,-1.3568,-1.3722,-1.4637,-1.6312,-1.6312,-1.7227,-1.8754,-1.8754,-1.9661,-2.1187,-2.1337,-2.1948,-2.2707,-2.3302,-2.3748,-2.4044,-2.4488,-2.4636,-2.4636,-2.4636,-2.4636,-2.4636,-2.4636,-2.4636,-2.4636,-2.4636,-2.4636,-2.4636,-2.4636,-2.4636,-2.4636,-2.4636,-2.6925,-2.9202,-2.9202,-3.1649,-3.3817,-3.3817,-3.3817,-3.3817,-3.3817,-3.3817,-3.3817,-3.3817,-3.3955,-3.4094,-3.437,-3.4646,-3.5059,-3.547,-3.5606,-3.5879,-3.6016,-3.6016,-3.6016,-3.6016,-3.6016,-3.6016,-3.6016,-3.6016,-3.6016,-3.6016,-3.6016,-3.6016,-3.6016,-3.6016,-3.6016,-3.6016,-3.6016,-3.6016,-2.6837,-2.6983,-2.6983,-2.6983,-2.58,-2.4609,-2.4609,-2.34,-2.2198,-2.2198,-2.0853,-1.9811,-1.9811,-1.8471,-1.7426,-1.7426,-1.7426,-1.7426,-1.7426,-1.7426,-1.7426,-1.7426,-1.7121,-1.6959,-1.6959,-1.4806,-1.3259,-1.3259,-1.1256,-1.0019,-1.0175,-1.0486,-1.0641,-1.0952,-1.1262,-1.1572,-1.2037,-1.234,-1.2649,-1.2649,-1.2958,-1.3876,-1.5548,-1.5548,-1.6465,-1.7986,-1.7986,-1.8895,-2.0425,-2.0425,-2.1337,-2.2408,-2.2856,-2.3005,-2.3302,-2.3748,-2.4193,-2.4636,-2.4636,-2.4636,-2.4636,-2.4636,-2.4636,-2.4636,-2.4636,-2.4636,-2.4636,-2.4636,-2.4636,-2.4636,-2.4636,-2.4636,-2.4636,-2.4636,-2.6925,-2.9202,-2.9202,-3.1649,-3.3817,-3.3817,-3.3817,-3.3817,-3.3817,-3.3817,-3.3817,-3.3817,-3.389,-3.4084,-3.4658,-3.501,-3.5344,-3.5915,-3.6191,-3.6328,-3.6328,-3.6328,-3.6328,-3.6328,-3.6133,-3.6016,-3.6016,-3.6016,-3.6016,-3.6016,-3.6016,-3.6016,-3.6016,-3.6016,-3.6016,-3.6016,-3.6016,-3.6016,-2.6896,-2.6983,-2.6983,-2.6983,-2.58,-2.4609,-2.4609,-2.34,-2.2198,-2.2198,-2.0853,-1.9811,-1.9811,-1.8471,-1.7426,-1.7426,-1.7426,-1.7426,-1.7426,-1.7426,-1.7426,-1.7426,-1.6339,-1.5718,-1.5718,-1.3421,-1.2037,-1.2037,-1.0796,-1.0175,-1.0486,-1.0641,-1.0952,-1.1727,-1.1882,-1.2037,-1.2501,-1.3876,-1.4637,-1.4637,-1.4637,-1.5548,-1.7227,-1.7227,-1.8138,-1.9661,-1.9661,-2.0575,-2.2109,-2.2558,-2.2707,-2.2856,-2.3302,-2.36,-2.3896,-2.4044,-2.4193,-2.4636,-2.4636,-2.4636,-2.4636,-2.4636,-2.4636,-2.4636,-2.4636,-2.4636,-2.4636,-2.4636,-2.4636,-2.4636,-2.4636,-2.4636,-2.4636,-2.4636,-2.6925,-2.9202,-2.9202,-3.1649,-3.3817,-3.3817,-3.3817,-3.3817,-3.3817,-3.3817,-3.3817,-3.3817,-3.4128,-3.4648,-3.535,-3.583,-3.6341,-3.7066,-3.7207,-3.7207,-3.7207,-3.7207,-3.7207,-3.7207,-3.6465,-3.6016,-3.6016,-3.6016,-3.6016,-3.6016,-3.6016,-3.6016,-3.6016,-3.6016,-3.6016,-3.6016,-3.6016,-3.6016,-2.6896,-2.6239,-2.58,-2.6692,-2.4301,-2.1912,-2.2942,-2.19,-2.0402,-1.9369,-1.8774,-1.8319,-1.8319,-1.7873,-1.7426,-1.7426,-1.7426,-1.7426,-1.7426,-1.7426,-1.7121,-1.6339,-1.5871,-1.5259,-1.4491,-1.2958,-1.2037,-1.2192,-1.1107,-1.0641,-1.0952,-1.1262,-1.1572,-1.1882,-1.2192,-1.2804,-1.403,-1.4637,-1.5854,-1.7986,-1.6922,-1.7379,-1.8905,-1.8905,-1.9811,-2.1337,-2.1637,-2.2097,-2.2707,-2.3005,-2.3154,-2.3302,-2.36,-2.4044,-2.4341,-2.4341,-2.4488,-2.4636,-2.4636,-2.4636,-2.4636,-2.4636,-2.4636,-2.4636,-2.4636,-2.4636,-2.4636,-2.4636,-2.4636,-2.4636,-2.4636,-2.4636,-2.4636,-2.4636,-2.6925,-2.9202,-2.9202,-3.1649,-3.3817,-3.3817,-3.3817,-3.3817,-3.3817,-3.4018,-3.4183,-3.4183,-3.4532,-3.5074,-3.5925,-3.6058,-3.6437,-3.7164,-3.7305,-3.7305,-3.7305,-3.7305,-3.7305,-3.7305,-3.6992,-3.6699,-3.6445,-3.6426,-3.6289,-3.6035,-3.6016,-3.6016,-3.6016,-3.6016,-3.6016,-3.6016,-3.6016,-3.6016,-2.6328,-2.5492,-2.4757,-2.5345,-2.2942,-2.0703,-2.1302,-2.0263,-1.8774,-1.7569,-1.7426,-1.7426,-1.7426,-1.7426,-1.7426,-1.7426,-1.7426,-1.7426,-1.7426,-1.7426,-1.6959,-1.5718,-1.5259,-1.4491,-1.3259,-1.2185,-1.1572,-1.1882,-1.1262,-1.0952,-1.1417,-1.1727,-1.2185,-1.2797,-1.3112,-1.403,-1.5701,-1.616,-1.7531,-1.9811,-1.9359,-1.9661,-2.0575,-2.0725,-2.1337,-2.2558,-2.2856,-2.3005,-2.3154,-2.3438,-2.3587,-2.3735,-2.4044,-2.4341,-2.4636,-2.4636,-2.4636,-2.4636,-2.4636,-2.4636,-2.4636,-2.4636,-2.4636,-2.4636,-2.4636,-2.4636,-2.4636,-2.4636,-2.4636,-2.4636,-2.4636,-2.4636,-2.4784,-2.5212,-2.736,-2.9345,-2.9774,-3.1947,-3.3817,-3.3817,-3.3908,-3.4,-3.4,-3.433,-3.4605,-3.4605,-3.5097,-3.5643,-3.6342,-3.6618,-3.6981,-3.7695,-3.7695,-3.7695,-3.7695,-3.7695,-3.7695,-3.7695,-3.7695,-3.7441,-3.6894,-3.6875,-3.6738,-3.6426,-3.6426,-3.6367,-3.623,-3.623,-3.6152,-3.6016,-3.6016,-3.6016,-2.5051,-2.4609,-2.4153,-2.2645,-2.2186,-2.1751,-2.0113,-1.8623,-1.7426,-1.7426,-1.7426,-1.7426,-1.7426,-1.7426,-1.7426,-1.7426,-1.7426,-1.7426,-1.7426,-1.7426,-1.6959,-1.5718,-1.4491,-1.3259,-1.2037,-1.1107,-1.0641,-1.0641,-1.1107,-1.1417,-1.1882,-1.1882,-1.2804,-1.479,-1.4944,-1.5701,-1.7379,-1.9057,-1.9811,-1.9811,-2.1936,-2.2707,-2.2259,-2.2707,-2.2856,-2.2856,-2.3302,-2.3438,-2.3438,-2.3883,-2.4193,-2.4636,-2.4636,-2.4636,-2.4636,-2.4636,-2.4636,-2.4636,-2.4636,-2.4636,-2.4636,-2.4636,-2.4636,-2.4636,-2.4636,-2.4636,-2.4636,-2.4636,-2.4636,-2.4636,-2.4636,-2.4636,-2.5065,-2.6517,-2.8068,-2.9631,-3.1209,-3.2666,-3.3817,-3.3817,-3.4147,-3.4403,-3.4403,-3.4752,-3.5045,-3.5045,-3.5665,-3.6361,-3.6777,-3.7448,-3.8155,-3.8574,-3.8574,-3.8574,-3.8574,-3.8574,-3.8574,-3.8574,-3.8574,-3.8184,-3.7344,-3.7305,-3.7305,-3.7305,-3.7305,-3.709,-3.668,-3.668,-3.6465,-3.6035,-3.6035,-3.6035,-2.6385,-2.4596,-2.3091,-2.3696,-2.1314,-1.9067,-1.9661,-1.9369,-1.8764,-1.7569,-1.7426,-1.7426,-1.7426,-1.7426,-1.7426,-1.7426,-1.7426,-1.7426,-1.7426,-1.6653,-1.5718,-1.4337,-1.3112,-1.203,-1.1107,-1.0796,-1.0796,-1.1417,-1.1572,-1.1882,-1.2347,-1.3414,-1.433,-1.4944,-1.6007,-1.7379,-1.9057,-1.951,-2.0575,-2.1948,-2.2558,-2.2856,-2.2707,-2.3154,-2.3302,-2.3302,-2.36,-2.3896,-2.3896,-2.4193,-2.4488,-2.4636,-2.4636,-2.4636,-2.4636,-2.4636,-2.4636,-2.4636,-2.4636,-2.4636,-2.4636,-2.4636,-2.4636,-2.4636,-2.4636,-2.4636,-2.4636,-2.4636,-2.4636,-2.4636,-2.4636,-2.5359,-2.6357,-2.7215,-2.8213,-2.9631,-3.1491,-3.316,-3.422,-3.422,-3.4568,-3.4844,-3.4844,-3.5174,-3.5449,-3.5739,-3.6237,-3.692,-3.7524,-3.8059,-3.8428,-3.8574,-3.8574,-3.8574,-3.8574,-3.8574,-3.8574,-3.8574,-3.8574,-3.832,-3.7754,-3.7734,-3.7598,-3.7305,-3.7305,-3.7226,-3.7109,-3.7109,-3.7051,-3.6914,-3.6621,-3.6484,-2.5492,-2.3684,-2.2198,-2.1763,-1.952,-1.7578,-1.8623,-1.8926,-1.8623,-1.7578,-1.7426,-1.7426,-1.7426,-1.7426,-1.7426,-1.7426,-1.7426,-1.7426,-1.7426,-1.6339,-1.5105,-1.3876,-1.2649,-1.1572,-1.0641,-1.0796,-1.1107,-1.1882,-1.2037,-1.2494,-1.3414,-1.433,-1.5548,-1.677,-1.7834,-1.9208,-2.0737,-2.0876,-2.1637,-2.2856,-2.3154,-2.3302,-2.3302,-2.36,-2.3587,-2.3587,-2.4044,-2.4193,-2.4193,-2.4488,-2.4636,-2.4636,-2.4636,-2.4636,-2.4636,-2.4636,-2.4636,-2.4636,-2.4636,-2.4636,-2.4636,-2.4636,-2.4636,-2.4636,-2.4784,-2.4784,-2.4636,-2.4784,-2.4784,-2.4636,-2.4636,-2.5786,-2.7085,-2.7924,-2.9314,-3.086,-3.2579,-3.3925,-3.466,-3.466,-3.4972,-3.5265,-3.5265,-3.5595,-3.5999,-3.6458,-3.6957,-3.7568,-3.8155,-3.8428,-3.8574,-3.8574,-3.8574,-3.8574,-3.8574,-3.8574,-3.8574,-3.8574,-3.8574,-3.8457,-3.8203,-3.8184,-3.8066,-3.7812,-3.7812,-3.7715,-3.7539,-3.7539,-3.7461,-3.7285,-3.7031,-3.6914,-2.3239,-2.2198,-2.1302,-1.8319,-1.7578,-1.7426,-1.7426,-1.7426,-1.7426,-1.7426,-1.7426,-1.7426,-1.7426,-1.7426,-1.7426,-1.7426,-1.7426,-1.7426,-1.7273,-1.6186,-1.4952,-1.3722,-1.2494,-1.1417,-1.0796,-1.1107,-1.1572,-1.2185,-1.2501,-1.3414,-1.5097,-1.5242,-1.677,-1.9661,-1.9962,-2.0725,-2.2408,-2.2707,-2.2856,-2.3005,-2.3748,-2.4044,-2.4044,-2.4044,-2.4044,-2.4044,-2.4488,-2.4636,-2.4636,-2.4636,-2.4636,-2.4636,-2.4636,-2.4636,-2.4636,-2.4636,-2.4636,-2.4636,-2.4636,-2.4636,-2.4636,-2.4636,-2.4636,-2.4636,-2.5079,-2.4931,-2.4784,-2.5079,-2.4931,-2.4636,-2.4636,-2.5946,-2.755,-2.8979,-3.0656,-3.2503,-3.4157,-3.4788,-3.5082,-3.5082,-3.5412,-3.5669,-3.5669,-3.5981,-3.6367,-3.6812,-3.7568,-3.8155,-3.8574,-3.8574,-3.8574,-3.8574,-3.8574,-3.8574,-3.8574,-3.8574,-3.8574,-3.8574,-3.8574,-3.8574,-3.8574,-3.8574,-3.8574,-3.8574,-3.8574,-3.8379,-3.7988,-3.7988,-3.7793,-3.7422,-3.7363,-3.7363,-2.4301,-2.2211,0.0,-1.951,-1.8319,-1.7426,-1.7426,-1.7426,-1.7426,-1.7426,-1.7426,-1.7426,-1.7426,-1.7426,-1.7426,-1.7426,-1.7426,-1.7121,-1.6186,-1.4952,-1.3722,-1.2494,-1.1417,-1.0952,-1.1107,-1.1572,-1.2494,-1.4176,-1.433,-1.5097,-1.677,-1.7986,-1.9057,-1.9811,-2.1037,-2.2109,-2.2707,-2.2856,-2.3154,-2.3748,-2.3896,-2.4193,-2.4488,-2.4488,-2.4488,-2.4488,-2.4488,-2.4636,-2.4636,-2.4636,-2.4636,-2.4636,-2.4636,-2.4636,-2.4636,-2.4636,-2.4636,-2.4636,-2.4636,-2.4636,-2.4636,-2.4636,-2.4636,-2.4636,-2.4636,-2.4931,-2.5079,-2.4784,-2.4931,-2.4931,-2.4636,-2.71,-2.96,-2.9631,-3.0838,-3.2715,-3.5216,-3.5624,-3.5485,-3.5485,-3.5815,-3.6072,-3.6072,-3.6146,-3.6516,-3.7107,-3.799,-3.8428,-3.8574,-3.8574,-3.8574,-3.8574,-3.8574,-3.8574,-3.8574,-3.8574,-3.8574,-3.8574,-3.8574,-3.8574,-3.8574,-3.8574,-3.8574,-3.8574,-3.8574,-3.8535,-3.8437,-3.8437,-3.8379,-3.8301,-3.8255,-3.824,0.0,0.0,0.0,-1.9067,-1.8025,-1.7426,-1.7426,-1.7426,-1.7426,-1.7426,-1.7426,-1.7426,-1.7426,-1.7426,-1.7426,-1.7426,-1.6959,-1.6339,-1.5718,-1.403,-1.2649,-1.2192,-1.1262,-1.0796,-1.1572,-1.2494,-1.356,-1.479,-1.5701,-1.677,-1.8441,-1.9359,-2.0124,-2.1037,-2.2097,-2.2707,-2.2856,-2.3302,-2.36,-2.4044,-2.4193,-2.4341,-2.4636,-2.4636,-2.4636,-2.4636,-2.4636,-2.4636,-2.4636,-2.4636,-2.4636,-2.4636,-2.4636,-2.4636,-2.4636,-2.4636,-2.4636,-2.4636,-2.4636,-2.4636,-2.4636,-2.4636,-2.4636,-2.4636,-2.5065,-2.5226,-2.5226,-2.5373,-2.5373,-2.5267,-2.5404,-2.7849,-3.0518,-3.0893,-3.2458,-3.4433,-3.568,-3.5906,-3.5907,-3.5907,-3.6072,-3.6201,-3.6201,-3.6516,-3.696,-3.7402,-3.8136,-3.8574,-3.8574,-3.8574,-3.8574,-3.8574,-3.8574,-3.8574,-3.8574,-3.8574,-3.8574,-3.8574,-3.8574,-3.8574,-3.8574,-3.8574,-3.8574,-3.8574,-3.8574,-3.8574,-3.8574,-3.872,-3.8885,-3.8865,-3.9062,-3.9106,0.0,0.0,-2.1153,-1.8177,-1.7426,-1.7426,-1.7426,-1.7426,-1.7426,-1.7426,-1.7426,-1.7426,-1.7426,-1.7426,-1.7273,-1.7121,-1.6186,-1.5412,-1.4952,-1.3267,-1.2037,-1.2192,-1.1417,-1.1256,-1.2185,-1.356,-1.4782,-1.5701,-1.7074,-1.8592,-2.0263,-2.0274,-2.1026,-2.2408,-2.2856,-2.3005,-2.3154,-2.3748,-2.4044,-2.4044,-2.4488,-2.4636,-2.4636,-2.4636,-2.4636,-2.4636,-2.4636,-2.4636,-2.4636,-2.4636,-2.4636,-2.4636,-2.4636,-2.4636,-2.4636,-2.4636,-2.4636,-2.4636,-2.4636,-2.4784,-2.4784,-2.4784,-2.4784,-2.4931,-2.5359,-2.552,-2.5534,-2.6163,-2.5884,-2.5511,-2.6546,-2.8694,-3.0909,-3.2126,-3.4439,-3.6309,-3.587,-3.5981,-3.6201,-3.6201,-3.6201,-3.6201,-3.6349,-3.696,-3.7421,-3.7568,-3.8136,-3.8574,-3.8574,-3.8574,-3.8574,-3.8574,-3.8574,-3.8574,-3.8574,-3.8574,-3.8574,-3.8574,-3.8574,-3.8574,-3.8574,-3.8574,-3.8574,-3.872,-3.872,-3.872,-3.872,-3.9176,-3.9321,-3.9321,-3.959,-3.9858,0.0,0.0,-1.9661,0.0,-1.7426,-1.7426,-1.7426,-1.7426,-1.7426,-1.7426,-1.7426,-1.7426,-1.7426,-1.7426,-1.7111,-1.6033,-1.5718,-1.4798,-1.2649,-1.2347,-1.2037,-1.0952,-1.1417,-1.234,-1.3868,-1.4483,-1.6007,-1.8895,-1.9359,-2.0414,-2.2396,-2.2558,-2.2694,-2.3302,-2.3302,-2.3451,-2.3896,-2.3896,-2.4193,-2.4488,-2.4636,-2.4636,-2.4636,-2.4636,-2.4636,-2.4636,-2.4636,-2.4636,-2.4636,-2.4636,-2.4636,-2.4636,-2.4636,-2.4636,-2.4636,-2.4636,-2.4784,-2.5079,-2.5079,-2.5373,-2.5506,-2.5226,-2.5373,-2.5506,-2.4931,-2.552,-2.6149,-2.5824,-2.5894,-2.6546,-2.8327,-3.0245,-3.2126,-3.33,-3.5539,-3.7179,-3.6737,-3.6479,-3.6201,-3.6201,-3.6201,-3.6349,-3.6664,-3.7107,-3.7568,-3.7862,-3.8302,-3.8574,-3.8574,-3.8574,-3.8574,-3.8574,-3.8574,-3.8574,-3.8574,-3.8574,-3.8574,-3.8574,-3.8574,-3.8574,-3.8574,-3.8574,-3.872,-3.9176,-3.9176,-3.9176,-3.9176,-3.9445,-3.957,-3.957,-4.0022,-4.0166,-2.3696,-2.1601,-1.9369,0.0,-1.7426,-1.7426,-1.7426,-1.7426,-1.7426,-1.7426,-1.7426,-1.7426,-1.7426,-1.7426,-1.6959,-1.5871,-1.4952,-1.3876,-1.2192,-1.1572,-1.1262,-1.1107,-1.1572,-1.2347,-1.3259,-1.5097,-1.6465,-1.7074,-1.9661,-2.1187,-2.1176,-2.2247,-2.3005,-2.3154,-2.3451,-2.3896,-2.4044,-2.4193,-2.4488,-2.4636,-2.4636,-2.4636,-2.4636,-2.4636,-2.4636,-2.4636,-2.4636,-2.4636,-2.4636,-2.4636,-2.4636,-2.4636,-2.4636,-2.4636,-2.4636,-2.4636,-2.4784,-2.5226,-2.5226,-2.5373,-2.5373,-2.5226,-2.5373,-2.5373,-2.5079,-2.5792,-2.6686,-2.6369,-2.6388,-2.7022,-2.9425,-3.1098,-3.2459,-3.4075,-3.5924,-3.7255,-3.6664,-3.6349,-3.6201,-3.6201,-3.6201,-3.6367,-3.6664,-3.7107,-3.7568,-3.7862,-3.8302,-3.8574,-3.8574,-3.8574,-3.8574,-3.8574,-3.8574,-3.8574,-3.8574,-3.8574,-3.8574,-3.8574,-3.8574,-3.8574,-3.8574,-3.8865,-3.903,-3.9176,-3.9176,-3.9321,-3.9445,-3.9878,-4.0022,-4.0022,-4.0453,-4.0596,0.0,0.0,-1.9962,-1.7873,-1.7426,-1.7426,-1.7426,-1.7426,-1.7426,-1.7426,-1.7426,-1.7426,-1.7426,-1.7426,-1.6959,-1.5871,-1.4491,-1.3259,-1.2192,-1.1262,-1.0952,-1.1417,-1.1882,-1.2347,-1.3112,-1.5395,-1.6465,-1.5548,-1.9359,-2.1187,-1.9962,-2.1936,-2.3005,-2.3154,-2.3748,-2.4193,-2.4193,-2.4488,-2.4636,-2.4636,-2.4636,-2.4636,-2.4636,-2.4636,-2.4636,-2.4636,-2.4636,-2.4636,-2.4636,-2.4636,-2.4636,-2.4636,-2.4636,-2.4636,-2.4636,-2.4636,-2.4784,-2.5226,-2.5373,-2.5373,-2.552,-2.552,-2.552,-2.5681,-2.5322,-2.6094,-2.7049,-2.7058,-2.6956,-2.7502,-3.0688,-3.1808,-3.2776,-3.5217,-3.6664,-3.7107,-3.6349,-3.6201,-3.6201,-3.6201,-3.6201,-3.6349,-3.6812,-3.7255,-3.7568,-3.8009,-3.8448,-3.8574,-3.8574,-3.8574,-3.8574,-3.8574,-3.8574,-3.8574,-3.8574,-3.8574,-3.8574,-3.8574,-3.8574,-3.8574,-3.872,-3.903,-3.9321,-3.9465,-3.9465,-3.959,-3.9858,-4.031,-4.0453,-4.0453,-4.074,-4.0882,0.0,-2.2198,0.0,-1.8177,-1.7426,-1.7426,-1.7426,-1.7426,-1.7426,-1.7426,-1.7426,-1.7426,-1.7426,-1.7426,-1.6959,-1.5871,-1.4491,-1.3414,-1.2656,-1.1727,-1.1417,-1.1882,-1.2192,-1.3112,-1.4637,-1.4944,-1.5701,-1.7227,-1.8905,-2.0113,-2.0414,-2.2235,-2.3587,-2.3896,-2.4341,-2.4636,-2.4636,-2.4636,-2.4636,-2.4636,-2.4636,-2.4636,-2.4636,-2.4636,-2.4636,-2.4636,-2.4636,-2.4636,-2.4636,-2.4636,-2.4636,-2.4636,-2.4636,-2.4636,-2.4636,-2.4636,-2.4784,-2.5226,-2.5653,-2.5946,-2.6399,-2.6399,-2.6546,-2.675,-2.5866,-2.6574,-2.7449,-2.7282,-2.7144,-2.8125,-3.2406,-3.2944,-3.3398,-3.6941,-3.7568,-3.7107,-3.6349,-3.6201,-3.6201,-3.6201,-3.6201,-3.6516,-3.7255,-3.7421,-3.7715,-3.8428,-3.8574,-3.8574,-3.8574,-3.8574,-3.8574,-3.8574,-3.8574,-3.8574,-3.8574,-3.8574,-3.8574,-3.8574,-3.8574,-3.872,-3.9176,-3.9176,-3.9465,-4.0166,-4.0166,-4.031,-4.031,-4.074,-4.0882,-4.0882,-4.0882,-4.0882,0.0,0.0,0.0,-1.8168,-1.7426,-1.7426,-1.7426,-1.7426,-1.7426,-1.7426,-1.7426,-1.7426,-1.7426,-1.7426,-1.6806,-1.4645,-1.403,-1.3105,-1.1572,-1.1262,-1.1417,-1.1882,-1.2192,-1.2656,-1.3267,-1.433,-1.479,-1.433,-1.677,-1.829,-1.8441,-2.0402,-2.2073,-2.3587,-2.4044,-2.4341,-2.4636,-2.4636,-2.4636,-2.4636,-2.4636,-2.4636,-2.4636,-2.4636,-2.4636,-2.4636,-2.4636,-2.4636,-2.4636,-2.4636,-2.4636,-2.4636,-2.4636,-2.4636,-2.4636,-2.4636,-2.4784,-2.5226,-2.5653,-2.5946,-2.6093,-2.6399,-2.6675,-2.6729,-2.5949,-2.6857,-2.7987,-2.7423,-2.7481,-2.8739,-3.2641,-3.3264,-3.3717,-3.7236,-3.7568,-3.696,-3.6664,-3.6664,-3.6516,-3.6201,-3.6664,-3.7107,-3.7402,-3.7568,-3.8009,-3.8574,-3.8574,-3.8574,-3.8574,-3.8574,-3.8574,-3.8574,-3.8574,-3.8574,-3.8574,-3.8574,-3.8574,-3.8574,-3.8865,-3.903,-3.9176,-3.961,-4.0022,-4.031,-4.0596,-4.074,-4.074,-4.0882,-4.0882,-4.0882,-4.0882,-4.0882,-2.3696,0.0,0.0,-1.8916,-1.7721,-1.7426,-1.7426,-1.7426,-1.7426,-1.7426,-1.7426,-1.7426,-1.7426,-1.7426,-1.6806,-1.4645,-1.403,-1.3105,-1.1411,-1.1262,-1.1417,-1.1882,-1.2192,-1.2501,-1.2501,-1.3414,-1.3722,-1.2656,-1.5097,-1.6617,-1.6617,-1.9046,-2.1314,-2.3587,-2.4044,-2.4341,-2.4636,-2.4636,-2.4636,-2.4636,-2.4636,-2.4636,-2.4636,-2.4636,-2.4636,-2.4636,-2.4636,-2.4636,-2.4636,-2.4636,-2.4636,-2.4784,-2.4636,-2.4636,-2.4784,-2.4636,-2.4784,-2.5079,-2.5506,-2.5653,-2.5681,-2.6367,-2.67,-2.6766,-2.6377,-2.7183,-2.8308,-2.7467,-2.7636,-2.8886,-3.2674,-3.4336,-3.5384,-3.7549,-3.7568,-3.7107,-3.6812,-3.6812,-3.6664,-3.6497,-3.6812,-3.7255,-3.7568,-3.7715,-3.8009,-3.8574,-3.8574,-3.8574,-3.8574,-3.8574,-3.8574,-3.8574,-3.8574,-3.8574,-3.8574,-3.8574,-3.8574,-3.8574,-3.903,-3.9321,-3.9301,-4.0022,-4.031,-4.0453,-4.074,-4.0882,-4.0882,-4.0882,-4.0882,-4.0882,-4.0882,-4.0882,0.0,0.0,0.0,-2.0263,-1.8623,-1.7426,-1.7426,-1.7426,-1.7426,-1.7426,-1.7426,-1.7426,-1.7426,-1.7426,-1.7111,-1.5871,-1.4645,-1.3568,-1.2656,-1.1882,-1.1572,-1.1882,-1.2347,-1.2501,-1.2501,-1.2501,-1.2501,-1.2501,-1.403,-1.4944,-1.4944,-1.8431,-2.1613,-2.3896,-2.4341,-2.4636,-2.4636,-2.4636,-2.4636,-2.4636,-2.4636,-2.4636,-2.4636,-2.4636,-2.4636,-2.4636,-2.4636,-2.4636,-2.4636,-2.4636,-2.4784,-2.5079,-2.4784,-2.4784,-2.5079,-2.4784,-2.4636,-2.4636,-2.5079,-2.5239,-2.5442,-2.6475,-2.6886,-2.7015,-2.7157,-2.7817,-2.8351,-2.7706,-2.7633,-2.8559,-3.2674,-3.6164,-3.8428,-3.8155,-3.8009,-3.7715,-3.696,-3.6812,-3.6812,-3.6812,-3.6812,-3.7107,-3.7862,-3.7715,-3.7696,-3.8428,-3.8574,-3.8574,-3.8574,-3.8574,-3.8574,-3.8574,-3.8574,-3.8574,-3.8574,-3.8574,-3.8574,-3.8574,-3.903,-3.9321,-3.9714,-4.0166,-4.0453,-4.0882,-4.0882,-4.0882,-4.0882,-4.0882,-4.0882,-4.0882,-4.0882,-4.0882,-2.4757,0.0,0.0,0.0,0.0,0.0,-1.7426,-1.7873,-1.8177,-1.7578,-1.8329,-1.8936,-1.8319,-1.8774,-1.8774,-1.7531,-1.6617,-1.571,-1.4798,-1.5089,-1.4935,-1.4176,-1.4176,-1.3722,-1.2656,-1.2501,-1.2501,-1.2501,-1.403,-1.5548,-1.7065,-2.0853,-2.3277,-2.4044,-2.4341,-2.4636,-2.4636,-2.4636,-2.4636,-2.4636,-2.4636,-2.4636,-2.4636,-2.4636,-2.4636,-2.4636,-2.4636,-2.4636,-2.4636,-2.4636,-2.4636,-2.4784,-2.4636,-2.4636,-2.4784,-2.4636,-2.4636,-2.4636,-2.5079,-2.5376,-2.5717,-2.6546,-2.7173,-2.7588,-2.7606,-2.8115,-2.8628,-2.8246,-2.8275,-2.9338,-3.2826,-3.6164,-3.8574,-3.8428,-3.8155,-3.7862,-3.7402,-3.7255,-3.7107,-3.6812,-3.7549,-3.8136,-3.8009,-3.8155,-3.8282,-3.8574,-3.8574,-3.8574,-3.8574,-3.8574,-3.8574,-3.8574,-3.8574,-3.8574,-3.8574,-3.8574,-3.872,-3.903,-3.9301,-3.9734,-4.0166,-4.0453,-4.074,-4.0882,-4.0882,-4.0882,-4.0882,-4.0882,-4.0882,-4.0882,-4.0882,-4.1025,-2.5653,-2.4449,-2.2794,-2.1153,0.0,0.0,-1.8025,-1.8481,-1.8926,-1.8481,-1.9088,-1.9693,-1.9229,-1.9531,-1.9531,-1.8905,-1.8603,-1.7844,-1.6007,-1.6303,-1.6456,-1.5854,-1.5242,-1.4483,-1.3568,-1.2958,-1.2811,-1.3414,-1.433,-1.616,-1.8885,-2.1601,-2.3277,-2.4044,-2.4341,-2.4636,-2.4636,-2.4636,-2.4636,-2.4636,-2.4636,-2.4636,-2.4636,-2.4636,-2.4636,-2.4636,-2.4636,-2.4636,-2.4636,-2.4636,-2.4636,-2.4784,-2.4636,-2.4636,-2.4784,-2.4636,-2.4636,-2.4636,-2.4931,-2.5283,-2.5841,-2.6566,-2.725,-2.7831,-2.7974,-2.8443,-2.8886,-2.9197,-3.0098,-3.1469,-3.3868,-3.5997,-3.7824,-3.8428,-3.8428,-3.8155,-3.7715,-3.7715,-3.7696,-3.7107,-3.7549,-3.8136,-3.8302,-3.8302,-3.8448,-3.8574,-3.8574,-3.8574,-3.8574,-3.8574,-3.8574,-3.8574,-3.8574,-3.8574,-3.8574,-3.8574,-3.872,-3.9176,-3.9445,-3.9858,-4.031,-4.074,-4.0882,-4.0882,-4.0882,-4.1147,-4.1855,-4.1855,-4.2116,-4.2656,-4.2236,-4.2116,-2.6838,-2.58,-2.4301,-2.2794,-2.1763,0.0,-1.9229,-1.9531,-2.0135,-1.9833,-1.9995,-1.9995,-1.9984,-1.9995,-2.0145,-2.0145,-2.0737,-2.0113,-1.7056,-1.7056,-1.7369,-1.7217,-1.616,-1.5395,-1.5242,-1.403,-1.3722,-1.5242,-1.5548,-1.7217,-2.0564,-2.1452,-2.2657,-2.4044,-2.4341,-2.4636,-2.4636,-2.4636,-2.4636,-2.4636,-2.4636,-2.4636,-2.4636,-2.4636,-2.4636,-2.4636,-2.4636,-2.4636,-2.4636,-2.4636,-2.4784,-2.5079,-2.4784,-2.4784,-2.5079,-2.4784,-2.4636,-2.4636,-2.4676,-2.5161,-2.5759,-2.6516,-2.7296,-2.7917,-2.8203,-2.8588,-2.9197,-3.0392,-3.2369,-3.4186,-3.5366,-3.5979,-3.6775,-3.8263,-3.8574,-3.8428,-3.8155,-3.8302,-3.8282,-3.7568,-3.7549,-3.7696,-3.8428,-3.8302,-3.8155,-3.8574,-3.8574,-3.8574,-3.8574,-3.8574,-3.8574,-3.8574,-3.8574,-3.8574,-3.8574,-3.8574,-3.8865,-3.9176,-3.959,-4.0002,-4.031,-4.074,-4.1025,-4.1147,-4.1289,-4.2116,-4.3631,-4.3375,-4.4045,-4.5232,-4.4138,-4.3609,-2.6239,-2.58,-2.4449,-2.4153,-2.3252,0.0,-2.0876,-2.1325,-2.1775,-2.0135,-2.0898,-2.1648,-2.0887,-2.1349,-2.181,-2.181,-2.196,-2.1648,-2.0263,-2.0725,-2.0725,-1.9359,-1.9046,-1.8441,-1.7521,-1.7065,-1.7217,-1.7815,-1.9327,-2.1153,-2.3129,-2.3722,-2.4179,-2.4488,-2.4488,-2.4636,-2.4636,-2.4636,-2.4636,-2.4636,-2.4636,-2.4636,-2.4636,-2.4636,-2.4636,-2.4636,-2.4636,-2.4636,-2.4636,-2.4636,-2.4636,-2.4784,-2.4636,-2.4636,-2.4784,-2.4636,-2.4636,-2.4676,-2.4917,-2.5184,-2.5769,-2.6836,-2.7297,-2.772,-2.8559,-2.8886,-2.9197,-3.0716,-3.3449,-3.57,-3.5997,-3.707,-3.8263,-3.8574,-3.8574,-3.8428,-3.8155,-3.8009,-3.8009,-3.7862,-3.8136,-3.8428,-3.8574,-3.8574,-3.8574,-3.8574,-3.8574,-3.8574,-3.8574,-3.8574,-3.8574,-3.8574,-3.8574,-3.8574,-3.8574,-3.8885,-3.9156,-3.957,-4.0022,-4.031,-4.074,-4.0882,-4.1431,-4.2678,-4.3747,-4.5232,-4.7003,-4.5526,-4.5096,-4.5615,-4.4298,-4.3885,-2.6385,-2.6399,-2.5639,-2.5038,-2.473,0.0,0.0,-2.3103,-2.3116,-2.2073,-2.2097,-2.2109,-2.1798,-2.196,-2.2259,-2.2259,-2.2259,-2.2109,-2.1648,-2.1948,-2.1948,-2.1187,-2.0425,-1.9801,-1.9197,-1.8582,-1.8723,-1.979,-2.1601,-2.3129,-2.3896,-2.4341,-2.4636,-2.4636,-2.4636,-2.4636,-2.4636,-2.4636,-2.4636,-2.4636,-2.4636,-2.4636,-2.4636,-2.4636,-2.4636,-2.4636,-2.4636,-2.4636,-2.4636,-2.4636,-2.4636,-2.4636,-2.4636,-2.4636,-2.4636,-2.4636,-2.473,-2.4877,-2.5024,-2.5523,-2.6067,-2.668,-2.7395,-2.7961,-2.8261,-2.9479,-3.13,-3.3297,-3.4954,-3.6312,-3.7217,-3.7364,-3.7677,-3.8428,-3.8574,-3.8574,-3.8302,-3.8302,-3.8302,-3.8302,-3.8428,-3.8574,-3.8574,-3.8574,-3.8574,-3.8574,-3.8574,-3.8574,-3.8574,-3.8574,-3.8574,-3.8574,-3.8574,-3.872,-3.8885,-3.903,-3.9465,-4.0022,-4.0166,-4.0453,-4.0882,-4.0882,-4.1573,-4.3097,-4.5391,-4.7003,-4.7929,-4.7929,-4.8036,-4.8167,-4.6822,-4.6043,-2.6546,-2.6983,-2.6838,-2.5918,-2.6225,-2.6385,0.0,0.0,0.0,-2.4005,-2.3141,-2.2259,-2.2259,-2.2259,-2.2259,-2.2259,-2.2259,-2.2259,-2.2408,-2.2408,-2.2408,-2.2259,-2.1487,-2.1014,-2.1014,-2.0241,-2.0241,-2.1601,-2.3129,-2.4193,-2.4193,-2.4488,-2.4488,-2.4488,-2.4488,-2.4488,-2.4341,-2.4488,-2.4488,-2.4341,-2.4488,-2.4488,-2.4488,-2.4488,-2.4488,-2.4636,-2.4636,-2.4636,-2.4636,-2.4636,-2.4636,-2.4636,-2.4636,-2.4636,-2.4636,-2.4636,-2.4823,-2.509,-2.5144,-2.5824,-2.6439,-2.6649,-2.7607,-2.8588,-2.8246,-3.0685,-3.4018,-3.57,-3.646,-3.6922,-3.8263,-3.7677,-3.6922,-3.8263,-3.8574,-3.8574,-3.8574,-3.8574,-3.8574,-3.8574,-3.8574,-3.8574,-3.8574,-3.8574,-3.8574,-3.8574,-3.8574,-3.8574,-3.8574,-3.8574,-3.8574,-3.8574,-3.872,-3.8885,-3.9176,-3.9321,-3.961,-4.031,-4.031,-4.0596,-4.0882,-4.1431,-4.2398,-4.3631,-4.6736,-4.8216,-4.806,-4.9797,-5.0715,-5.0715,-4.949,-4.8297,-2.6239,-2.6983,-2.6983,-2.726,-2.755,-2.7695,-2.6954,0.0,-2.5332,-2.4153,0.0,-2.2259,-2.2259,0.0,0.0,-2.2259,-2.2259,-2.2408,-2.2707,-2.2856,-2.2707,-2.2408,-2.2694,-2.2992,-2.2992,-2.3574,-2.4031,-2.4179,-2.4341,-2.4488,-2.4488,-2.4636,-2.4488,-2.4044,-2.4341,-2.4193,-2.3587,-2.4193,-2.4193,-2.3587,-2.3896,-2.4044,-2.4044,-2.4044,-2.4193,-2.4636,-2.4636,-2.4636,-2.4636,-2.4636,-2.4636,-2.4636,-2.4636,-2.4636,-2.4636,-2.4636,-2.4823,-2.5117,-2.5371,-2.5678,-2.6155,-2.6738,-2.8232,-2.9944,-3.0238,-3.2674,-3.5402,-3.6015,-3.7217,-3.8428,-3.8574,-3.8428,-3.8428,-3.8574,-3.8574,-3.8574,-3.8574,-3.8574,-3.8574,-3.8574,-3.8574,-3.8574,-3.8574,-3.8574,-3.8574,-3.8574,-3.8574,-3.8574,-3.8574,-3.8574,-3.8574,-3.8574,-3.8885,-3.9176,-3.9176,-3.9754,-4.0166,-4.031,-4.0596,-4.0882,-4.0882,-4.3331,-4.496,-4.548,-4.8347,-4.9565,-4.8843,-5.0308,-5.0994,-5.0994,-4.9643,-4.9102,-2.5332,-2.5932,-2.6371,-2.7825,-2.7535,-2.6794,-2.7245,-2.6502,-2.5465,-2.4301,0.0,0.0,0.0,0.0,0.0,0.0,-2.2558,-2.2707,-2.2856,-2.3302,-2.3451,-2.3005,-2.3451,-2.3883,-2.4044,-2.4341,-2.4636,-2.4636,-2.4636,-2.4636,-2.4636,-2.4636,-2.4488,-2.4341,-2.4488,-2.4488,-2.4044,-2.4488,-2.4488,-2.4044,-2.4341,-2.4341,-2.4341,-2.4341,-2.4488,-2.4636,-2.4636,-2.4636,-2.4636,-2.4636,-2.4636,-2.4636,-2.4636,-2.4636,-2.4663,-2.4823,-2.5077,-2.5371,-2.5665,-2.5959,-2.6383,-2.6833,-2.8104,-2.9774,-3.1606,-3.3566,-3.5551,-3.7217,-3.8117,-3.8574,-3.8574,-3.8574,-3.8574,-3.8574,-3.8574,-3.8574,-3.8574,-3.8574,-3.8574,-3.8574,-3.8574,-3.8574,-3.8574,-3.8574,-3.8574,-3.8574,-3.8574,-3.8574,-3.8574,-3.8574,-3.872,-3.8885,-3.903,-3.9321,-3.9754,-4.0166,-4.0453,-4.0596,-4.0882,-4.1289,-4.2116,-4.4161,-4.5773,-4.6979,-4.9282,-5.0334,-5.0181,-5.0968,-5.1346,-5.1346,-5.0816,-5.0155,-2.4275,-2.5024,-2.5758,-2.768,-2.7085,-2.6342,-2.7245,-2.6357,-2.5038,-2.4153,-2.3141,0.0,0.0,0.0,-2.2259,-2.2259,0.0,-2.2856,-2.3005,-2.36,-2.3896,-2.3438,-2.3748,-2.4193,-2.4488,-2.4636,-2.4636,-2.4636,-2.4636,-2.4636,-2.4636,-2.4636,-2.4488,-2.4488,-2.4488,-2.4488,-2.4341,-2.4488,-2.4488,-2.4341,-2.4341,-2.4488,-2.4488,-2.4488,-2.4488,-2.4636,-2.4636,-2.4636,-2.4636,-2.4636,-2.4636,-2.4636,-2.4636,-2.469,-2.4783,-2.4997,-2.5317,-2.5665,-2.5879,-2.6146,-2.6386,-2.6716,-2.779,-2.9464,-3.2201,-3.3717,-3.5253,-3.7824,-3.8574,-3.8428,-3.8574,-3.8574,-3.8574,-3.8574,-3.8574,-3.8574,-3.8574,-3.8574,-3.8574,-3.8574,-3.8574,-3.8574,-3.8574,-3.8574,-3.8574,-3.8574,-3.8574,-3.8574,-3.8574,-3.8574,-3.872,-3.9176,-3.9321,-3.959,-4.031,-4.0453,-4.0596,-4.0882,-4.1289,-4.1997,-4.3097,-4.4983,-4.6579,-4.806,-4.9797,-5.0715,-5.0715,-5.1346,-5.1471,-5.1068,-5.1471,-5.1068,-2.2806,-2.4288,-2.5465,-2.6808,-2.6954,-2.71,-2.739,-2.5772,-2.4005,-2.4005,-2.3141,-2.2259,-2.2259,-2.2259,-2.2259,-2.2259,-2.2707,0.0,0.0,-2.3748,-2.3896,-2.3438,-2.3748,-2.4193,-2.4488,-2.4636,-2.4636,-2.4636,-2.4636,-2.4636,-2.4636,-2.4636,-2.4488,-2.4044,-2.4341,-2.4193,-2.3438,-2.4193,-2.4193,-2.3438,-2.3896,-2.4044,-2.4044,-2.4044,-2.4193,-2.4636,-2.4636,-2.4636,-2.4636,-2.4636,-2.4636,-2.4636,-2.4636,-2.481,-2.5064,-2.5077,-2.5451,-2.5945,-2.5959,-2.6146,-2.6386,-2.6386,-2.7462,-2.9308,-3.1743,-3.3432,-3.4971,-3.7824,-3.8302,-3.8155,-3.8428,-3.8574,-3.8574,-3.8574,-3.8574,-3.8574,-3.8574,-3.8574,-3.8574,-3.8574,-3.8574,-3.8574,-3.8574,-3.8574,-3.8574,-3.8574,-3.8574,-3.8574,-3.8574,-3.8574,-3.872,-3.9176,-3.9445,-3.9858,-4.031,-4.0596,-4.0882,-4.0882,-4.2278,-4.3097,-4.3097,-4.6201,-4.806,-4.8428,-5.0181,-5.0588,-4.9515,-5.0942,-5.0942,-4.9643,-5.0942,-5.1596,-2.1164,-2.1751,-2.2645,-2.4864,-2.4422,-2.3684,-2.4891,-2.4596,-2.3722,-2.2992,-2.2558,-2.2259,-2.2259,-2.2259,-2.2408,-2.2707,-2.3005,-2.3302,0.0,-2.4341,-2.4784,-2.4636,-2.4784,-2.4784,-2.4931,-2.4931,-2.4931,-2.4636,-2.4636,-2.4636,-2.4636,-2.4636,-2.4488,-2.4341,-2.4488,-2.4488,-2.4193,-2.4488,-2.4488,-2.4193,-2.4341,-2.4341,-2.4341,-2.4341,-2.4488,-2.4636,-2.4636,-2.4636,-2.4636,-2.4636,-2.4636,-2.4649,-2.485,-2.5104,-2.5371,-2.5371,-2.5611,-2.5985,-2.6172,-2.6306,-2.6386,-2.6386,-2.8388,-3.1146,-3.2201,-3.4486,-3.7089,-3.8282,-3.8428,-3.8428,-3.8574,-3.8574,-3.8574,-3.8574,-3.8574,-3.8574,-3.8574,-3.8574,-3.8574,-3.8574,-3.8574,-3.8574,-3.8574,-3.8574,-3.8574,-3.8574,-3.8574,-3.8574,-3.8574,-3.8574,-3.8865,-3.9445,-3.957,-4.0002,-4.0596,-4.0882,-4.1289,-4.2257,-4.2818,-4.4045,-4.6201,-4.7269,-4.8583,-5.0181,-5.0842,-5.0968,-5.0942,-5.1346,-5.1346,-5.0942,-5.1346,-5.1596,-1.9661,-2.0113,-2.0853,-2.293,-2.2484,-2.19,-2.3264,-2.3264,-2.2819,-2.2408,-2.2259,-2.2259,-2.2259,-2.2259,-2.2408,0.0,0.0,-2.36,0.0,-2.4784,-2.5226,-2.5373,-2.5373,-2.5373,-2.5373,-2.5373,-2.5373,-2.5079,-2.4931,-2.4784,-2.4784,-2.4636,-2.4636,-2.4636,-2.4636,-2.4636,-2.4636,-2.4636,-2.4636,-2.4636,-2.4636,-2.4636,-2.4636,-2.4636,-2.4636,-2.4636,-2.4636,-2.4636,-2.4636,-2.4636,-2.4636,-2.4663,-2.497,-2.5251,-2.5518,-2.5625,-2.5852,-2.6132,-2.6319,-2.6386,-2.6386,-2.6386,-2.853,-3.113,-3.2201,-3.4486,-3.6979,-3.8457,-3.8545,-3.8321,-3.8769,-3.8691,-3.8574,-3.8574,-3.8574,-3.8574,-3.8574,-3.8574,-3.8574,-3.8574,-3.8574,-3.8574,-3.8574,-3.8574,-3.8574,-3.8574,-3.8574,-3.8574,-3.8574,-3.8574,-3.8865,-3.957,-3.9714,-4.0002,-4.0882,-4.0882,-4.1573,-4.2958,-4.3769,-4.5255,-4.7797,-4.8608,-4.9744,-5.1405,-5.135,-5.145,-5.191,-5.1701,-5.1596,-5.1596,-5.1721,-5.1721]}]]